[[{"header":{"parameterUnit":"m.s-1","parameterCategory":1,"la1":31.0,"la2":29.5877,"lo1":-88.7671,"lo2":-86.6584,"dy":0.0162,"dx":0.0185,"nx":115,"ny":88,"refTime":"2023-08-02T00:00:00:Z","depth":0,"parameterNumber":2,"parameterNumberName":"U-component_of_WINDS"},"data":[0.0,0.0,0.0,0.0,0.0,0.0,0.0,0.0,0.0,0.0,0.0,0.0,0.0,0.0,0.0,0.0,0.0,0.0,0.0,0.0,0.0,0.0,0.0,0.0,0.0,0.0,0.0,0.0,0.0,0.0,0.0,0.0,0.0,0.0,0.0,0.0,0.0,0.0,0.0,0.0,0.0,0.0,0.0,0.0,0.0,0.0,0.0,0.0,0.0,0.0,0.0,0.0,0.0,0.0,0.0,0.0,0.0,0.0,0.0,0.0,0.0,0.0,0.0,0.0,0.0,0.0,0.0,0.0,0.0,0.0,0.0,0.0,0.0,0.0,0.0,0.0,0.0,0.0,0.0,0.0,0.0,0.0,0.0,0.0,0.0,0.0,0.0,0.0,0.0,0.0,0.0,0.0,0.0,0.0,0.0,0.0,0.0,0.0,0.0,0.0,0.0,0.0,0.0,0.0,0.0,0.0,0.0,0.0,0.0,0.0,0.0,0.0,0.0,0.0,0.0,0.0,0.0,0.0,0.0,0.0,0.0,0.0,0.0,0.0,0.0,0.0,0.0,0.0,0.0,0.0,0.0,0.0,0.0,0.0,0.0,0.0,0.0,0.0,0.0,0.0,0.0,0.0,0.0,0.0,0.0,0.0,0.0,0.0,0.0,0.0,0.0,0.0,0.0,0.0,0.0,0.0,0.0,0.0,0.0,0.0,0.0,0.0,0.0,0.0,0.0,0.0,0.0,0.0,0.0,0.0,0.0,0.0,0.0,0.0,0.0,0.0,0.0,0.0,0.0,0.0,0.0,0.0,0.0,0.0,0.0,0.0,0.0,0.0,0.0,0.0,0.0,0.0,0.0,0.0,0.0,0.0,0.0,0.0,0.0,0.0,0.0,0.0,0.0,0.0,0.0,0.0,0.0,0.0,0.0,0.0,0.0,0.0,0.0,0.0,0.0,0.0,0.0,0.0,0.0,0.0,0.0,0.0,0.0,0.0,0.0,0.0,0.0,0.0,0.0,0.0,0.0,0.0,0.0,0.0,0.0,0.0,0.0,0.0,0.0,0.0,0.0,0.0,0.0,0.0,0.0,0.0,0.0,0.0,0.0,0.0,0.0,0.0,0.0,0.0,0.0,0.0,0.0,0.0,0.0,0.0,0.0,0.0,0.0,0.0,0.0,0.0,0.0,0.0,0.0,0.0,0.0,0.0,0.0,0.0,0.0,0.0,0.0,0.0,0.0,0.0,0.0,0.0,0.0,0.0,0.0,0.0,0.0,0.0,0.0,0.0,0.0,0.0,0.0,0.0,0.0,0.0,0.0,0.0,0.0,0.0,0.0,0.0,0.0,0.0,0.0,0.0,0.0,0.0,0.0,0.0,0.0,0.0,0.0,0.0,0.0,0.0,0.0,0.0,0.0,0.0,0.0,0.0,0.0,0.0,0.0,0.0,0.0,0.0,0.0,0.0,0.0,0.0,0.0,0.0,0.0,0.0,0.0,0.0,0.0,0.0,0.0,0.0,0.0,0.0,0.0,0.0,0.0,0.0,0.0,0.0,0.0,0.0,0.0,0.0,0.0,0.0,0.0,0.0,0.0,0.0,0.0,0.0,0.0,0.0,0.0,0.0,0.0,0.0,0.0,0.0,0.0,0.0,0.0,0.0,0.0,0.0,0.0,0.0,0.0,0.0,0.0,0.0,0.0,0.0,0.0,0.0,0.0,0.0,0.0,0.0,0.0,0.0,0.0,0.0,0.0,0.0,0.0,0.0,0.0,0.0,0.0,0.0,0.0,0.0,0.0,0.0,0.0,0.0,0.0,0.0,0.0,0.0,0.0,0.0,0.0,0.0,0.0,0.0,0.0,0.0,0.0,0.0,0.0,0.0,0.0,0.0,0.0,0.0,0.0,0.0,0.0,0.0,0.0,0.0,0.0,0.0,0.0,0.0,0.0,0.0,0.0,0.0,0.0,0.0,0.0,0.0,0.0,0.0,0.0,0.0,0.0,0.0,0.0,0.0,0.0,0.0,0.0,0.0,0.0,0.0,0.0,0.0,0.0,0.0,0.0,0.0,0.0,0.0,0.0,0.0,0.0,0.0,0.0,0.0,0.0,0.0,0.0,0.0,0.0,0.0,0.0,0.0,0.0,0.0,0.0,0.0,0.0,0.0,0.0,0.0,0.0,0.0,0.0,0.0,0.0,0.0,0.0,0.0,0.0,0.0,0.0,0.0,0.0,0.0,0.0,0.0,0.0,0.0,0.0,0.0,0.0,0.0,0.0,0.0,0.0,0.0,0.0,0.0,0.0,0.0,0.0,0.0,0.0,0.0,0.0,0.0,0.0,0.0,0.0,0.0,0.0,0.0,0.0,0.0,0.0,0.0,0.0,0.0,0.0,0.0,0.0,0.0,0.0,0.0,0.0,0.0,0.0,0.0,0.0,0.0,0.0,0.0,0.0,0.0,0.0,0.0,0.0,0.0,0.0,0.0,0.0,0.0,0.0,0.0,0.0,0.0,0.0,0.0,0.0,0.0,0.0,0.0,0.0,0.0,0.0,0.0,0.0,0.0,0.0,0.0,0.0,0.0,0.0,0.0,0.0,0.0,0.0,0.0,0.0,0.0,0.0,0.0,0.0,0.0,0.0,0.0,0.0,0.0,0.0,0.0,0.0,0.0,0.0,0.0,0.0,0.0,0.0,0.0,0.0,0.0,0.0,0.0,0.0,0.0,0.0,0.0,0.0,0.0,0.0,0.0,0.0,0.0,0.0,0.0,0.0,0.0,0.0,0.0,0.0,0.0,0.0,0.0,0.0,0.0,0.0,0.0,0.0,0.0,0.0,0.0,0.0,0.0,0.0,0.0,0.0,0.0,0.0,0.0,0.0,0.0,0.0,0.0,0.0,0.0,0.0,0.0,0.0,0.0,0.0,0.0,0.0,0.0,0.0,0.0,0.0,0.0,0.0,0.0,0.0,0.0,0.0,0.0,0.0,0.0,0.0,0.0,0.0,0.0,0.0,0.0,0.0,0.0,0.0,0.0,0.0,0.0,0.0,0.0,0.0,0.0,0.0,0.0,0.0,0.0,0.0,0.0,0.0,0.0,0.0,0.0,0.0,0.0,0.0,0.0,0.0,0.0,0.0,0.0,0.0,0.0,0.0,0.0,0.0,0.0,0.0,0.0,0.0,0.0,0.0,0.0,0.0,0.0,0.0,0.0,0.0,0.0,0.0,0.0,0.0,0.0,0.0,0.0,0.0,0.0,0.0,0.0,0.0,0.0,0.0,0.0,0.0,0.0,0.0,0.0,0.0,0.0,0.0,0.0,0.0,0.0,0.0,0.0,0.0,0.0,0.0,0.0,0.0,0.0,0.0,0.0,0.0,0.0,0.0,0.0,0.0,0.0,0.0,0.0,0.0,0.0,0.0,0.0,0.0,0.0,0.0,0.0,0.0,0.0,0.0,0.0,0.0,0.0,0.0,0.0,0.0,0.0,0.0,0.0,0.0,0.0,0.0,0.0,0.0,0.0,0.0,0.0,0.0,0.0,0.0,0.0,0.0,0.0,0.0,0.0,0.0,0.0,0.0,0.0,0.0,0.0,0.0,0.0,0.0,0.0,0.0,0.0,0.0,0.0,0.0,0.0,0.0,0.0,0.0,0.0,0.0,0.0,0.0,0.0,0.0,0.0,0.0,0.0,0.0,0.0,0.0,0.0,0.0,0.0,0.0,0.0,0.0,0.0,0.0,0.0,0.0,0.0,0.0,0.0,0.0,0.0,0.0,0.0,0.0,0.0,0.0,0.0,0.0,0.0,0.0,0.0,0.0,0.0,0.0,0.0,0.0,0.0,0.0,0.0,0.0,0.0,0.0,0.0,0.0,0.0,0.0,0.0,0.0,0.0,0.0,0.0,0.0,0.0,0.0,0.0,0.0,0.0,0.0,0.0,0.0,0.0,0.0,0.0,0.0,0.0,0.0,0.0,0.0,0.0,0.0,0.0,0.0,0.0,0.0,0.0,0.0,0.0,0.0,0.0,0.0,0.0,0.0,0.0,0.0,0.0,0.0,0.0,0.0,0.0,0.0,0.0,0.0,0.0,0.0,0.0,0.0,0.0,0.0,0.0,0.0,0.0,0.0,0.0,0.0,0.0,0.0,0.0,0.0,0.0,0.0,0.0,0.0,0.0,0.0,0.0,0.0,0.0,0.0,0.0,0.0,0.0,0.0,0.0,0.0,0.0,0.0,0.0,0.0,0.0,0.0,0.0,0.0,0.0,0.0,0.0,0.0,0.0,0.3048,0.0,0.0,0.0,0.0,0.0,0.0,0.0,0.0,0.0,0.0,0.0,0.0,0.0,0.0,0.0,0.0,0.0,0.0,0.0,0.0,0.0,0.0,0.0,0.0,0.0,0.0,0.0,0.0,0.0,0.0,0.0,0.0,0.0,0.0,0.0,0.0,0.0,0.0,0.0,0.0,0.0,0.0,0.0,0.0,0.0,0.0,0.0,0.0,0.0,0.0,0.0,0.0,0.0,0.0,0.0,0.0,0.0,0.0,0.0,0.0,0.0,0.0,0.0,0.0,0.0,0.0,0.0,0.0,0.0,0.0,0.0,0.0,0.0,0.0,0.0,0.0,0.0,0.0,0.0,0.0,0.0,0.0,0.0,0.0,0.0,0.0,0.0,0.0,0.0,0.0,0.0,0.0,0.0,0.0,0.0,0.0,0.0,0.0,0.0,0.0,0.0,0.0,0.0,0.0,0.0,0.0,0.0,0.0,0.0,0.0,0.3578,0.3575,0.328,0.312,0.3113,0.0,0.0,0.0,0.0,0.0,0.0,0.0,0.0,0.0,0.0,0.0,0.0,0.0,0.0,0.0,0.0,0.0,0.0,0.0,0.0,0.0,0.0,0.0,0.0,0.0,0.0,0.0,0.0,0.0,0.0,0.0,0.0,0.0,0.0,0.0,0.0,0.0,0.0,0.0,0.0,0.0,0.0,0.0,0.0,0.0,0.0,0.0,0.0,0.0,0.0,0.0,0.0,0.0,0.0,0.0,0.0,0.0,0.0,0.0,0.0,0.0,0.0,0.0,0.0,0.0,0.0,0.0,0.0,0.0,0.0,0.0,0.0,0.0,0.0,0.0,0.0,0.0,0.0,0.0,0.0,0.0,0.0,0.0,0.0,0.0,0.0,0.0,0.0,0.0,0.0,0.0,0.0,0.0,0.0,0.0,0.0,0.0,0.0,0.0,0.0,0.0,0.0,0.0,0.0,0.0,0.0,0.0,0.0,0.0,0.0,0.0,0.0,0.3283,0.3051,0.3018,0.0,0.0,0.0,0.0,0.0,0.0,0.0,0.0,0.0,0.0,0.0,0.0,0.0,0.0,0.0,0.0,0.0,0.0,0.0,0.0,0.0,0.0,0.0,0.0,0.0,0.0,0.0,0.0,0.0,0.0,0.0,0.0,0.0,0.0,0.0,0.0,0.0,0.0,0.0,0.0,0.0,0.0,0.0,0.0,0.0,0.0,0.0,0.0,0.0,0.0,0.0,0.0,0.0,0.0,0.0,0.0,0.0,0.0,0.0,0.0,0.0,0.0,0.0,0.0,0.0,0.0,0.0,0.0,0.0,0.0,0.0,0.0,0.0,0.0,0.0,0.0,0.0,0.0,0.0,0.0,0.0,0.0,0.0,0.0,0.0,0.0,0.0,0.0,0.0,0.0,0.0,0.0,0.0,0.0,0.0,0.0,0.0,0.0,0.0,0.0,0.0,0.0,0.0,0.0,0.0,0.0,0.0,0.0,0.0,0.0,0.3578,0.3622,0.328,0.0,0.2744,0.0,0.0,0.0,0.0,0.0,0.0,0.0,0.0,0.0,0.0,0.0,0.0,0.0,0.0,0.0,0.0,0.0,0.0,0.0,0.0,0.0,0.0,0.0,0.0,0.0,0.0,0.0,0.0,0.0,0.0,0.0,0.0,0.0,0.0,0.0,0.0,0.0,0.0,0.0,0.0,0.0,0.0,0.0,0.0,0.0,0.0,0.0,0.0,0.0,0.0,0.0,0.0,0.0,0.0,0.0,0.0,0.0,0.0,0.0,0.0,0.0,0.0,0.0,0.0,0.0,0.0,0.0,0.0,0.0,0.0,0.0,0.0,0.0,0.0,0.0,0.0,0.0,0.0,0.0,0.0,0.0,0.0,0.0,0.0,0.0,0.0,0.0,0.0,0.0,0.0,0.0,0.0,0.0,0.0,0.0,0.0,0.0,0.0,0.0,0.0,0.0,0.0,0.0,0.0,0.0,0.0,0.0,0.0,0.0,0.0,0.3891,0.3888,0.3445,0.3058,0.0,0.0,0.0,0.0,0.0,0.0,0.0,0.0,0.0,0.0,0.0,0.0,0.0,0.0,0.0,0.0,0.0,0.0,0.0,0.0,0.0,0.0,0.0,0.0,0.0,0.0,0.0,0.0,0.0,0.0,0.0,0.0,0.0,0.0,0.0,0.0,0.0,0.0,0.0,0.0,0.0,0.0,0.0,0.0,0.0,0.0,0.0,0.0,0.0,0.0,0.0,0.0,0.0,0.0,0.0,0.0,0.0,0.0,0.0,0.0,0.0,0.0,0.0,0.0,0.0,0.0,0.0,0.0,0.0,0.0,0.0,0.0,0.0,0.0,0.0,0.0,0.0,0.0,0.0,0.0,0.0,0.0,0.0,0.0,0.0,0.0,0.0,0.0,0.0,0.0,0.0,0.0,0.0,0.0,0.0,0.0,0.0,0.0,0.0,0.0,0.0,0.0,0.0,0.0,0.0,0.0,0.0,0.0,0.0,0.0,0.4168,0.4077,0.3932,0.3535,0.3162,0.2856,0.0,0.0,0.0,0.0,0.0,0.0,0.0,0.0,0.0,0.0,0.0,0.0,0.0,0.0,0.0,0.0,0.0,0.0,0.0,0.0,0.0,0.0,0.0,0.0,0.0,0.0,0.0,0.0,0.0,0.0,0.0,0.0,0.0,0.0,0.0,0.0,0.0,0.0,0.0,0.0,0.0,0.0,0.0,0.0,0.0,0.0,0.0,0.0,0.0,0.0,0.0,0.0,0.0,0.0,0.0,0.0,0.0,0.0,0.0,0.0,0.0,0.0,0.0,0.0,0.0,0.0,0.0,0.0,0.0,0.0,0.0,0.0,0.0,0.0,0.0,0.0,0.0,0.0,0.0,0.0,0.0,0.0,0.0,0.0,0.0,0.0,0.0,0.0,0.0,0.0,0.0,0.0,0.0,0.0,0.0,0.0,0.0,0.0,0.0,0.0,0.0,0.0,0.0,0.0,0.0,0.0,0.0,0.0,0.4322,0.4267,0.4051,0.3642,0.3425,0.3189,0.0,0.0,0.0,0.0,0.0,0.0,0.0,0.0,0.0,0.0,0.0,0.0,0.0,0.0,0.0,0.0,0.0,0.0,0.0,0.0,0.0,0.0,0.0,0.0,0.0,0.0,0.0,0.0,0.0,0.0,0.0,0.0,0.0,0.0,0.0,0.0,0.0,0.0,0.0,0.0,0.0,0.0,0.0,0.0,0.0,0.0,0.0,0.0,0.0,0.0,0.0,0.0,0.0,0.0,0.0,0.0,0.0,0.0,0.0,0.0,0.0,0.0,0.0,0.0,0.0,0.0,0.0,0.0,0.0,0.0,0.0,0.0,0.0,0.0,0.0,0.0,0.0,0.0,0.0,0.0,0.0,0.0,0.0,0.0,0.0,0.0,0.0,0.0,0.0,0.0,0.0,0.0,0.0,0.0,0.0,0.0,0.0,0.0,0.0,0.0,0.0,0.0,0.0,0.0,0.0,0.0,0.0,0.0,0.0,0.4853,0.4724,0.4437,0.4045,0.3863,0.356,0.0,0.0,0.0,0.0,0.0,0.0,0.0,0.0,0.0,0.0,0.0,0.0,0.0,0.0,0.0,0.0,0.0,0.0,0.0,0.0,0.0,0.0,0.0,0.0,0.0,0.0,0.0,0.0,0.0,0.0,0.0,0.0,0.0,0.0,0.0,0.0,0.0,0.0,0.0,0.0,0.0,0.0,0.0,0.0,0.0,0.0,0.0,0.0,0.0,0.0,0.0,0.0,0.0,0.0,0.0,0.0,0.0,0.0,0.0,0.0,0.0,0.0,0.0,0.0,0.0,0.0,0.0,0.0,0.0,0.0,0.0,0.0,0.0,0.0,0.0,0.0,0.0,0.0,0.0,0.0,0.0,0.0,0.0,0.0,0.0,0.0,0.0,0.0,0.0,0.0,0.0,0.0,0.0,0.0,0.0,0.0,0.0,0.0,0.0,0.0,0.0,0.0,0.0,0.0,0.0,0.0,0.0,0.0,0.0,0.5342,0.0,0.4717,0.4461,0.4245,0.3942,0.0,0.0,0.0,0.0,0.0,0.0,0.0,0.0,0.0,0.0,0.0,0.0,0.0,0.0,0.0,0.0,0.0,0.0,0.0,0.0,0.0,0.0,0.0,0.0,0.0,0.0,0.0,0.0,0.0,0.0,0.0,0.0,0.0,0.0,0.0,0.0,0.0,0.0,0.0,0.0,0.0,0.0,0.0,0.0,0.0,0.0,0.0,0.0,0.0,0.0,0.0,0.0,0.0,0.0,0.0,0.0,0.0,0.0,0.0,0.0,0.0,0.0,0.0,0.0,0.0,0.0,0.0,0.0,0.0,0.0,0.0,0.0,0.0,0.0,0.0,0.0,0.0,0.0,0.0,0.0,0.0,0.0,0.0,0.0,0.0,0.0,0.0,0.0,0.0,0.0,0.0,0.0,0.0,0.0,0.0,0.0,0.0,0.0,0.0,0.0,0.0,0.0,0.0,0.0,0.0,0.0,0.0,0.0,0.6037,0.5689,0.5187,0.4889,0.4812,0.4561,0.4291,0.0,0.0,0.0,0.0,0.0,0.0,0.0,0.0,0.0,0.0,0.0,0.0,0.0,0.0,0.0,0.0,0.0,0.0,0.0,0.0,0.0,0.0,0.0,0.0,0.0,0.0,0.0,0.0,0.0,0.0,0.0,0.0,0.0,0.0,0.0,0.0,0.0,0.0,0.0,0.0,0.0,0.0,0.0,0.0,0.0,0.0,0.0,0.0,0.0,0.0,0.0,0.0,0.0,0.0,0.0,0.0,0.0,0.0,0.0,0.0,0.0,0.0,0.0,0.0,0.0,0.0,0.0,0.0,0.0,0.0,0.0,0.0,0.0,0.0,0.0,0.0,0.0,0.0,0.0,0.0,0.0,0.0,0.0,0.0,0.0,0.0,0.0,0.0,0.0,0.0,0.0,0.0,0.0,0.0,0.0,0.0,0.0,0.0,0.0,0.0,0.0,0.0,0.0,0.0,0.0,0.0,0.0,0.0,0.0,0.611,0.5732,0.546,0.5358,0.5144,0.4832,0.0,0.0,0.0,0.0,0.0,0.0,0.0,0.0,0.0,0.0,0.0,0.0,0.0,0.0,0.0,0.0,0.0,0.0,0.0,0.0,0.0,0.0,0.0,0.0,0.0,0.0,0.0,0.0,0.0,0.0,0.0,0.0,0.0,0.0,0.0,0.0,0.0,0.0,0.0,0.0,0.0,0.0,0.0,0.0,0.0,0.0,0.0,0.0,0.0,0.0,0.0,0.0,0.0,0.0,0.0,0.0,0.0,0.0,0.0,0.0,0.0,0.0,0.0,0.0,0.0,0.0,0.0,0.0,0.0,0.0,0.0,0.0,0.0,0.0,0.0,0.0,0.0,0.0,0.0,0.0,0.0,0.0,0.0,0.0,0.0,0.0,0.0,0.0,0.0,0.0,0.0,0.0,0.0,0.0,0.0,0.0,0.0,0.0,0.0,0.0,0.0,0.0,0.0,0.0,0.0,0.0,0.0,0.0,0.0,0.6733,0.6324,0.6014,0.5882,0.5679,0.534,0.489,0.0,0.0,0.0,0.0,0.0,0.0,0.0,0.0,0.0,0.0,0.0,0.0,0.0,0.0,0.0,0.0,0.0,0.0,0.0,0.0,0.0,0.0,0.0,0.0,0.0,0.0,0.0,0.0,0.0,0.0,0.0,0.0,0.0,0.0,0.0,0.0,0.0,0.0,0.0,0.0,0.0,0.0,0.0,0.0,0.0,0.0,0.0,0.0,0.0,0.0,0.0,0.0,0.0,0.0,0.0,0.0,0.0,0.0,0.0,0.0,0.0,0.0,0.0,0.0,0.0,0.0,0.0,0.0,0.0,0.0,0.0,0.0,0.0,0.0,0.0,0.0,0.0,0.0,0.0,0.0,0.0,0.0,0.0,0.0,0.0,0.0,0.0,0.0,0.0,0.0,0.0,0.0,0.0,0.0,0.0,0.0,0.0,0.0,0.0,0.0,0.0,0.0,0.0,0.0,0.0,0.0,0.0,0.0,0.7513,0.6958,0.6626,0.6452,0.6168,0.5804,0.0,0.0,0.0,0.0,0.0,0.0,0.0,0.0,0.0,0.0,0.0,0.0,0.0,0.0,0.0,0.0,0.0,0.0,0.0,0.0,0.0,0.0,0.0,0.0,0.0,0.0,0.0,0.0,0.0,0.0,0.0,0.0,0.0,0.0,0.0,0.0,0.0,0.0,0.0,0.0,0.0,0.0,0.0,0.0,0.0,0.0,0.0,0.0,0.0,0.0,0.0,0.0,0.0,0.0,0.0,0.0,0.0,0.0,0.0,0.0,0.0,0.0,0.0,0.0,0.0,0.0,0.0,0.0,0.0,0.0,0.0,0.0,0.0,0.0,0.0,0.0,0.0,0.0,0.0,0.0,0.0,0.0,0.0,0.0,0.0,0.0,0.0,0.0,0.0,0.0,0.0,0.0,0.0,0.0,0.0,0.0,0.0,0.0,0.0,0.0,0.0,0.0,0.0,0.0,0.0,0.0,0.0,0.0,0.0,0.7641,0.7725,0.752,0.7008,0.6678,0.6252,0.0,0.0,0.0,0.0,0.0,0.0,0.0,0.0,0.0,0.0,0.0,0.0,0.0,0.0,0.0,0.0,0.0,0.0,0.0,0.0,0.0,0.0,0.0,0.0,0.0,0.0,0.0,0.0,0.0,0.0,0.0,0.0,0.0,0.0,0.0,0.0,0.0,0.0,0.0,0.0,0.0,0.0,0.0,0.0,0.0,0.0,0.0,0.0,0.0,0.0,0.0,0.0,0.0,0.0,0.0,0.0,0.0,0.0,0.0,0.0,0.0,0.0,0.0,0.0,0.0,0.0,0.0,0.0,0.0,0.0,0.0,0.0,0.0,0.0,0.0,0.0,0.0,0.0,0.0,0.0,0.0,0.0,0.0,0.0,0.0,0.0,0.0,0.0,0.0,0.0,0.0,0.0,0.0,0.0,0.0,0.0,0.0,0.0,0.0,0.0,0.0,0.0,0.0,0.0,0.0,0.0,0.0,0.0,0.817,0.8004,0.8365,0.8308,0.7801,0.7207,0.6579,0.0,0.0,0.0,0.0,0.0,0.0,0.0,0.0,0.0,0.0,0.0,0.0,0.0,0.0,0.0,0.0,0.0,0.0,0.0,0.0,0.0,0.0,0.0,0.0,0.0,0.0,0.0,0.0,0.0,0.0,0.0,0.0,0.0,0.0,0.0,0.0,0.0,0.0,0.0,0.0,0.0,0.0,0.0,0.0,0.0,0.0,0.0,0.0,0.0,0.0,0.0,0.0,0.0,0.0,0.0,0.0,0.0,0.0,0.0,0.0,0.0,0.0,0.0,0.0,0.0,0.0,0.0,0.0,0.0,0.0,0.0,0.0,0.0,0.0,0.0,0.0,0.0,0.0,0.0,0.0,0.0,0.0,0.0,0.0,0.0,0.0,0.0,0.0,0.0,0.0,0.0,0.0,0.0,0.0,0.0,0.0,0.0,0.0,0.0,0.0,0.0,0.0,0.0,0.0,0.0,0.0,0.0,0.0,0.8613,0.8471,0.8828,0.8921,0.8645,0.7744,0.688,0.0,0.0,0.0,0.0,0.0,0.0,0.0,0.0,0.0,0.0,0.0,0.0,0.0,0.0,0.0,0.0,0.0,0.0,0.0,0.0,0.0,0.0,0.0,0.0,0.0,0.0,0.0,0.0,0.0,0.0,0.0,0.0,0.0,0.0,0.0,0.0,0.0,0.0,0.0,0.0,0.0,0.0,0.0,0.0,0.0,0.0,0.0,0.0,0.0,0.0,0.0,0.0,0.0,0.0,0.0,0.0,0.0,0.0,0.0,0.0,0.0,0.0,0.0,0.0,0.0,0.0,0.0,0.0,0.0,0.0,0.0,0.0,0.0,0.0,0.0,0.0,0.0,0.0,0.0,0.0,0.0,0.0,0.0,0.0,0.0,0.0,0.0,0.0,0.0,0.0,0.0,0.0,0.0,0.0,0.0,0.0,0.0,0.0,0.0,0.0,0.0,0.0,0.0,0.0,0.0,0.0,0.0,0.0,0.9023,0.8811,0.9074,0.9162,0.8999,0.8135,0.7248,0.0,0.0,0.0,0.0,0.0,0.0,0.0,0.0,0.0,0.0,0.0,0.0,0.0,0.0,0.0,0.0,0.0,0.0,0.0,0.0,0.0,0.0,0.0,0.0,0.0,0.0,0.0,0.0,0.0,0.0,0.0,0.0,0.0,0.0,0.0,0.0,0.0,0.0,0.0,0.0,0.0,0.0,0.0,0.0,0.0,0.0,0.0,0.0,0.5534,0.0,0.0,0.0,0.0,0.0,0.0,0.0,0.0,0.0,0.0,0.0,0.0,0.0,0.0,0.0,0.0,0.0,0.0,0.0,0.0,0.0,0.0,0.0,0.0,0.0,0.0,0.0,0.0,0.0,0.0,0.0,0.0,0.0,0.0,0.0,0.0,0.0,0.0,0.0,0.0,0.0,0.0,0.0,0.0,0.0,0.0,0.0,0.0,0.0,0.0,0.0,0.0,0.0,0.0,0.0,0.0,0.0,0.0,0.0,0.9469,0.9151,0.9357,0.9396,0.9232,0.8501,0.7666,0.0,0.0,0.0,0.0,0.0,0.0,0.0,0.0,0.0,0.0,0.0,0.0,0.0,0.0,0.0,0.0,0.0,0.0,0.0,0.0,0.0,0.0,0.0,0.0,0.0,0.0,0.0,0.0,0.0,0.0,0.0,0.0,0.0,0.0,0.0,0.0,0.0,0.0,0.0,0.0,0.0,0.0,0.0,0.0,0.0,0.0,0.0,0.0,0.0,0.0,0.0,0.0,0.0,0.0,0.0,0.0,0.0,0.0,0.0,0.0,0.0,0.0,0.0,0.0,0.0,0.0,0.0,0.0,0.0,0.0,0.0,0.0,0.0,0.0,0.0,0.0,0.0,0.0,0.0,0.0,0.0,0.0,0.0,0.0,0.0,0.0,0.0,0.0,0.0,0.0,0.0,0.0,0.0,0.0,0.0,0.0,0.0,0.0,0.0,0.0,0.0,0.0,0.0,0.0,0.0,0.0,0.0,0.9606,0.9786,0.9444,0.9621,0.9621,0.9408,0.8844,0.8029,0.6943,0.0,0.0,0.0,0.0,0.0,0.0,0.0,0.0,0.0,0.0,0.0,0.0,0.0,0.0,0.0,0.0,0.0,0.0,0.0,0.0,0.0,0.0,0.0,0.0,0.0,0.0,0.0,0.0,0.0,0.0,0.0,0.0,0.0,0.0,0.0,0.0,0.0,0.0,0.5468,0.5472,0.0,0.0,0.0,0.0,0.0,0.0,0.0,0.0,0.447,0.0,0.0,0.0,0.0,0.0,0.0,0.0,0.0,0.0,0.0,0.0,0.0,0.0,0.0,0.0,0.0,0.0,0.0,0.0,0.0,0.0,0.0,0.0,0.0,0.0,0.0,0.0,0.0,0.0,0.0,0.0,0.0,0.0,0.0,0.0,0.0,0.0,0.0,0.0,0.0,0.0,0.0,0.0,0.0,0.0,0.0,0.0,0.0,0.0,0.0,0.0,0.0,0.0,0.0,0.0,0.0,0.9224,0.9631,0.9736,0.9577,0.971,0.9672,0.9485,0.8992,0.835,0.7482,0.0,0.0,0.0,0.0,0.0,0.0,0.0,0.0,0.0,0.0,0.0,0.0,0.0,0.0,0.0,0.0,0.0,0.0,0.0,0.0,0.0,0.0,0.0,0.0,0.0,0.0,0.0,0.0,0.0,0.0,0.0,0.0,0.0,0.0,0.0,0.0,0.0,0.0,0.0,0.5461,0.534,0.0,0.0,0.0,0.0,0.0,0.0,0.0,0.0,0.3473,0.0,0.0,0.0,0.0,0.0,0.0,0.0,0.0,0.0,0.0,0.0,0.0,0.0,0.0,0.0,0.0,0.0,0.0,0.0,0.0,0.0,0.0,0.0,0.0,0.0,0.0,0.0,0.0,0.0,0.0,0.0,0.0,0.0,0.0,0.0,0.0,0.0,0.0,0.0,0.0,0.0,0.0,0.0,0.0,0.0,0.0,0.0,0.0,0.0,0.0,0.0,0.0,0.0,0.0,0.0,0.9698,1.0185,1.0207,0.9773,0.9854,0.9802,0.9617,0.9128,0.8609,0.0,0.0,0.0,0.0,0.0,0.0,0.0,0.0,0.0,0.0,0.0,0.0,0.0,0.0,0.0,0.0,0.0,0.0,0.0,0.0,0.0,0.0,0.0,0.0,0.0,0.0,0.0,0.0,0.0,0.0,0.0,0.0,0.0,0.0,0.0,0.0,0.0,0.0,0.0,0.0,0.5348,0.5113,0.4979,0.0,0.0,0.0,0.0,0.0,0.0,0.268,0.2359,0.0,0.0,0.0,0.0,0.0,0.0,0.0,0.0,0.0,0.0,0.0,0.0,0.0,0.0,0.0,0.0,0.0,0.0,0.0,0.0,0.0,0.0,0.0,0.0,0.0,0.0,0.0,0.0,0.0,0.0,0.0,0.0,0.0,0.0,0.0,0.0,0.0,0.0,0.0,0.0,0.0,0.0,0.0,0.0,0.0,0.0,0.0,0.0,0.0,0.0,0.0,0.0,0.0,0.0,0.0,1.0102,1.0615,1.0582,0.9943,0.997,0.9905,0.971,0.9235,0.8831,0.0,0.0,0.0,0.0,0.0,0.0,0.0,0.0,0.0,0.0,0.0,0.0,0.0,0.0,0.0,0.0,0.0,0.0,0.0,0.0,0.0,0.0,0.0,0.0,0.0,0.0,0.0,0.0,0.0,0.0,0.0,0.0,0.0,0.0,0.0,0.0,0.0,0.0,0.0,0.0,0.0,0.501,0.4915,0.478,0.0,0.0,0.0,0.0,0.2253,0.1687,0.0,0.0,0.0,0.0,0.0,0.0,0.0,0.0,0.0,0.0,0.0,0.0,0.0,0.0,0.0,0.0,0.0,0.0,0.0,0.0,0.0,0.0,0.0,0.0,0.0,0.0,0.0,0.0,0.0,0.0,0.0,0.0,0.0,0.0,0.0,0.0,0.0,0.0,0.0,0.0,0.0,0.0,0.0,0.0,0.0,0.0,0.0,0.0,0.0,0.0,0.0,0.0,0.0,0.0,0.0,0.0,1.0359,1.0475,1.0396,1.0008,1.0008,0.9893,0.971,0.9328,0.8978,0.0,0.0,0.0,0.0,0.0,0.0,0.0,0.0,0.0,0.0,0.0,0.0,0.0,0.0,0.0,0.0,0.0,0.0,0.0,0.0,0.0,0.0,0.0,0.0,0.0,0.0,0.0,0.0,0.0,0.0,0.0,0.0,0.0,0.0,0.0,0.0,0.0,0.0,0.0,0.0,0.0,0.5209,0.4634,0.4778,0.4542,0.0,0.0,0.2685,0.1658,0.096,0.0,0.0,0.0,0.0,0.0,0.0,0.0,0.0,0.0,0.0,0.0,0.0,0.0,0.0,0.0,0.0,0.0,0.0,0.0,0.0,0.0,0.0,0.0,0.0,0.0,0.0,0.0,0.0,0.0,0.0,0.0,0.0,0.0,0.0,0.0,0.0,0.0,0.0,0.0,0.0,0.0,0.0,0.0,0.0,0.0,0.0,0.0,0.0,0.0,0.0,0.0,0.0,0.0,0.0,0.0,1.1063,1.1237,1.1204,1.1076,1.086,1.0456,1.0161,0.9995,0.954,0.93,0.0,0.0,0.0,0.0,0.0,0.0,0.0,0.0,0.0,0.0,0.0,0.0,0.0,0.0,0.0,0.0,0.0,0.0,0.0,0.0,0.0,0.0,0.0,0.0,0.0,0.0,0.0,0.0,0.0,0.0,0.0,0.0,0.0,0.0,0.0,0.0,0.0,0.0,0.0,0.0,0.0,0.0,0.5116,0.5145,0.0,0.0,0.0,0.2835,0.1698,0.0,0.0,0.0,0.0,0.0,0.0,0.0,0.0,0.0,0.0,0.0,0.0,0.0,0.0,0.0,0.0,0.0,0.0,0.0,0.0,0.0,0.0,0.0,0.0,0.0,0.0,0.0,0.0,0.0,0.0,0.0,0.0,0.0,0.0,0.0,0.0,0.0,0.0,0.0,0.0,0.0,0.0,0.0,0.0,0.0,0.0,0.0,0.0,0.0,0.0,0.0,0.0,0.0,0.0,0.0,0.0,0.0,1.1988,1.187,1.1734,1.1561,1.0867,1.0411,1.0273,0.979,0.0,0.0,0.0,0.0,0.0,0.0,0.0,0.0,0.0,0.0,0.0,0.0,0.0,0.0,0.0,0.0,0.0,0.0,0.0,0.0,0.0,0.0,0.0,0.0,0.0,0.0,0.0,0.7147,0.0,0.0,0.0,0.0,0.0,0.0,0.0,0.0,0.0,0.0,0.0,0.0,0.0,0.0,0.576,0.5786,0.5687,0.5332,0.0,0.0,0.3202,0.2004,0.0981,0.0089,0.0,0.0,0.0,0.0,0.0,0.0,0.0,0.0,0.0,0.0,0.0,0.0,0.0,0.0,0.0,0.0,0.0,0.0,0.0,0.0,0.0,0.0,0.0,0.0,0.0,0.0,0.0,0.0,0.0,0.0,0.0,0.0,0.0,0.0,0.0,0.0,0.0,0.0,0.0,0.0,0.0,0.0,0.0,0.0,0.0,0.0,0.0,0.0,0.0,0.0,0.0,0.0,0.0,0.0,1.2394,1.2209,1.2114,1.196,1.1692,1.1042,1.0608,1.046,1.0085,1.0067,0.0,0.0,0.0,0.0,0.0,0.0,0.0,0.0,0.0,0.0,0.0,0.0,0.0,0.0,0.0,0.0,0.0,0.0,0.0,0.0,0.0,0.0,0.0,0.0,0.0,0.0,0.0,0.0,0.0,0.0,0.0,0.0,0.0,0.0,0.0,0.0,0.0,0.0,0.0,0.0,0.0,0.6464,0.6538,0.6459,0.6109,0.0,0.4604,0.3811,0.2622,0.1424,0.0401,-0.0402,0.0,0.0,0.0,0.0,0.0,0.0,0.0,0.0,0.0,0.0,0.0,0.0,0.0,0.0,0.0,0.0,0.0,0.0,0.0,0.0,0.0,0.0,0.0,0.0,0.0,0.0,0.0,0.0,0.0,0.0,0.0,0.0,0.0,0.0,0.0,0.0,0.0,0.0,0.0,0.0,0.0,0.0,0.0,0.0,0.0,0.0,0.0,0.0,0.0,0.0,0.0,0.0,0.0,1.2937,1.3134,1.308,1.2911,1.2655,1.201,1.1381,1.0873,1.0485,1.0569,0.0,0.0,0.0,0.0,0.0,0.0,0.0,0.0,0.0,0.0,0.0,0.0,0.0,0.0,0.0,0.0,0.0,0.0,0.0,0.0,0.0,0.0,0.0,0.0,0.0,0.0,0.0,0.0,0.8829,0.8958,0.8692,0.0,0.0,0.0,0.0,0.0,0.0,0.0,0.0,0.0,0.0,0.7622,0.7517,0.7506,0.0,0.0,0.5327,0.4517,0.3416,0.2178,0.107,0.0089,-0.0915,0.0,0.0,0.0,0.0,0.0,0.0,0.0,0.0,0.0,0.0,0.0,0.0,0.0,0.0,0.0,0.0,0.0,0.0,0.0,0.0,0.0,0.0,0.0,0.0,0.0,0.0,0.0,0.0,0.0,0.0,0.0,0.0,0.0,0.0,0.0,0.0,0.0,0.0,0.0,0.0,0.0,0.0,0.0,0.0,0.0,0.0,0.0,0.0,0.0,0.0,0.0,0.0,1.3483,1.3945,1.3775,1.3558,1.3291,1.2643,1.1947,1.1244,1.0897,1.1042,0.0,0.0,0.0,0.0,0.0,0.0,0.0,0.0,0.0,0.0,0.0,0.0,0.0,0.0,0.0,0.0,0.0,0.0,0.0,0.0,0.0,0.0,0.0,0.0,0.0,0.0,0.0,0.0,0.9128,0.905,0.8567,0.0,0.0,0.0,0.0,0.0,0.0,0.0,0.0,0.0,0.0,0.8848,0.8777,0.8603,0.8083,0.6994,0.6169,0.5321,0.4187,0.2955,0.176,0.0649,0.0,0.0,0.0,0.0,0.0,0.0,0.0,0.0,0.0,0.0,0.0,0.0,0.0,0.0,0.0,0.0,0.0,0.0,0.0,0.0,0.0,0.0,0.0,0.0,0.0,0.0,0.0,1.0878,0.0,0.0,1.0572,0.0,0.0,0.0,0.0,0.0,0.0,0.0,0.0,0.0,0.0,0.0,0.0,0.0,0.0,0.0,0.0,0.0,0.0,0.0,0.0,0.0,0.0,1.4019,1.4449,1.4042,1.3643,1.333,1.2779,1.2176,1.1533,1.1307,1.1587,1.2428,0.0,0.0,0.0,0.0,0.0,0.0,0.0,0.0,0.0,0.0,0.0,0.0,0.0,0.0,0.0,0.0,0.0,0.0,0.0,0.0,0.0,0.0,0.0,0.0,0.0,0.0,0.9154,0.9226,0.903,0.0,0.0,0.0,0.0,0.0,0.0,0.0,0.0,0.0,0.8826,0.9477,0.9987,1.0277,0.9737,0.899,0.8184,0.7193,0.6143,0.4927,0.3745,0.2455,0.0,0.0,0.0,0.0,0.0,0.0,0.0,0.0,0.0,0.0,0.0,0.0,0.0,0.0,0.0,0.0,0.0,0.0,0.0,0.0,0.0,0.0,0.0,0.0,0.0,0.0,0.0,1.1169,1.1292,0.0,0.0,0.0,0.0,0.0,0.0,0.0,0.0,0.0,0.0,0.0,1.2054,1.2066,0.0,0.0,0.0,0.0,0.0,0.0,0.0,0.0,0.0,0.0,0.0,0.0,1.4374,1.486,1.4784,1.4559,1.4239,1.3616,1.2991,1.2302,1.1753,1.1797,1.2498,0.0,0.0,0.0,0.0,0.0,0.0,0.0,0.0,0.0,0.0,0.0,0.0,0.0,0.0,0.0,0.0,0.0,0.0,0.0,0.0,0.0,0.0,0.0,0.0,0.0,0.9264,0.0,0.0,0.0,0.0,0.0,0.0,0.0,0.0,0.0,0.0,0.0,0.8947,0.9923,1.0722,1.1172,1.1015,1.0535,0.9763,0.0,0.0,0.0,0.0,0.0,0.0,0.0,0.0,0.0,0.0,0.0,0.0,0.0,0.0,-0.1284,-0.1956,-0.1956,-0.179,-0.1679,0.0,0.0,0.0,0.0,0.0,0.0,0.0,0.0,0.0,0.0,0.0,0.0,0.0,0.0,1.224,1.2366,1.2316,0.0,0.0,0.0,0.0,0.0,0.0,0.0,0.0,1.2632,1.282,1.2943,1.2894,1.271,1.24,1.2174,1.188,0.0,0.0,0.0,0.0,0.0,0.0,0.0,0.0,1.4865,1.537,1.5477,1.5139,1.4376,1.3957,1.3312,1.2417,1.2285,1.2363,1.2692,1.3298,1.3387,0.0,0.0,0.0,0.0,0.0,0.0,0.0,0.0,0.0,0.0,0.0,0.0,0.0,0.0,0.0,0.0,0.0,0.0,0.0,0.0,0.0,0.0,0.0,1.003,0.0,0.0,0.0,0.0,0.0,0.0,0.0,0.0,0.0,0.7871,0.8862,0.9946,1.0821,1.1651,1.2073,1.1757,0.0,0.0,0.0,0.0,0.0,0.0,0.0,0.4049,0.3064,0.1908,0.092,0.0274,0.0224,0.0399,0.0749,0.0,0.0,-0.0784,-0.095,-0.0838,-0.067,-0.0559,-0.0279,0.0336,0.0839,0.1454,0.0,0.0,0.0,0.0,1.3286,0.0,0.0,0.0,1.3639,1.3801,0.0,1.383,0.0,0.0,0.0,0.0,1.3223,1.32,0.0,0.0,1.399,1.4185,1.4277,1.4122,1.3931,1.3574,1.3215,1.2987,1.2795,1.2422,0.0,0.0,0.0,0.0,0.0,0.0,1.5473,1.5941,1.605,1.5356,1.3931,1.3804,1.3181,1.1939,1.2849,1.333,1.3175,1.3772,1.3822,1.3216,1.2591,0.0,0.0,0.0,0.0,0.0,0.0,0.0,0.0,0.0,0.0,0.0,0.0,0.0,0.0,0.0,0.0,0.0,0.0,0.0,0.0,1.019,0.0,0.0,0.0,0.0,0.0,0.0,0.0,0.0,0.0,0.9325,0.8974,0.9799,1.072,1.1501,0.0,0.0,0.0,0.0,1.1351,1.0356,0.9318,0.8277,0.7289,0.6145,0.5042,0.4207,0.0,0.0,0.1802,0.1992,0.2309,0.2679,0.3045,0.2609,0.0618,0.0224,0.0167,0.0335,0.0502,0.067,0.1229,0.1732,0.2179,1.7543,0.0,0.0,0.0,0.0,1.4046,1.3841,1.3974,1.4066,1.4209,1.4341,1.4341,0.0,0.0,0.0,0.0,0.0,0.0,1.4009,1.4157,1.4368,1.4396,1.4368,1.4277,1.4002,1.3616,1.3354,1.3173,1.3083,1.3324,1.3281,1.2994,0.0,0.0,0.0,0.0,1.6101,1.683,1.6411,1.6089,1.5817,1.4501,1.3391,1.2523,1.3208,1.3706,1.387,1.4268,1.4149,1.3514,1.2953,0.0,0.0,0.0,0.0,0.0,0.0,0.0,0.0,0.0,0.0,0.0,0.0,0.0,0.0,0.0,0.0,0.0,0.0,0.0,1.0562,1.1034,1.1414,0.0,0.0,0.0,0.0,0.0,0.0,0.0,0.0,0.0,1.1208,1.1225,1.1501,0.0,0.0,1.2832,1.2783,1.2274,1.156,1.0779,0.9791,0.0,0.7972,0.7004,0.614,0.542,0.4465,0.3751,0.3611,0.3865,0.4234,0.4575,0.4787,0.4657,0.3877,0.288,0.2286,0.2284,0.2395,0.2563,0.2843,0.3231,0.3624,1.8826,1.809,1.6916,1.6258,1.6039,1.5442,1.5237,1.5249,1.5262,1.5299,1.5352,1.527,1.5217,1.5163,1.4974,0.0,0.0,0.0,1.5052,1.511,1.5245,1.5299,1.5204,1.5081,1.4833,1.4486,1.4317,1.4178,1.4127,1.438,1.4428,1.4205,0.0,1.5006,1.5656,1.612,1.6679,1.733,1.689,1.6547,1.6323,1.4666,1.359,1.3202,1.3697,1.4085,1.4213,1.4502,1.4388,1.3782,1.3344,1.2791,0.0,0.0,0.0,0.0,0.0,0.0,0.0,0.0,0.0,0.0,0.0,0.781,0.8027,0.0,0.0,0.0,0.9663,1.059,1.1623,1.188,0.0,0.0,0.0,0.0,0.0,0.0,0.0,1.1166,1.1657,1.2209,1.2754,1.2657,1.2628,1.2754,1.3067,1.3224,1.2949,0.0,1.209,1.1267,1.0407,0.9585,0.881,0.7972,0.7149,0.6413,0.5732,0.5296,0.5422,0.5646,0.5977,0.6224,0.6375,0.6332,0.6086,0.5262,0.4448,0.3904,0.3843,0.4009,0.4174,0.4395,0.4673,1.9924,1.9641,1.8506,1.7788,1.7394,1.7188,1.6993,1.6879,1.6782,1.6735,1.6718,1.6522,1.6479,1.6552,1.6411,0.0,1.6349,1.6349,1.6449,1.6573,1.6573,1.6573,1.6573,1.6455,1.6235,1.6001,1.5855,1.5766,1.5733,1.5686,1.5706,1.5772,1.5435,1.5534,1.6076,1.6799,1.7303,1.7581,1.7453,1.6875,1.5814,1.4543,1.3819,1.3782,1.4266,1.4439,1.4314,1.4621,1.4574,1.4019,1.3715,1.3207,1.2579,0.0,0.0,0.0,0.0,0.0,0.0,0.0,0.0,0.0,0.0,0.0,0.0,0.0,0.0,0.0,1.1183,0.0,1.2359,1.2733,0.0,0.0,0.0,1.2274,1.2017,1.2089,1.2209,1.2511,0.0,0.0,1.3926,1.4078,1.3994,1.3549,1.372,1.3741,1.3135,1.308,1.2791,1.1944,1.1167,1.0423,0.9718,0.8923,0.8111,0.7253,0.6939,0.689,0.7088,0.7269,0.7555,0.7767,0.7848,0.7685,0.747,0.7165,0.6675,0.5415,0.5117,0.5113,0.5273,0.5328,0.5492,2.226,2.203,2.153,2.0239,1.8408,1.8001,1.772,1.7475,1.731,1.7199,1.7073,1.7018,1.6976,1.6879,1.6976,1.7136,1.734,1.7472,1.769,1.8086,1.819,1.819,1.8066,1.8066,1.7928,1.7697,1.7545,1.7545,1.7626,1.7169,1.7035,1.7175,1.6883,1.6667,1.6625,1.7242,1.7866,1.848,1.8209,1.7349,1.583,1.4977,1.4531,1.4463,1.4599,1.4743,1.4933,1.4956,1.4704,1.4189,1.3848,1.3378,1.2756,1.2174,0.0,0.0,0.0,0.0,0.0,0.0,0.0,0.0,0.0,0.8675,0.9043,0.0,0.981,0.0,1.1577,1.2518,1.316,1.3233,0.0,0.0,1.3168,1.2987,1.288,1.3025,1.3208,1.3579,1.4061,1.4611,1.5283,1.5612,1.5761,1.5822,1.4889,1.4195,1.4194,1.3736,1.316,1.2525,1.1813,1.1015,1.0154,0.94,0.8686,0.8149,0.8189,0.8381,0.8494,0.8668,0.8879,0.9041,0.8919,0.8676,0.8421,0.8178,0.7806,0.729,0.6858,0.6588,0.6647,0.675,0.6912,2.3432,2.3294,2.2992,2.1993,2.0528,1.9792,1.9302,1.8948,1.837,1.8133,1.8259,1.8289,1.8233,1.8147,1.8345,1.8415,1.8364,1.8453,1.8578,1.8681,1.8806,1.8865,1.8878,1.8924,1.8878,1.8799,1.874,1.8727,1.8773,1.8462,1.8338,1.8459,1.8081,1.7874,1.7805,1.7963,1.8344,1.895,1.8643,1.7863,1.6682,1.5994,1.5593,1.5491,1.5224,1.5052,1.5118,1.5043,1.4766,1.4287,1.4013,1.365,1.3239,1.2621,1.2036,0.0,0.0,0.0,0.0,0.0,0.0,0.0,0.0,0.0,0.0,0.0,1.093,1.1682,1.2676,1.3463,1.3969,1.3889,1.3895,1.3978,1.38,1.3695,1.3695,1.3931,1.4201,1.4525,1.5177,1.5742,1.6244,1.6681,1.7027,1.724,1.6351,1.5523,1.506,1.459,1.4057,1.3432,1.2547,1.149,1.0221,0.9496,0.9024,0.8726,0.8755,0.8936,0.9071,0.9144,0.9248,0.9359,0.9242,0.9051,0.8786,0.8626,0.8423,0.8189,0.7937,0.7723,0.7509,0.7563,0.767,2.4497,2.4378,2.4086,2.3751,2.3386,2.2364,2.1486,2.0655,1.9684,1.9402,1.9707,1.9781,1.9781,1.9649,1.9897,1.983,1.9514,1.9514,1.9456,1.9389,1.9529,1.9681,1.9787,1.9844,1.9863,1.9908,1.9782,1.9741,1.9741,1.9674,1.9665,1.9638,1.9287,1.9155,1.935,1.8951,1.8869,1.9176,1.8856,1.8433,1.7832,1.7174,1.6784,1.6614,1.6052,1.5607,1.5287,1.5224,1.5005,1.4615,1.4326,1.4076,1.3914,1.325,1.2742,0.0,1.181,0.0,0.0,0.0,0.0,0.0,0.0,0.0,0.0,1.1689,1.2266,1.3316,1.4076,1.4569,1.4719,1.4616,1.4512,1.4408,1.4362,1.4408,1.4558,1.4823,1.5165,1.5449,1.6202,1.6757,1.7081,1.7531,1.7934,1.8154,1.7826,1.7122,1.6057,1.5519,1.5019,1.4375,1.3221,1.1826,1.0441,0.9702,0.934,0.9185,0.9144,0.9091,0.9369,0.9298,0.9298,0.9298,0.9266,0.9138,0.8888,0.8818,0.8703,0.8472,0.8474,0.8415,0.809,0.7984,0.8031,2.795,2.7768,2.7528,2.7213,2.6886,2.6316,2.421,2.1219,2.0872,2.0653,2.0557,2.0599,2.0514,2.0429,2.0443,2.0759,2.1307,2.1307,2.171,2.2447,2.2702,2.2903,2.2984,2.2464,2.2338,2.2454,2.171,2.1462,2.1634,2.1192,2.1044,2.1251,2.0755,2.0567,2.0703,0.0,0.0,0.0,1.8991,1.8642,1.8508,1.7847,1.7471,1.7391,1.7205,0.0,1.6704,1.6454,1.6076,1.5667,1.5303,0.0,0.0,0.0,0.0,0.0,0.0,0.0,0.0,0.0,0.0,0.0,1.2551,1.2628,1.2267,1.3022,1.3839,1.4484,1.4824,1.5062,1.5334,1.5277,1.5289,1.5232,1.5232,1.5277,1.5367,1.5513,1.5835,1.6447,1.6822,1.7412,1.8264,1.8598,1.8871,1.9125,1.8936,1.8425,1.7645,1.6515,1.5574,1.4949,1.3418,1.1982,1.1141,1.0539,1.0087,0.9962,1.0002,1.0016,1.0015,0.9877,0.9782,0.9711,0.9429,0.92,0.9128,0.8949,0.8778,0.8712,0.8745,0.8692,0.8521,0.8527,0.8639,2.8901,2.8736,2.8531,2.8323,0.0,2.7721,2.6356,2.4368,2.3126,2.2221,2.1693,2.2251,2.241,2.2246,2.2579,2.2743,2.2853,2.2817,2.305,2.3489,2.3695,2.3951,2.4198,2.39,2.3892,2.3975,2.3217,2.2918,2.2983,2.2429,2.2159,2.2278,2.1801,2.158,2.1635,2.0858,2.0198,1.9647,1.9325,1.9196,1.9166,1.8553,1.8175,1.8093,1.7711,0.0,0.0,0.0,0.0,0.0,0.0,0.0,0.0,1.4651,0.0,1.4068,1.3669,1.3294,1.3016,1.3087,1.3112,1.3198,1.3826,1.4061,1.3548,1.4236,1.4858,1.5277,1.5424,1.5525,1.5724,1.5691,1.5647,1.5647,1.5691,1.5768,1.5836,1.6232,1.6634,1.6974,1.7654,1.8321,1.8833,1.9208,1.9395,1.9567,1.9291,1.8869,1.8255,1.7181,1.6095,1.4962,1.3706,1.2414,1.1576,1.0926,1.0461,1.0143,1.0095,1.0137,1.0042,0.9885,0.9728,0.9556,0.9275,0.9079,0.9018,0.8898,0.8804,0.8804,0.8804,0.8752,0.8692,0.8752,0.8804,2.9437,2.931,2.9143,2.9013,2.8953,2.857,2.8225,2.7729,2.5545,0.0,0.0,2.4194,2.444,2.425,2.4747,2.4696,2.4258,2.4258,2.4264,2.4221,2.439,2.4631,2.4969,2.4968,2.5009,2.5126,2.4465,2.4159,2.413,2.3577,2.3301,2.317,2.2849,2.2539,2.2287,2.1416,2.0594,1.9951,1.9786,1.9705,1.9675,1.9151,1.8847,1.8798,1.8184,1.7719,1.7499,1.722,1.6922,1.6523,1.6166,1.5958,1.597,1.5458,1.5183,1.5242,1.4777,1.4444,1.4294,1.4071,1.4025,1.4247,1.4869,1.5142,1.4846,1.5164,1.5546,1.5881,1.5925,1.5969,1.6088,1.6001,1.5925,1.5925,1.6044,1.6076,1.6113,1.6646,1.7102,1.7414,1.8244,1.892,1.9108,1.9522,1.9747,1.9604,1.9408,1.8975,1.8278,1.7379,1.629,1.5017,1.4023,1.3032,1.2077,1.1351,1.0785,1.0462,1.03,1.0174,1.0028,0.9821,0.9562,0.9365,0.9166,0.8969,0.8811,0.8811,0.8804,0.8804,0.8804,0.8804,0.8811,0.8857,0.8804,3.1438,3.1362,3.1216,3.1121,3.1045,3.0735,2.9969,2.8936,2.7121,2.614,2.583,2.5788,2.5604,2.5386,2.5334,2.5482,2.5697,2.5697,2.5901,2.6303,2.6451,2.6659,2.677,2.6226,2.6076,2.6149,2.5446,2.515,2.5153,2.5079,2.48,2.4387,2.4403,2.3919,2.2949,2.2621,2.1888,2.0768,2.0062,1.9705,1.969,1.9636,1.954,1.9555,1.9286,1.9075,1.8987,1.8489,1.8121,1.7781,1.7437,1.7072,1.6747,1.6553,1.6305,1.6044,1.5756,1.5511,1.541,1.5242,1.5209,1.5355,1.5591,1.5614,1.5424,1.568,1.6001,1.6275,1.6306,1.6362,1.6392,1.6392,1.6405,1.6392,1.6423,1.6423,1.6436,1.6535,1.7005,1.7843,1.8144,1.8706,1.9409,1.9685,1.9761,1.9734,1.9362,1.8951,1.7904,1.7011,1.6218,1.5541,1.4492,1.3641,1.2932,1.2268,1.1681,1.151,1.1217,1.1065,1.0905,1.0387,0.9925,0.9614,0.9263,0.9008,0.8857,0.8804,0.8857,0.8857,0.8857,0.891,0.9015,0.9015,0.8956,3.202,3.1946,3.2288,3.2366,3.2235,3.1845,3.1314,3.0559,2.9241,2.803,2.7067,2.7063,2.6826,2.6532,2.6738,2.6777,2.6804,2.7144,2.7432,2.7659,2.8012,2.8089,2.7943,2.7558,2.7282,2.7046,2.6355,2.5994,2.6012,2.5685,2.5403,2.5151,2.5002,2.468,2.4216,2.3401,2.2747,2.2154,2.0881,2.0064,1.9705,1.9705,1.9705,1.969,1.956,1.945,1.9339,1.8979,1.8634,1.8344,1.7948,1.7639,1.7393,1.7102,1.6905,1.6735,1.6454,1.6269,1.6213,1.6139,1.6095,1.6076,1.6262,1.6306,1.6032,1.6175,1.6306,1.6436,1.6479,1.6479,1.6479,1.6534,1.6534,1.6534,1.6534,1.6534,1.6559,1.6823,1.72,1.7689,1.8028,1.8392,1.8869,1.9196,1.9384,1.9321,1.8966,1.8239,1.7201,1.6299,1.5711,1.5289,1.4301,1.3499,1.3131,1.2573,1.2113,1.1927,1.1819,1.1678,1.1477,1.0956,1.0446,0.9984,0.9569,0.9309,0.9159,0.9106,0.9159,0.9211,0.9211,0.9263,0.9309,0.9309,0.9211,3.2862,3.2845,3.3369,3.3447,3.3222,3.2872,3.2568,3.2228,3.1374,3.0219,2.8942,2.8443,2.8028,2.7752,2.8023,2.805,2.7976,2.8389,2.8704,2.8846,2.9203,2.9265,2.8922,2.8839,2.8569,2.8162,2.7635,2.7334,2.7139,2.6624,2.6219,2.5982,2.5591,2.5372,2.5361,2.4343,2.3681,2.3286,2.2002,2.0873,2.0032,1.9801,1.9705,1.969,1.9632,1.9538,1.945,1.9205,1.8979,1.8707,1.8383,1.8121,1.7962,1.7666,1.7475,1.7406,1.7186,1.7018,1.6964,1.6964,1.6879,1.6735,1.6863,1.6876,1.665,1.6565,1.6479,1.6522,1.6479,1.6479,1.6534,1.6534,1.6534,1.6534,1.6534,1.6534,1.6572,1.6923,1.725,1.7375,1.7765,1.8041,1.8254,1.8581,1.8819,1.8684,1.8213,1.752,1.6642,1.5829,1.5206,1.4783,1.4031,1.341,1.3067,1.2704,1.241,1.2274,1.2274,1.2116,1.1877,1.1477,1.1023,1.0454,0.9991,0.9725,0.9569,0.9517,0.9562,0.9666,0.9666,0.971,0.9769,0.988,0.9725,3.5088,3.5154,3.5023,3.4765,3.4344,3.4137,3.3904,3.3665,3.3253,3.3035,3.2395,3.0263,2.9118,2.8903,2.8669,2.8865,2.9373,2.935,2.9567,3.0014,3.0105,3.0038,2.9924,2.9992,3.0014,2.9892,2.9785,2.9388,2.89,2.8723,2.8195,2.7256,2.6701,2.6271,2.5947,2.5717,2.5001,2.3786,2.3282,2.2332,2.0865,2.0092,1.9705,1.969,1.9647,1.9574,1.9574,1.9376,1.9213,1.9049,1.8898,1.8693,1.8461,1.8383,1.8279,1.8109,1.8083,1.7989,1.7747,1.7707,1.7598,1.7352,1.7227,1.7115,1.696,1.6876,1.6735,1.6607,1.6534,1.6534,1.6534,1.6522,1.6534,1.6534,1.6534,1.6534,1.6534,1.6572,1.6798,1.7338,1.7438,1.7652,1.8066,1.8267,1.8244,1.8124,1.7775,1.7277,1.666,1.5713,1.4875,1.4438,1.3922,1.3608,1.3367,1.3095,1.2812,1.2783,1.2725,1.2529,1.2234,1.1828,1.1326,1.0913,1.0462,1.0138,1.0079,0.9961,1.002,1.0123,1.0123,1.0079,1.0293,1.0557,1.0446,3.5652,3.5706,3.5957,3.6079,3.5975,3.5381,3.4996,3.472,3.3997,3.3622,3.3339,3.2077,3.1344,3.0919,3.0686,3.0609,3.0683,3.1027,3.1236,3.1358,3.1595,3.1511,3.1155,3.1072,3.0886,3.0618,3.0603,3.0412,3.0001,2.9531,2.8889,2.817,2.7701,2.751,2.746,2.6693,2.5975,2.5493,2.427,2.3311,2.2523,2.114,2.0192,1.9792,1.969,1.9669,1.9669,1.9523,1.9465,1.9376,1.9213,1.9101,1.8988,1.8836,1.8707,1.8606,1.8553,1.8528,1.8397,1.8305,1.8187,1.7962,1.7747,1.7544,1.731,1.7225,1.7086,1.6947,1.6735,1.662,1.662,1.6577,1.6534,1.6534,1.6534,1.6522,1.6534,1.6534,1.6635,1.6861,1.7174,1.7463,1.7714,1.8016,1.7981,1.7663,1.7319,1.6965,1.6221,1.5392,1.4774,1.4275,1.3851,1.3411,1.3224,1.3018,1.29,1.2881,1.2881,1.2735,1.2539,1.2184,1.1728,1.1427,1.1015,1.0761,1.0804,1.0804,1.0795,1.0897,1.0998,1.1057,1.1167,1.1267,1.1158,3.6562,3.6653,3.7,3.7236,3.7323,3.6642,3.6186,3.5846,3.507,3.4565,3.4377,3.4041,3.3606,3.309,3.2498,3.2075,3.2048,3.2431,3.2666,3.2566,3.2935,3.2819,3.2343,3.2348,3.2132,3.1839,3.1792,3.158,3.1162,3.0404,2.9859,2.9533,2.9116,2.8954,2.8935,2.7867,2.7111,2.6765,2.5395,2.4495,2.3877,2.2488,2.1245,2.0288,1.9924,1.9797,1.9797,1.9756,1.972,1.972,1.9723,1.9753,1.9693,1.966,1.9648,1.9571,1.9532,1.9493,1.9454,1.918,1.8924,1.8728,1.8351,1.7988,1.776,1.7611,1.7543,1.7461,1.7212,1.7002,1.6833,1.6735,1.6693,1.668,1.6637,1.665,1.665,1.6696,1.6816,1.6829,1.7325,1.7526,1.7476,1.7689,1.7706,1.716,1.6901,1.6622,1.5876,1.5334,1.4834,1.4316,1.381,1.3344,1.3017,1.2939,1.2929,1.2891,1.2881,1.2832,1.2735,1.2372,1.2175,1.1828,1.1519,1.1418,1.1418,1.1519,1.1528,1.1719,1.1819,1.1828,1.1769,1.1877,1.1877,3.8449,3.8499,3.8392,3.8198,3.8034,3.7703,3.747,3.7177,3.6777,3.6516,3.6236,3.59,3.5664,3.52,3.3511,3.2883,3.3237,3.3257,3.3339,3.355,3.3764,3.3678,3.3455,3.3815,3.3953,3.3775,3.3743,3.3319,3.2526,3.1854,3.1582,3.1596,3.1011,3.0603,3.0267,2.9502,2.852,2.7458,2.6858,2.5954,2.47,2.406,2.2907,2.1378,2.0498,2.0152,2.0066,2.0021,2.0,2.0036,2.0591,2.085,2.0707,2.1201,2.1352,2.1237,2.1211,2.1171,2.0947,2.04,1.9937,1.9681,1.8934,1.8333,1.8349,1.8135,1.8069,1.819,1.7977,1.7706,1.7442,1.7329,1.7235,1.7222,1.707,1.7041,1.6999,1.725,1.7429,1.751,1.7895,1.8025,1.7571,1.74,1.7325,1.6879,1.6585,1.6411,1.6195,1.5686,1.5188,1.4614,1.4041,1.3488,1.3172,1.2978,1.2939,1.2891,1.2881,1.2871,1.2725,1.2569,1.2431,1.2283,1.2076,1.1977,1.2017,1.2067,1.2076,1.2126,1.2224,1.2274,1.2274,1.2382,1.2382,3.8609,3.8559,3.8478,3.8368,3.8223,3.8104,3.7933,3.7685,3.7411,3.7069,3.6673,3.636,3.6019,3.5677,3.4886,3.4464,3.4369,3.4294,3.4186,3.4134,3.4201,3.425,3.4201,3.4399,3.4562,3.4611,3.4578,3.4168,3.3337,3.2899,3.2588,3.2351,3.2163,3.1847,3.1366,3.0675,2.9872,2.9013,2.8265,2.7367,2.6323,2.5651,2.4664,2.3331,2.2217,2.162,2.1584,2.1584,2.162,2.1584,2.1846,2.1879,2.1728,2.1749,2.1744,2.1665,2.16,2.156,2.1505,2.1178,2.0965,2.0746,1.998,1.9409,1.9273,1.8885,1.8708,1.9072,1.9145,1.9151,1.9253,1.8613,1.7991,1.7948,1.7906,1.7833,1.77,1.7738,1.7868,1.8175,1.8605,1.875,1.8538,1.8465,1.8204,1.7727,1.7555,1.7414,1.723,1.6892,1.628,1.5518,1.4858,1.4222,1.3334,1.3075,1.2891,1.2891,1.2881,1.2881,1.2783,1.2725,1.2578,1.2529,1.2431,1.2382,1.2372,1.2471,1.248,1.2529,1.2637,1.2578,1.2676,1.2686,1.2686,3.864,3.8559,3.8559,3.8515,3.8437,3.8387,3.8238,3.8054,3.781,3.7449,3.6992,3.6615,3.6259,3.5966,3.5728,3.5481,3.5124,3.5085,3.4899,3.4594,3.4691,3.4739,3.4691,3.4899,3.4994,3.5088,3.5105,3.4758,3.4233,3.4057,3.3809,3.3504,3.3328,3.3034,3.2638,3.1808,3.0975,3.0258,2.9386,2.8569,2.7794,2.7221,2.6429,2.5451,2.4494,2.3518,2.2802,2.2755,2.2718,2.2734,2.2907,2.3067,2.308,2.2799,2.2576,2.2511,2.2445,2.2364,2.2278,2.1992,2.1791,2.1721,2.0999,2.0444,2.036,1.9879,1.9893,2.0208,2.0284,2.0544,2.0852,2.0231,1.9427,1.9191,1.9051,1.8936,1.8759,1.8773,1.8963,1.9253,1.9474,1.953,1.9304,1.9168,1.8767,1.8279,1.8204,1.8144,1.7989,1.7665,1.7183,1.6358,1.5527,1.4747,1.3948,1.3448,1.3066,1.2998,1.2939,1.2891,1.2891,1.2832,1.2774,1.2725,1.2725,1.2725,1.2725,1.2832,1.2881,1.2891,1.2842,1.2783,1.2832,1.2881,1.2832,3.8726,3.8707,3.8707,3.8658,3.8645,3.8559,3.8446,3.8318,3.8086,3.7756,3.7356,3.6974,3.6544,3.6208,3.5939,3.5677,3.5481,3.5458,3.5337,3.5058,3.5198,3.5198,3.5088,3.5337,3.5429,3.5429,3.5492,3.5429,3.5191,3.5157,3.514,3.5057,3.4454,3.4158,3.4229,3.2782,3.1796,3.1151,3.033,2.9551,2.8874,2.854,2.8065,2.7391,2.7024,2.5828,2.3513,2.3349,2.3398,2.343,2.3875,2.4398,2.4548,2.4321,2.4127,2.3899,2.3806,2.3679,2.346,2.2882,2.2542,2.2411,2.1713,2.1304,2.1329,2.1145,2.1116,2.1315,2.1333,2.1501,2.2015,2.1945,2.1441,2.077,2.0373,2.023,2.0138,2.0329,2.055,2.0594,2.0455,2.0101,1.9579,1.9342,1.9079,1.8568,1.8405,1.8382,1.8311,1.8117,1.7557,1.69,1.6284,1.5565,1.4686,1.3903,1.3409,1.3056,1.2939,1.2891,1.2891,1.2832,1.2832,1.2832,1.2832,1.2832,1.2832,1.2881,1.2881,1.2891,1.2891,1.2939,1.2891,1.2891,1.2891,3.9203,3.8726,3.8707,3.8707,3.8707,3.8658,3.8578,3.8465,3.8271,3.7967,3.7595,3.7185,3.6806,3.6404,3.6157,3.5922,3.5707,3.5735,3.5549,3.5291,3.5383,3.5446,3.5383,3.5503,3.5611,3.5532,3.5549,3.5549,3.5503,3.5503,3.5503,3.5436,3.5268,3.4908,3.4445,3.3482,3.2655,3.1952,3.1224,3.0441,2.9783,2.9623,2.9215,2.8448,2.8293,2.7581,2.6286,2.5527,2.5173,2.5072,2.5317,2.5362,2.5176,2.4855,2.4549,2.4359,2.4135,2.3909,2.3767,2.3531,2.3323,2.3148,2.2629,2.2274,2.2211,2.1843,2.1828,2.2181,2.2245,2.2497,2.2975,2.3139,2.2613,2.1542,2.1326,2.1182,2.1032,2.113,2.1213,2.1148,2.0908,2.0518,2.0165,1.9888,1.9585,1.9334,1.9233,1.9233,1.9196,1.892,1.8645,1.7963,1.7249,1.6468,1.5653,1.4829,1.4278,1.3648,1.3332,1.2988,1.2978,1.2939,1.2939,1.2891,1.2891,1.2891,1.2891,1.2891,1.2891,1.2929,1.2929,1.2929,1.2939,1.2939,1.2929,3.9441,3.8726,3.8707,3.8707,3.8707,3.8707,3.8658,3.8559,3.8433,3.8171,3.7845,3.7504,3.7147,3.6748,3.6544,3.6233,3.5993,3.5949,3.5817,3.5594,3.552,3.552,3.5566,3.5577,3.5639,3.5639,3.5639,3.5639,3.5639,3.5639,3.5639,3.5622,3.5639,3.5402,3.4827,3.3914,3.3136,3.2628,3.1698,3.097,3.0598,3.0514,3.0104,2.9404,2.9269,2.8898,2.8135,2.747,2.6825,2.6322,2.6154,2.5974,2.5642,2.5323,2.5013,2.4751,2.4508,2.4245,2.4051,2.3952,2.3824,2.3649,2.332,2.3068,2.2993,2.2577,2.2667,2.2936,2.3026,2.3191,2.3505,2.3595,2.3228,2.2556,2.2411,2.2235,2.1981,2.1885,2.1813,2.1602,2.1264,2.0858,2.051,2.022,2.0016,1.985,1.9798,1.9798,1.9798,1.967,1.9189,1.8688,1.8052,1.7333,1.6604,1.5862,1.516,1.4443,1.3768,1.335,1.3055,1.3017,1.2978,1.2939,1.2891,1.2891,1.2891,1.2891,1.2891,1.2929,1.2978,1.3017,1.3017,1.2978,1.2978,3.9502,3.8799,3.8707,3.8707,3.8707,3.8707,3.8707,3.8676,3.8559,3.8332,3.8101,3.7862,3.756,3.7155,3.6939,3.6684,3.637,3.6266,3.6165,3.5975,3.58,3.5711,3.5622,3.5622,3.5622,3.5639,3.5639,3.5639,3.5639,3.5639,3.5639,3.5639,3.5622,3.5622,3.5284,3.4167,3.3474,3.3136,3.1985,3.1292,3.114,3.114,3.0869,3.0154,3.0104,2.9803,2.9107,2.8786,2.8106,2.6872,2.6683,2.6524,2.6162,2.5914,2.5681,2.5217,2.495,2.4655,2.4385,2.4219,2.4036,2.3809,2.3736,2.3739,2.3475,2.34,2.337,2.349,2.3595,2.364,2.364,2.3714,2.3598,2.3494,2.326,2.3128,2.2905,2.2572,2.2263,2.1935,2.1506,2.1019,2.061,2.0321,2.0067,1.9901,1.9798,1.9798,1.9798,1.9708,1.9565,1.916,1.8645,1.8175,1.7485,1.6809,1.6165,1.5622,1.4832,1.4146,1.3466,1.326,1.3075,1.2978,1.2978,1.2978,1.2929,1.2978,1.3027,1.3113,1.3162,1.3152,1.32,1.32,1.3162,4.0327,3.9533,3.8946,3.8707,3.8707,3.8707,3.8707,3.8707,3.8559,3.8446,3.8267,3.8083,3.7843,3.7542,3.7396,3.7117,3.6812,3.6724,3.6574,3.6402,3.6318,3.6062,3.5756,3.5622,3.5622,3.5622,3.5622,3.5639,3.5639,3.5639,3.5639,3.5639,3.5639,3.5639,3.5453,3.4658,3.3931,3.3372,3.251,3.1681,3.1241,3.119,3.1123,3.097,3.0869,3.0531,2.9837,2.9279,2.8856,2.8412,2.8202,2.7844,2.7214,2.6932,2.6463,2.5735,2.5454,2.5153,2.4775,2.4533,2.4343,2.3967,2.3882,2.3739,2.3595,2.3595,2.3595,2.3684,2.3999,2.4148,2.3819,2.4044,2.4059,2.3656,2.3451,2.3275,2.3112,2.2814,2.248,2.2044,2.1554,2.1019,2.0573,2.022,2.0029,1.9862,1.9798,1.9798,1.9798,1.9759,1.9668,1.9565,1.9209,1.8883,1.8412,1.7763,1.7186,1.6814,1.6125,1.5317,1.4454,1.3731,1.3397,1.3123,1.3152,1.3152,1.3162,1.3162,1.3258,1.3392,1.344,1.3525,1.3525,1.3525,1.3478,4.0639,3.9827,3.9038,3.8707,3.8707,3.8707,3.8707,3.8689,3.8609,3.8523,3.841,3.835,3.815,3.7962,3.7807,3.756,3.7268,3.719,3.7034,3.6816,3.6713,3.6402,3.6019,3.5817,3.5667,3.5667,3.5622,3.5622,3.5639,3.5639,3.5639,3.5639,3.5639,3.5639,3.5526,3.4878,3.4134,3.3406,3.2679,3.1918,3.1258,3.119,3.119,3.119,3.119,3.0937,3.0531,3.0142,2.9668,2.9144,2.8904,2.8645,2.8132,2.7707,2.7122,2.6418,2.6081,2.5642,2.5269,2.5013,2.4751,2.4343,2.4135,2.3967,2.3739,2.3696,2.3726,2.4073,2.4388,2.4477,2.4522,2.4597,2.4283,2.3744,2.348,2.3407,2.329,2.3038,2.2678,2.2217,2.1698,2.1118,2.056,2.0271,2.0016,1.9862,1.9798,1.9798,1.9798,1.9811,1.9811,1.9656,1.9565,1.9254,1.902,1.851,1.8128,1.7722,1.6949,1.6241,1.5257,1.4318,1.3841,1.3488,1.342,1.342,1.343,1.3536,1.3678,1.3773,1.3858,1.3941,1.4025,1.3988,1.3941,4.0675,3.9955,3.9074,3.8707,3.8707,3.8707,3.8707,3.8707,3.8707,3.8621,3.8535,3.851,3.8415,3.8318,3.8162,3.7995,3.7739,3.7632,3.7469,3.7283,3.7073,3.6759,3.6426,3.6019,3.5905,3.5861,3.5711,3.5667,3.5667,3.5667,3.5622,3.5622,3.5622,3.5639,3.5537,3.4979,3.4218,3.344,3.2848,3.2053,3.1376,3.119,3.119,3.119,3.119,3.1173,3.1106,3.1004,3.0548,2.9279,2.9228,2.9208,2.8928,2.8272,2.7847,2.7448,2.6856,2.628,2.5889,2.5627,2.5224,2.4751,2.4564,2.4379,2.4104,2.4066,2.4249,2.4717,2.4792,2.5136,2.5241,2.5001,2.4313,2.3731,2.3566,2.3523,2.3436,2.3231,2.2904,2.2417,2.1888,2.1313,2.0772,2.0372,2.0067,1.9862,1.9798,1.9798,1.9798,1.9798,1.9811,1.9747,1.9656,1.9577,1.9408,1.9254,1.8939,1.8602,1.7671,1.6832,1.5839,1.4993,1.4363,1.3988,1.3931,1.3884,1.3858,1.3962,1.415,1.4337,1.4466,1.4582,1.4709,1.464,1.4547,4.0972,4.0726,3.9294,3.8707,3.8707,3.8707,3.8707,3.8707,3.8707,3.8689,3.867,3.864,3.8559,3.8446,3.8405,3.8328,3.8171,3.8104,3.8018,3.7792,3.7505,3.7321,3.6995,3.6533,3.6191,3.6122,3.5993,3.5932,3.5888,3.58,3.5756,3.5756,3.5667,3.5639,3.5571,3.5318,3.4692,3.3626,3.3186,3.2391,3.1393,3.119,3.119,3.119,3.119,3.119,3.119,3.119,3.1038,3.0801,3.0615,3.0328,2.9884,2.9597,2.9134,2.8488,2.783,2.7181,2.6788,2.6237,2.56,2.5234,2.5075,2.4807,2.4971,2.4844,2.5031,2.55,2.5933,2.5914,2.5659,2.5046,2.4388,2.3821,2.3568,2.3451,2.3216,2.3127,2.2844,2.231,2.1807,2.118,2.0573,2.0233,2.0016,1.985,1.9798,1.9798,1.9798,1.9798,1.9798,1.9798,1.9759,1.9656,1.9567,1.9401,1.9113,1.8816,1.8056,1.7399,1.6385,1.5626,1.5005,1.4628,1.4444,1.4408,1.4419,1.4605,1.4823,1.4971,1.5108,1.5187,1.522,1.5244,1.5153,4.0877,4.0414,3.9203,3.8707,3.8707,3.8707,3.8707,3.8707,3.8707,3.8707,3.8707,3.8707,3.864,3.8609,3.8585,3.851,3.8401,3.8354,3.8303,3.8153,3.7966,3.7792,3.7632,3.7188,3.6816,3.6426,3.6216,3.6131,3.6105,3.6062,3.5949,3.5888,3.5756,3.5667,3.552,3.5284,3.4472,3.3541,3.3017,3.2307,3.1376,3.119,3.119,3.119,3.119,3.119,3.119,3.119,3.119,3.119,3.119,3.1055,3.0615,3.0294,2.985,2.9407,2.8733,2.8219,2.7814,2.7483,2.7043,2.65,2.6302,2.6145,2.6034,2.5839,2.5999,2.6366,2.6557,2.6456,2.6078,2.548,2.4776,2.4104,2.3703,2.3393,2.3127,2.3024,2.2799,2.2263,2.1793,2.1215,2.0723,2.022,1.9965,1.985,1.9798,1.9798,1.9798,1.9798,1.9798,1.9798,1.9798,1.9734,1.9633,1.9419,1.9133,1.8697,1.8053,1.7535,1.6873,1.6221,1.5603,1.5266,1.4994,1.504,1.5051,1.5277,1.5412,1.5501,1.5635,1.5724,1.5768,1.5691,1.5647,4.0634,3.9827,3.9038,3.8707,3.8707,3.8707,3.8707,3.8707,3.8707,3.8707,3.8707,3.8707,3.8689,3.8689,3.8689,3.8609,3.8559,3.8496,3.8433,3.8401,3.8318,3.8153,3.8,3.7756,3.7431,3.6856,3.6615,3.6492,3.6426,3.6301,3.6233,3.6062,3.5949,3.5817,3.5559,3.4922,3.427,3.3482,3.2788,3.2076,3.1343,3.119,3.119,3.119,3.119,3.119,3.119,3.119,3.119,3.119,3.119,3.119,3.1038,3.0683,3.0277,3.0226,2.9567,2.9121,2.8874,2.8682,2.8377,2.8201,2.7882,2.7623,2.7227,2.7024,2.7039,2.7149,2.7248,2.6898,2.6572,2.6108,2.5386,2.4683,2.3985,2.3481,2.317,2.2946,2.254,2.2217,2.1698,2.118,2.0723,2.0271,2.0055,1.985,1.985,1.9798,1.9798,1.9798,1.9798,1.9798,1.9798,1.9798,1.9709,1.9597,1.9283,1.8571,1.8031,1.756,1.7152,1.6564,1.5988,1.5768,1.5591,1.5591,1.5591,1.5724,1.5856,1.6032,1.6076,1.6076,1.6132,1.6144,1.6088,4.0634,3.9808,3.9038,3.8707,3.8707,3.8707,3.8707,3.8707,3.8707,3.8707,3.8707,3.8707,3.8707,3.8707,3.8707,3.8689,3.8658,3.8627,3.8627,3.8627,3.8496,3.8382,3.8285,3.8119,3.7879,3.7685,3.7339,3.7073,3.6935,3.6794,3.6632,3.6444,3.6251,3.6062,3.5788,3.5198,3.4354,3.3556,3.2751,3.197,3.1399,3.119,3.119,3.119,3.119,3.119,3.119,3.119,3.119,3.119,3.119,3.119,3.1157,3.1021,3.0954,3.0784,3.0311,2.9867,2.9724,2.9215,2.8762,2.8455,2.8378,2.842,2.8359,2.8124,2.8025,2.8046,2.7817,2.7334,2.6632,2.6437,2.6012,2.5213,2.4423,2.3812,2.3277,2.2682,2.2184,2.1935,2.1506,2.1082,2.0623,2.022,2.0016,1.985,1.9798,1.9798,1.9798,1.9798,1.9798,1.9798,1.9798,1.9798,1.9786,1.9673,1.9409,1.857,1.7944,1.7443,1.7067,1.6704,1.6349,1.6088,1.6001,1.6001,1.6044,1.612,1.6163,1.625,1.6337,1.638,1.6349,1.6318,1.6349,4.001,3.9258,3.8854,3.8707,3.8707,3.8707,3.8707,3.8707,3.8707,3.8707,3.8707,3.8707,3.8707,3.8707,3.8707,3.8707,3.8707,3.8707,3.8707,3.8676,3.8627,3.8559,3.8446,3.835,3.8285,3.8135,3.7913,3.7632,3.7413,3.7264,3.7034,3.6834,3.6632,3.6451,3.6025,3.5063,3.438,3.3607,3.2656,3.1793,3.1286,3.123,3.119,3.119,3.119,3.119,3.119,3.119,3.119,3.119,3.119,3.119,3.119,3.119,3.119,3.1123,3.0835,3.061,3.0594,3.0184,3.0022,2.9839,2.9632,2.9599,2.9575,2.9297,2.8833,2.8513,2.8301,2.7769,2.719,2.6811,2.634,2.5794,2.4911,2.413,2.3431,2.2583,2.2074,2.1725,2.1264,2.0822,2.0422,2.0118,1.9978,1.9862,1.9798,1.9798,1.9798,1.9798,1.9798,1.9798,1.9798,1.9798,1.9761,1.9635,1.9334,1.8555,1.7978,1.7476,1.6974,1.6635,1.6534,1.6448,1.6405,1.6362,1.6362,1.6349,1.6436,1.6479,1.6479,1.6522,1.6479,1.6479,1.6479,3.9441,3.8707,3.8707,3.8707,3.8707,3.8707,3.8707,3.8707,3.8707,3.8707,3.8707,3.8707,3.8707,3.8707,3.8707,3.8707,3.8707,3.8707,3.8707,3.8707,3.8707,3.8658,3.8559,3.8541,3.8496,3.8433,3.8382,3.8219,3.788,3.7667,3.7487,3.7264,3.7073,3.6917,3.6417,3.5205,3.4424,3.3593,3.2441,3.1555,3.1372,3.1312,3.1308,3.1308,3.1291,3.1291,3.1291,3.1252,3.123,3.123,3.123,3.119,3.119,3.119,3.119,3.119,3.119,3.119,3.1157,3.1123,3.0915,3.0763,3.0868,3.074,3.0477,2.987,2.9316,2.8605,2.825,2.7974,2.7525,2.7111,2.6807,2.6406,2.549,2.4429,2.3784,2.2983,2.1994,2.1532,2.1046,2.066,2.0271,2.0016,1.9862,1.9862,1.9798,1.9798,1.9798,1.9798,1.9798,1.9798,1.9798,1.9798,1.9723,1.9572,1.9133,1.843,1.7978,1.7564,1.7081,1.659,1.662,1.6663,1.6735,1.6693,1.665,1.665,1.6693,1.6735,1.665,1.665,1.6693,1.6663,1.6577,3.9441,3.8707,3.8707,3.8707,3.8707,3.8707,3.8707,3.8707,3.8707,3.8707,3.8707,3.8707,3.8707,3.8707,3.8707,3.8707,3.8707,3.8707,3.8707,3.8707,3.8707,3.8707,3.8658,3.8658,3.8658,3.8572,3.8572,3.8501,3.8165,3.7995,3.7897,3.765,3.7487,3.7285,3.6832,3.5467,3.4668,3.4112,3.2674,3.1765,3.1579,3.1542,3.1579,3.1617,3.1617,3.1542,3.1504,3.1428,3.1312,3.1312,3.123,3.119,3.119,3.119,3.119,3.119,3.119,3.119,3.119,3.119,3.119,3.1151,3.1072,3.0935,3.0593,3.0027,2.9319,2.8559,2.822,2.794,2.7675,2.7535,2.739,2.6971,2.6258,2.5316,2.4517,2.3368,2.2436,2.1689,2.1301,2.0712,2.0271,2.0016,1.9798,1.9798,1.9798,1.9798,1.9798,1.9798,1.9798,1.9798,1.9798,1.9798,1.9786,1.9623,1.912,1.8367,1.8075,1.7743,1.7131,1.6748,1.682,1.6905,1.6989,1.7144,1.7186,1.7144,1.7073,1.6989,1.6989,1.6947,1.6947,1.6833,1.6748,3.9032,3.8707,3.8707,3.8707,3.8707,3.8707,3.8707,3.8707,3.8707,3.8707,3.8707,3.8707,3.8707,3.8707,3.8707,3.8707,3.8707,3.8707,3.8707,3.8707,3.8707,3.8707,3.8707,3.8707,3.8707,3.8542,3.8267,3.7924,3.7898,3.8145,3.8201,3.7998,3.7877,3.7539,3.6916,3.574,3.4783,3.3828,3.2683,3.1927,3.1817,3.18,3.1821,3.1894,3.1894,3.1804,3.1748,3.1654,3.1542,3.1466,3.1423,3.1346,3.1291,3.1252,3.1252,3.119,3.119,3.119,3.119,3.119,3.119,3.119,3.1112,3.0935,3.0576,3.0027,2.9319,2.8574,2.8268,2.7989,2.7675,2.761,2.7575,2.7294,2.6737,2.6138,2.5162,2.394,2.2915,2.2214,2.1542,2.1139,2.0699,2.0459,2.0258,2.0016,1.9965,1.9914,1.9862,1.9798,1.9798,1.9798,1.9798,1.9798,1.9798,1.971,1.9245,1.8652,1.8396,1.7994,1.7286,1.696,1.7206,1.7363,1.7475,1.7598,1.772,1.7598,1.7434,1.7365,1.7323,1.7323,1.731,1.7115,1.7002,3.8762,3.8719,3.8689,3.8707,3.8707,3.8707,3.8707,3.8707,3.8707,3.8707,3.8707,3.8707,3.8707,3.8707,3.8707,3.8707,3.8707,3.8707,3.8707,3.8707,3.8707,3.8707,3.8615,3.8579,3.834,3.8395,3.7533,3.7239,3.7319,3.7534,3.7698,3.7754,3.7467,3.7207,3.6533,3.5576,3.4574,3.3386,3.2564,3.2179,3.2161,3.2161,3.2231,3.2248,3.2248,3.2179,3.2109,3.1984,3.1875,3.1746,3.1651,3.1538,3.1389,3.1312,3.1235,3.123,3.119,3.119,3.119,3.119,3.119,3.119,3.1055,3.0797,3.0309,2.9881,2.9364,2.8542,2.822,2.794,2.7725,2.756,2.7575,2.739,2.7036,2.6574,2.5956,2.4887,2.3832,2.3025,2.2408,2.1904,2.1518,2.1144,2.0759,2.0321,2.0131,2.0029,1.9978,1.9901,1.985,1.985,1.985,1.985,1.9862,1.975,1.9256,1.906,1.8814,1.8577,1.8074,1.78,1.7944,1.8003,1.8057,1.8121,1.8279,1.8002,1.7801,1.7922,1.7948,1.7801,1.772,1.7488,1.7282,3.8773,3.8792,3.8719,3.8707,3.8707,3.8707,3.8707,3.8707,3.8707,3.8707,3.8707,3.8707,3.8707,3.8707,3.8707,3.8707,3.8707,3.8707,3.8707,3.8707,3.8707,3.8707,3.8524,3.812,3.7643,3.7533,3.6798,3.6395,3.634,3.6303,3.6373,3.6296,3.6559,3.6298,3.5793,3.5059,3.4074,3.3143,3.2558,3.2523,3.2623,3.2669,3.2781,3.2912,3.283,3.2716,3.2636,3.242,3.2179,3.2055,3.1929,3.1726,3.1559,3.1466,3.1389,3.1252,3.123,3.123,3.119,3.119,3.119,3.1112,3.0895,3.0551,3.0054,2.9483,2.8967,2.8477,2.8088,2.784,2.7675,2.756,2.756,2.7515,2.73,2.6971,2.6474,2.5985,2.495,2.3976,2.3264,2.2757,2.2334,2.1965,2.1264,2.0809,2.0422,2.0321,2.0182,2.0118,1.9952,1.9901,1.985,1.9901,1.9978,1.9788,1.9683,1.9597,1.9443,1.9384,1.9248,1.9046,1.8645,1.8794,1.8812,1.8839,1.8798,1.863,1.85,1.8577,1.8577,1.8344,1.8161,1.7962,1.7679,3.8987,3.891,3.8792,3.875,3.8707,3.8707,3.8707,3.8707,3.8707,3.8707,3.8707,3.8707,3.8707,3.8707,3.8707,3.8707,3.8707,3.8707,3.8707,3.8707,3.8707,3.8707,3.8414,3.7991,3.7496,3.7165,3.6248,3.5495,3.5477,3.5183,3.4816,3.4917,3.5622,3.5732,3.5287,3.4473,3.3592,3.3176,3.2855,3.2855,3.3073,3.3028,3.3086,3.3256,3.3256,3.3086,3.2943,3.2816,3.2621,3.2438,3.2284,3.2073,3.1783,3.1691,3.1504,3.1312,3.1291,3.1252,3.119,3.119,3.1151,3.0952,3.0675,3.0267,2.9793,2.9257,2.8779,2.8365,2.7974,2.774,2.7625,2.756,2.7575,2.7575,2.7464,2.7214,2.6935,2.6474,2.5991,2.4961,2.421,2.3638,2.3209,2.2783,2.2033,2.1299,2.0957,2.0623,2.0523,2.0422,2.0308,2.0207,2.0194,2.0156,2.0233,2.0181,2.0165,2.0139,2.0125,2.0219,2.0213,1.9586,1.9276,1.9458,1.9493,1.9275,1.9176,1.9213,1.9139,1.9049,1.8936,1.8784,1.8592,1.8358,1.8108,3.9202,3.9092,3.895,3.8822,3.8719,3.8707,3.8707,3.8707,3.8707,3.8707,3.8707,3.8707,3.8707,3.8707,3.8707,3.8707,3.8707,3.8707,3.8707,3.8707,3.8707,3.8707,3.8432,3.7936,3.7312,3.6872,3.5862,3.499,3.4633,3.4064,3.4009,3.4321,3.4853,3.4945,3.4623,3.3923,3.337,3.3237,3.3176,3.317,3.34,3.3358,3.3357,3.3473,3.3473,3.3404,3.3268,3.316,3.3006,3.2784,3.2606,3.2404,3.2161,3.1912,3.1728,3.1504,3.1312,3.1274,3.1213,3.1151,3.1072,3.0855,3.051,3.007,2.9528,2.9074,2.859,2.8186,2.789,2.7675,2.7625,2.756,2.756,2.7575,2.7575,2.7419,2.7309,2.6971,2.6609,2.6022,2.5398,2.482,2.4119,2.3659,2.2747,2.206,2.165,2.1264,2.097,2.0871,2.0772,2.066,2.0597,2.056,2.0523,2.0657,2.0801,2.1014,2.1029,2.1176,2.1018,2.0358,2.0091,2.036,2.0196,1.9701,1.9487,1.9472,1.9398,1.9325,1.9199,1.9139,1.8974,1.8745,1.8553,3.9371,3.9272,3.9137,3.8979,3.8822,3.8738,3.8707,3.8707,3.8707,3.8707,3.8707,3.8707,3.8707,3.8707,3.8707,3.8707,3.8707,3.8707,3.8707,3.8707,3.8707,3.8707,3.8414,3.79,3.7147,3.6285,3.544,3.4642,3.3954,3.388,3.3825,3.3807,3.4137,3.4156,3.3853,3.3707,3.3549,3.3509,3.3452,3.3509,3.3567,3.3605,3.3643,3.368,3.3671,3.3587,3.3502,3.3462,3.3298,3.3117,3.2961,3.2705,3.2352,3.2109,3.1839,3.1538,3.1406,3.1291,3.119,3.1072,3.0935,3.0733,3.0384,2.9957,2.938,2.8858,2.8431,2.8137,2.784,2.769,2.7625,2.756,2.7575,2.756,2.756,2.756,2.7485,2.7405,2.7026,2.6723,2.6534,2.621,2.5349,2.4555,2.3508,2.2822,2.2362,2.1935,2.1602,2.1444,2.1396,2.1251,2.114,2.1104,2.1118,2.1264,2.1431,2.169,2.182,2.1815,2.1641,2.1151,2.1064,2.1222,2.0531,1.9715,1.9632,1.9705,1.9581,1.9508,1.9523,1.945,1.9288,1.9139,1.895,3.9675,3.9532,3.9376,3.9192,3.9045,3.8833,3.875,3.8689,3.8707,3.8707,3.8707,3.8707,3.8707,3.8707,3.8707,3.8707,3.8707,3.8707,3.8707,3.8707,3.8707,3.8707,3.845,3.7863,3.7055,3.6266,3.544,3.4614,3.3844,3.3807,3.3807,3.3807,3.3807,3.378,3.3753,3.3671,3.3615,3.3577,3.3577,3.3605,3.3643,3.3698,3.3707,3.3788,3.3762,3.3726,3.3671,3.3633,3.3549,3.3375,3.3256,3.2993,3.2621,3.2352,3.2055,3.1671,3.1466,3.1346,3.123,3.1072,3.0895,3.0651,3.0316,2.9913,2.9425,2.892,2.8494,2.8171,2.789,2.774,2.7625,2.7625,2.7625,2.7575,2.756,2.756,2.753,2.7545,2.7395,2.7151,2.6991,2.6408,2.5685,2.507,2.4153,2.3472,2.3028,2.2629,2.2249,2.2156,2.2095,2.1935,2.1841,2.1746,2.1698,2.1841,2.1935,2.2095,2.2115,2.2087,2.1902,2.175,2.1503,2.1411,2.0512,1.969,1.9705,1.9705,1.9705,1.9705,1.9669,1.9647,1.9487,1.9413,1.9339,3.9935,3.9785,3.9647,3.9452,3.9237,3.895,3.8792,3.8689,3.8707,3.8707,3.8707,3.8707,3.8707,3.8707,3.8707,3.8707,3.8707,3.8707,3.8707,3.8707,3.8707,3.8707,3.845,3.7863,3.7074,3.6248,3.5422,3.4614,3.3844,3.3807,3.3807,3.3807,3.3807,3.378,3.3753,3.3726,3.3707,3.3671,3.3671,3.3698,3.3726,3.3753,3.3734,3.3807,3.3807,3.378,3.3734,3.3726,3.3689,3.3577,3.3433,3.3238,3.288,3.2573,3.2249,3.1819,3.1445,3.1346,3.119,3.1072,3.0935,3.0814,3.0342,2.9957,2.9589,2.9136,2.8716,2.835,2.8073,2.789,2.774,2.769,2.7625,2.7625,2.756,2.756,2.756,2.756,2.7545,2.738,2.731,2.6617,2.6033,2.5418,2.4773,2.4207,2.3643,2.3288,2.2889,2.2754,2.2663,2.2495,2.2402,2.2342,2.2296,2.2402,2.2449,2.2509,2.2493,2.2455,2.2497,2.2458,2.1992,2.1491,2.0752,2.0109,1.9794,1.9705,1.9756,1.9741,1.9705,1.9669,1.9632,1.9596,1.956,4.0081,3.9998,3.9935,3.9717,3.9376,3.9045,3.884,3.8707,3.8707,3.8707,3.8707,3.8707,3.8707,3.8707,3.8707,3.8707,3.8707,3.8707,3.8707,3.8707,3.8707,3.867,3.834,3.779,3.6927,3.6156,3.5404,3.4587,3.3899,3.3807,3.3807,3.3807,3.3807,3.3807,3.3807,3.378,3.3762,3.378,3.3753,3.378,3.378,3.3807,3.3807,3.3807,3.3807,3.3807,3.378,3.378,3.3753,3.3689,3.3577,3.3327,3.3024,3.269,3.2284,3.1856,3.1423,3.1308,3.123,3.1095,3.1072,3.0935,3.0617,3.0225,2.9837,2.9438,2.9028,2.8669,2.835,2.8073,2.7875,2.7775,2.7725,2.7675,2.761,2.756,2.756,2.756,2.756,2.7565,2.758,2.7175,2.6666,2.6096,2.5303,2.4867,2.4283,2.3746,2.3392,2.3172,2.3068,2.2934,2.2889,2.2889,2.2889,2.2859,2.2859,2.2859,2.2893,2.2876,2.3018,2.2852,2.2163,2.1545,2.1006,2.0543,2.022,1.9987,1.9822,1.9822,1.9963,1.9777,1.9741,1.969,1.969,3.9731,4.0174,4.008,3.9892,3.9623,3.9183,3.8881,3.8707,3.8707,3.8707,3.8707,3.8707,3.8707,3.8707,3.8707,3.8707,3.867,3.8707,3.8707,3.8634,3.8432,3.823,3.79,3.7434,3.6578,3.5752,3.5037,3.4513,3.3972,3.3807,3.3807,3.3807,3.3807,3.3807,3.3807,3.3807,3.3807,3.3807,3.3807,3.3807,3.3807,3.3807,3.3807,3.3807,3.3807,3.3807,3.3807,3.3807,3.378,3.3753,3.3633,3.3415,3.3178,3.2816,3.2403,3.1856,3.1596,3.1445,3.1312,3.1235,3.1213,3.1151,3.0878,3.0559,3.0225,2.9837,2.9393,2.9028,2.8622,2.835,2.8024,2.789,2.779,2.7675,2.761,2.756,2.756,2.756,2.761,2.7625,2.769,2.77,2.7218,2.647,2.5743,2.5408,2.4937,2.4286,2.3839,2.361,2.348,2.3334,2.326,2.3246,2.3216,2.3172,2.3172,2.3187,2.3243,2.3225,2.3253,2.2909,2.2188,2.1669,2.1242,2.0963,2.0655,2.0421,2.0228,2.0303,2.0415,2.0101,1.9833,1.9869,1.9889,3.9397,3.9821,4.0081,3.9977,3.9647,3.9245,3.8968,3.875,3.8689,3.8707,3.8707,3.8707,3.8707,3.8707,3.8689,3.8524,3.8193,3.815,3.8051,3.7647,3.7886,3.7511,3.7161,3.6728,3.5974,3.5211,3.4651,3.4211,3.388,3.3807,3.3807,3.3807,3.3807,3.3807,3.3807,3.3807,3.3807,3.3807,3.3807,3.3807,3.3807,3.3807,3.3807,3.3807,3.3807,3.3807,3.3807,3.3807,3.3807,3.3807,3.3671,3.3549,3.3238,3.2866,3.2521,3.202,3.1839,3.1654,3.1542,3.1389,3.1329,3.1252,3.1134,3.0918,3.0576,3.0225,2.9793,2.9348,2.8982,2.8574,2.8268,2.7955,2.779,2.7625,2.761,2.756,2.756,2.756,2.7625,2.7675,2.779,2.7955,2.7522,2.6796,2.6181,2.5887,2.5361,2.4548,2.4204,2.3994,2.3852,2.3739,2.3653,2.3566,2.3538,2.3538,2.3581,2.3551,2.3563,2.3558,2.3516,2.3318,2.2884,2.2282,2.1622,2.144,2.1408,2.0971,2.0732,2.0875,2.0855,2.0439,2.022,2.017,2.0204,3.9045,3.9224,3.9961,3.9981,3.9526,3.9298,3.9073,3.8833,3.878,3.8738,3.8707,3.8707,3.8707,3.867,3.8524,3.812,3.7794,3.7603,3.7274,3.6463,3.6842,3.6722,3.6288,3.5643,3.5321,3.4852,3.4393,3.3999,3.3862,3.3807,3.3807,3.3807,3.3807,3.3807,3.3807,3.3807,3.3807,3.3807,3.3807,3.3807,3.3807,3.3807,3.3807,3.3807,3.3807,3.3807,3.3807,3.3807,3.3807,3.378,3.3726,3.3605,3.3286,3.2948,3.2606,3.2352,3.2162,3.1966,3.1802,3.1671,3.1483,3.1368,3.1252,3.1095,3.0821,3.0535,3.0097,2.9633,2.9227,2.8732,2.8381,2.8054,2.7855,2.7675,2.761,2.7625,2.7675,2.7725,2.7825,2.7925,2.8073,2.8204,2.8151,2.7426,2.6835,2.6522,2.5827,2.4988,2.4695,2.4517,2.4271,2.4204,2.4051,2.3967,2.3925,2.3925,2.3925,2.3937,2.3933,2.3975,2.4002,2.3891,2.3733,2.2955,2.2185,2.23,2.2251,2.175,2.1448,2.1541,2.1393,2.0866,2.0646,2.0613,2.0613,3.8122,3.9273,3.994,4.0001,3.9651,3.9502,3.9279,3.9101,3.9036,3.8892,3.8719,3.8689,3.867,3.8591,3.8095,3.7684,3.7429,3.6925,3.6703,3.647,3.6437,3.608,3.585,3.541,3.4944,3.4378,3.3968,3.3887,3.386,3.3834,3.3807,3.3807,3.3807,3.3807,3.3807,3.3807,3.3807,3.3807,3.3807,3.3807,3.3807,3.3807,3.3807,3.3807,3.3807,3.3807,3.3807,3.3807,3.3807,3.3807,3.3726,3.3605,3.3393,3.3147,3.2925,3.2716,3.2553,3.2369,3.2144,3.1912,3.1709,3.1483,3.1368,3.1235,3.1038,3.0757,3.041,2.9941,2.947,2.8967,2.8477,2.8201,2.792,2.774,2.761,2.7675,2.779,2.794,2.8073,2.822,2.8365,2.8466,2.8529,2.8144,2.7583,2.6928,2.6241,2.56,2.5508,2.5323,2.4895,2.4695,2.4441,2.4359,2.4302,2.4302,2.4328,2.4385,2.4395,2.4451,2.4467,2.4191,2.3936,2.3335,2.2864,2.3022,2.2927,2.2413,2.2179,2.2163,2.182,2.1215,2.1183,2.1198,2.1183,3.7392,3.8279,3.8914,3.9032,3.8852,3.9025,3.8987,3.8838,3.913,3.898,3.8519,3.8656,3.8626,3.835,3.7779,3.7016,3.6731,3.6239,3.5813,3.5727,3.5843,3.5497,3.525,3.5109,3.4753,3.4228,3.4067,3.3972,3.3939,3.3887,3.386,3.386,3.3834,3.3834,3.3807,3.3807,3.3807,3.3807,3.3807,3.3807,3.3807,3.3807,3.3807,3.3807,3.3807,3.3807,3.3807,3.3807,3.3807,3.378,3.3744,3.3689,3.3549,3.3386,3.325,3.3129,3.2957,3.2784,3.2521,3.2214,3.1984,3.1728,3.1445,3.1368,3.1196,3.0942,3.0617,3.014,2.9722,2.9182,2.87,2.8332,2.8103,2.789,2.7925,2.8039,2.8122,2.8253,2.8431,2.8669,2.8858,2.9074,2.892,2.8367,2.7875,2.7597,2.6846,2.6092,2.6007,2.5954,2.5567,2.5262,2.4989,2.4831,2.4815,2.4719,2.4695,2.4735,2.4871,2.4934,2.495,2.4496,2.4042,2.3909,2.3807,2.3767,2.3568,2.2975,2.2619,2.2523,2.2069,2.1542,2.1617,2.1708,2.1708,3.6701,3.6991,3.767,3.783,3.7735,3.8289,3.8409,3.8282,3.8879,3.8727,3.8104,3.8497,3.8238,3.7802,3.735,3.6406,3.5743,3.5535,3.5082,3.4921,3.4915,3.5011,3.4953,3.4682,3.4577,3.4442,3.424,3.4173,3.4099,3.4049,3.3972,3.3921,3.3895,3.3842,3.3842,3.3842,3.386,3.386,3.3834,3.3834,3.3807,3.3807,3.3807,3.3807,3.3807,3.3807,3.3807,3.3807,3.3807,3.378,3.3753,3.3726,3.3671,3.3587,3.352,3.3386,3.3238,3.3055,3.2834,3.2539,3.2214,3.193,3.1671,3.1445,3.1312,3.1061,3.074,3.0393,2.9924,2.9454,2.8967,2.8605,2.8317,2.814,2.8238,2.8319,2.8432,2.8591,2.8872,2.9118,2.9345,2.9569,2.9156,2.8592,2.8178,2.7921,2.7454,2.6756,2.6277,2.6241,2.6046,2.5811,2.5589,2.546,2.5307,2.523,2.5153,2.5285,2.54,2.5513,2.541,2.4729,2.4554,2.5036,2.4928,2.4176,2.3883,2.3375,2.3112,2.2813,2.2391,2.1991,2.2032,2.2089,2.2135,3.5735,3.6947,3.7732,3.7959,3.7827,3.7881,3.7813,3.7737,3.781,3.7709,3.754,3.7472,3.7317,3.682,3.6163,3.5591,3.5544,3.5177,3.5051,3.4946,3.4964,3.5002,3.4964,3.487,3.4751,3.4604,3.4431,3.434,3.434,3.425,3.4197,3.4148,3.4148,3.4099,3.4049,3.4023,3.3998,3.3947,3.3895,3.3868,3.3834,3.3807,3.3807,3.3807,3.3807,3.3807,3.3807,3.3807,3.3807,3.3807,3.3788,3.3762,3.3734,3.3707,3.3671,3.3577,3.3433,3.3256,3.2993,3.2737,3.242,3.2091,3.1783,3.1521,3.1351,3.1117,3.0878,3.0651,3.0215,2.9722,2.9273,2.8951,2.8716,2.8545,2.8529,2.8622,2.876,2.9032,2.9299,2.9475,2.9648,2.9573,2.928,2.8721,2.8194,2.7805,2.7259,2.6656,2.6504,2.6521,2.6452,2.6295,2.6101,2.5974,2.5807,2.5775,2.5738,2.5864,2.5901,2.5937,2.5595,2.4743,2.4745,2.5243,2.463,2.3667,2.3464,2.3524,2.3348,2.2988,2.2682,2.2422,2.246,2.247,2.247]},{"header":{"parameterUnit":"m.s-1","parameterCategory":1,"la1":31.0,"la2":29.5877,"lo1":-88.7671,"lo2":-86.6584,"dy":0.0162,"dx":0.0185,"nx":115,"ny":88,"refTime":"2023-08-02T00:00:00:Z","depth":0,"parameterNumber":3,"parameterNumberName":"V-component_of_WINDS"},"data":[0.0,0.0,0.0,0.0,0.0,0.0,0.0,0.0,0.0,0.0,0.0,0.0,0.0,0.0,0.0,0.0,0.0,0.0,0.0,0.0,0.0,0.0,0.0,0.0,0.0,0.0,0.0,0.0,0.0,0.0,0.0,0.0,0.0,0.0,0.0,0.0,0.0,0.0,0.0,0.0,0.0,0.0,0.0,0.0,0.0,0.0,0.0,0.0,0.0,0.0,0.0,0.0,0.0,0.0,0.0,0.0,0.0,0.0,0.0,0.0,0.0,0.0,0.0,0.0,0.0,0.0,0.0,0.0,0.0,0.0,0.0,0.0,0.0,0.0,0.0,0.0,0.0,0.0,0.0,0.0,0.0,0.0,0.0,0.0,0.0,0.0,0.0,0.0,0.0,0.0,0.0,0.0,0.0,0.0,0.0,0.0,0.0,0.0,0.0,0.0,0.0,0.0,0.0,0.0,0.0,0.0,0.0,0.0,0.0,0.0,0.0,0.0,0.0,0.0,0.0,0.0,0.0,0.0,0.0,0.0,0.0,0.0,0.0,0.0,0.0,0.0,0.0,0.0,0.0,0.0,0.0,0.0,0.0,0.0,0.0,0.0,0.0,0.0,0.0,0.0,0.0,0.0,0.0,0.0,0.0,0.0,0.0,0.0,0.0,0.0,0.0,0.0,0.0,0.0,0.0,0.0,0.0,0.0,0.0,0.0,0.0,0.0,0.0,0.0,0.0,0.0,0.0,0.0,0.0,0.0,0.0,0.0,0.0,0.0,0.0,0.0,0.0,0.0,0.0,0.0,0.0,0.0,0.0,0.0,0.0,0.0,0.0,0.0,0.0,0.0,0.0,0.0,0.0,0.0,0.0,0.0,0.0,0.0,0.0,0.0,0.0,0.0,0.0,0.0,0.0,0.0,0.0,0.0,0.0,0.0,0.0,0.0,0.0,0.0,0.0,0.0,0.0,0.0,0.0,0.0,0.0,0.0,0.0,0.0,0.0,0.0,0.0,0.0,0.0,0.0,0.0,0.0,0.0,0.0,0.0,0.0,0.0,0.0,0.0,0.0,0.0,0.0,0.0,0.0,0.0,0.0,0.0,0.0,0.0,0.0,0.0,0.0,0.0,0.0,0.0,0.0,0.0,0.0,0.0,0.0,0.0,0.0,0.0,0.0,0.0,0.0,0.0,0.0,0.0,0.0,0.0,0.0,0.0,0.0,0.0,0.0,0.0,0.0,0.0,0.0,0.0,0.0,0.0,0.0,0.0,0.0,0.0,0.0,0.0,0.0,0.0,0.0,0.0,0.0,0.0,0.0,0.0,0.0,0.0,0.0,0.0,0.0,0.0,0.0,0.0,0.0,0.0,0.0,0.0,0.0,0.0,0.0,0.0,0.0,0.0,0.0,0.0,0.0,0.0,0.0,0.0,0.0,0.0,0.0,0.0,0.0,0.0,0.0,0.0,0.0,0.0,0.0,0.0,0.0,0.0,0.0,0.0,0.0,0.0,0.0,0.0,0.0,0.0,0.0,0.0,0.0,0.0,0.0,0.0,0.0,0.0,0.0,0.0,0.0,0.0,0.0,0.0,0.0,0.0,0.0,0.0,0.0,0.0,0.0,0.0,0.0,0.0,0.0,0.0,0.0,0.0,0.0,0.0,0.0,0.0,0.0,0.0,0.0,0.0,0.0,0.0,0.0,0.0,0.0,0.0,0.0,0.0,0.0,0.0,0.0,0.0,0.0,0.0,0.0,0.0,0.0,0.0,0.0,0.0,0.0,0.0,0.0,0.0,0.0,0.0,0.0,0.0,0.0,0.0,0.0,0.0,0.0,0.0,0.0,0.0,0.0,0.0,0.0,0.0,0.0,0.0,0.0,0.0,0.0,0.0,0.0,0.0,0.0,0.0,0.0,0.0,0.0,0.0,0.0,0.0,0.0,0.0,0.0,0.0,0.0,0.0,0.0,0.0,0.0,0.0,0.0,0.0,0.0,0.0,0.0,0.0,0.0,0.0,0.0,0.0,0.0,0.0,0.0,0.0,0.0,0.0,0.0,0.0,0.0,0.0,0.0,0.0,0.0,0.0,0.0,0.0,0.0,0.0,0.0,0.0,0.0,0.0,0.0,0.0,0.0,0.0,0.0,0.0,0.0,0.0,0.0,0.0,0.0,0.0,0.0,0.0,0.0,0.0,0.0,0.0,0.0,0.0,0.0,0.0,0.0,0.0,0.0,0.0,0.0,0.0,0.0,0.0,0.0,0.0,0.0,0.0,0.0,0.0,0.0,0.0,0.0,0.0,0.0,0.0,0.0,0.0,0.0,0.0,0.0,0.0,0.0,0.0,0.0,0.0,0.0,0.0,0.0,0.0,0.0,0.0,0.0,0.0,0.0,0.0,0.0,0.0,0.0,0.0,0.0,0.0,0.0,0.0,0.0,0.0,0.0,0.0,0.0,0.0,0.0,0.0,0.0,0.0,0.0,0.0,0.0,0.0,0.0,0.0,0.0,0.0,0.0,0.0,0.0,0.0,0.0,0.0,0.0,0.0,0.0,0.0,0.0,0.0,0.0,0.0,0.0,0.0,0.0,0.0,0.0,0.0,0.0,0.0,0.0,0.0,0.0,0.0,0.0,0.0,0.0,0.0,0.0,0.0,0.0,0.0,0.0,0.0,0.0,0.0,0.0,0.0,0.0,0.0,0.0,0.0,0.0,0.0,0.0,0.0,0.0,0.0,0.0,0.0,0.0,0.0,0.0,0.0,0.0,0.0,0.0,0.0,0.0,0.0,0.0,0.0,0.0,0.0,0.0,0.0,0.0,0.0,0.0,0.0,0.0,0.0,0.0,0.0,0.0,0.0,0.0,0.0,0.0,0.0,0.0,0.0,0.0,0.0,0.0,0.0,0.0,0.0,0.0,0.0,0.0,0.0,0.0,0.0,0.0,0.0,0.0,0.0,0.0,0.0,0.0,0.0,0.0,0.0,0.0,0.0,0.0,0.0,0.0,0.0,0.0,0.0,0.0,0.0,0.0,0.0,0.0,0.0,0.0,0.0,0.0,0.0,0.0,0.0,0.0,0.0,0.0,0.0,0.0,0.0,0.0,0.0,0.0,0.0,0.0,0.0,0.0,0.0,0.0,0.0,0.0,0.0,0.0,0.0,0.0,0.0,0.0,0.0,0.0,0.0,0.0,0.0,0.0,0.0,0.0,0.0,0.0,0.0,0.0,0.0,0.0,0.0,0.0,0.0,0.0,0.0,0.0,0.0,0.0,0.0,0.0,0.0,0.0,0.0,0.0,0.0,0.0,0.0,0.0,0.0,0.0,0.0,0.0,0.0,0.0,0.0,0.0,0.0,0.0,0.0,0.0,0.0,0.0,0.0,0.0,0.0,0.0,0.0,0.0,0.0,0.0,0.0,0.0,0.0,0.0,0.0,0.0,0.0,0.0,0.0,0.0,0.0,0.0,0.0,0.0,0.0,0.0,0.0,0.0,0.0,0.0,0.0,0.0,0.0,0.0,0.0,0.0,0.0,0.0,0.0,0.0,0.0,0.0,0.0,0.0,0.0,0.0,0.0,0.0,0.0,0.0,0.0,0.0,0.0,0.0,0.0,0.0,0.0,0.0,0.0,0.0,0.0,0.0,0.0,0.0,0.0,0.0,0.0,0.0,0.0,0.0,0.0,0.0,0.0,0.0,0.0,0.0,0.0,0.0,0.0,0.0,0.0,0.0,0.0,0.0,0.0,0.0,0.0,0.0,0.0,0.0,0.0,0.0,0.0,0.0,0.0,0.0,0.0,0.0,0.0,0.0,0.0,0.0,0.0,0.0,0.0,0.0,0.0,0.0,0.0,0.0,0.0,0.0,0.0,0.0,0.0,0.0,0.0,0.0,0.0,0.0,0.0,0.0,0.0,0.0,0.0,0.0,0.0,0.0,0.0,0.0,0.0,0.0,0.0,0.0,0.0,0.0,0.0,0.0,0.0,0.0,0.0,0.0,0.0,0.0,0.0,0.0,0.0,0.0,0.0,0.0,0.0,0.0,0.0,0.0,0.0,0.0,0.0,0.0,0.0,0.0,0.0,0.0,0.0,0.0,0.0,0.0,0.0,0.0,0.0,0.0,0.0,0.0,0.0,0.0,0.0,0.0,0.0,0.0,0.0,0.0,0.0,0.0,0.0,0.0,0.0,0.0,0.0,0.0,0.0,0.0,0.0,0.0,0.0,0.0,0.0,0.0,0.0,0.0,0.0,0.0,0.0,0.0,0.0,0.0,0.0,0.0,0.0,0.0,1.751,0.0,0.0,0.0,0.0,0.0,0.0,0.0,0.0,0.0,0.0,0.0,0.0,0.0,0.0,0.0,0.0,0.0,0.0,0.0,0.0,0.0,0.0,0.0,0.0,0.0,0.0,0.0,0.0,0.0,0.0,0.0,0.0,0.0,0.0,0.0,0.0,0.0,0.0,0.0,0.0,0.0,0.0,0.0,0.0,0.0,0.0,0.0,0.0,0.0,0.0,0.0,0.0,0.0,0.0,0.0,0.0,0.0,0.0,0.0,0.0,0.0,0.0,0.0,0.0,0.0,0.0,0.0,0.0,0.0,0.0,0.0,0.0,0.0,0.0,0.0,0.0,0.0,0.0,0.0,0.0,0.0,0.0,0.0,0.0,0.0,0.0,0.0,0.0,0.0,0.0,0.0,0.0,0.0,0.0,0.0,0.0,0.0,0.0,0.0,0.0,0.0,0.0,0.0,0.0,0.0,0.0,0.0,0.0,0.0,0.0,2.0292,2.0273,1.86,1.7696,1.7657,0.0,0.0,0.0,0.0,0.0,0.0,0.0,0.0,0.0,0.0,0.0,0.0,0.0,0.0,0.0,0.0,0.0,0.0,0.0,0.0,0.0,0.0,0.0,0.0,0.0,0.0,0.0,0.0,0.0,0.0,0.0,0.0,0.0,0.0,0.0,0.0,0.0,0.0,0.0,0.0,0.0,0.0,0.0,0.0,0.0,0.0,0.0,0.0,0.0,0.0,0.0,0.0,0.0,0.0,0.0,0.0,0.0,0.0,0.0,0.0,0.0,0.0,0.0,0.0,0.0,0.0,0.0,0.0,0.0,0.0,0.0,0.0,0.0,0.0,0.0,0.0,0.0,0.0,0.0,0.0,0.0,0.0,0.0,0.0,0.0,0.0,0.0,0.0,0.0,0.0,0.0,0.0,0.0,0.0,0.0,0.0,0.0,0.0,0.0,0.0,0.0,0.0,0.0,0.0,0.0,0.0,0.0,0.0,0.0,0.0,0.0,0.0,1.8619,1.7529,1.7119,0.0,0.0,0.0,0.0,0.0,0.0,0.0,0.0,0.0,0.0,0.0,0.0,0.0,0.0,0.0,0.0,0.0,0.0,0.0,0.0,0.0,0.0,0.0,0.0,0.0,0.0,0.0,0.0,0.0,0.0,0.0,0.0,0.0,0.0,0.0,0.0,0.0,0.0,0.0,0.0,0.0,0.0,0.0,0.0,0.0,0.0,0.0,0.0,0.0,0.0,0.0,0.0,0.0,0.0,0.0,0.0,0.0,0.0,0.0,0.0,0.0,0.0,0.0,0.0,0.0,0.0,0.0,0.0,0.0,0.0,0.0,0.0,0.0,0.0,0.0,0.0,0.0,0.0,0.0,0.0,0.0,0.0,0.0,0.0,0.0,0.0,0.0,0.0,0.0,0.0,0.0,0.0,0.0,0.0,0.0,0.0,0.0,0.0,0.0,0.0,0.0,0.0,0.0,0.0,0.0,0.0,0.0,0.0,0.0,0.0,2.0292,2.0285,1.86,0.0,1.5561,0.0,0.0,0.0,0.0,0.0,0.0,0.0,0.0,0.0,0.0,0.0,0.0,0.0,0.0,0.0,0.0,0.0,0.0,0.0,0.0,0.0,0.0,0.0,0.0,0.0,0.0,0.0,0.0,0.0,0.0,0.0,0.0,0.0,0.0,0.0,0.0,0.0,0.0,0.0,0.0,0.0,0.0,0.0,0.0,0.0,0.0,0.0,0.0,0.0,0.0,0.0,0.0,0.0,0.0,0.0,0.0,0.0,0.0,0.0,0.0,0.0,0.0,0.0,0.0,0.0,0.0,0.0,0.0,0.0,0.0,0.0,0.0,0.0,0.0,0.0,0.0,0.0,0.0,0.0,0.0,0.0,0.0,0.0,0.0,0.0,0.0,0.0,0.0,0.0,0.0,0.0,0.0,0.0,0.0,0.0,0.0,0.0,0.0,0.0,0.0,0.0,0.0,0.0,0.0,0.0,0.0,0.0,0.0,0.0,0.0,2.0255,2.0235,1.859,1.6913,0.0,0.0,0.0,0.0,0.0,0.0,0.0,0.0,0.0,0.0,0.0,0.0,0.0,0.0,0.0,0.0,0.0,0.0,0.0,0.0,0.0,0.0,0.0,0.0,0.0,0.0,0.0,0.0,0.0,0.0,0.0,0.0,0.0,0.0,0.0,0.0,0.0,0.0,0.0,0.0,0.0,0.0,0.0,0.0,0.0,0.0,0.0,0.0,0.0,0.0,0.0,0.0,0.0,0.0,0.0,0.0,0.0,0.0,0.0,0.0,0.0,0.0,0.0,0.0,0.0,0.0,0.0,0.0,0.0,0.0,0.0,0.0,0.0,0.0,0.0,0.0,0.0,0.0,0.0,0.0,0.0,0.0,0.0,0.0,0.0,0.0,0.0,0.0,0.0,0.0,0.0,0.0,0.0,0.0,0.0,0.0,0.0,0.0,0.0,0.0,0.0,0.0,0.0,0.0,0.0,0.0,0.0,0.0,0.0,0.0,1.982,1.96,1.9111,1.7976,1.6656,1.5223,0.0,0.0,0.0,0.0,0.0,0.0,0.0,0.0,0.0,0.0,0.0,0.0,0.0,0.0,0.0,0.0,0.0,0.0,0.0,0.0,0.0,0.0,0.0,0.0,0.0,0.0,0.0,0.0,0.0,0.0,0.0,0.0,0.0,0.0,0.0,0.0,0.0,0.0,0.0,0.0,0.0,0.0,0.0,0.0,0.0,0.0,0.0,0.0,0.0,0.0,0.0,0.0,0.0,0.0,0.0,0.0,0.0,0.0,0.0,0.0,0.0,0.0,0.0,0.0,0.0,0.0,0.0,0.0,0.0,0.0,0.0,0.0,0.0,0.0,0.0,0.0,0.0,0.0,0.0,0.0,0.0,0.0,0.0,0.0,0.0,0.0,0.0,0.0,0.0,0.0,0.0,0.0,0.0,0.0,0.0,0.0,0.0,0.0,0.0,0.0,0.0,0.0,0.0,0.0,0.0,0.0,0.0,0.0,1.8907,1.8859,1.8087,1.6597,1.6464,1.6034,0.0,0.0,0.0,0.0,0.0,0.0,0.0,0.0,0.0,0.0,0.0,0.0,0.0,0.0,0.0,0.0,0.0,0.0,0.0,0.0,0.0,0.0,0.0,0.0,0.0,0.0,0.0,0.0,0.0,0.0,0.0,0.0,0.0,0.0,0.0,0.0,0.0,0.0,0.0,0.0,0.0,0.0,0.0,0.0,0.0,0.0,0.0,0.0,0.0,0.0,0.0,0.0,0.0,0.0,0.0,0.0,0.0,0.0,0.0,0.0,0.0,0.0,0.0,0.0,0.0,0.0,0.0,0.0,0.0,0.0,0.0,0.0,0.0,0.0,0.0,0.0,0.0,0.0,0.0,0.0,0.0,0.0,0.0,0.0,0.0,0.0,0.0,0.0,0.0,0.0,0.0,0.0,0.0,0.0,0.0,0.0,0.0,0.0,0.0,0.0,0.0,0.0,0.0,0.0,0.0,0.0,0.0,0.0,0.0,1.8596,1.8105,1.7312,1.6222,1.6246,1.5895,0.0,0.0,0.0,0.0,0.0,0.0,0.0,0.0,0.0,0.0,0.0,0.0,0.0,0.0,0.0,0.0,0.0,0.0,0.0,0.0,0.0,0.0,0.0,0.0,0.0,0.0,0.0,0.0,0.0,0.0,0.0,0.0,0.0,0.0,0.0,0.0,0.0,0.0,0.0,0.0,0.0,0.0,0.0,0.0,0.0,0.0,0.0,0.0,0.0,0.0,0.0,0.0,0.0,0.0,0.0,0.0,0.0,0.0,0.0,0.0,0.0,0.0,0.0,0.0,0.0,0.0,0.0,0.0,0.0,0.0,0.0,0.0,0.0,0.0,0.0,0.0,0.0,0.0,0.0,0.0,0.0,0.0,0.0,0.0,0.0,0.0,0.0,0.0,0.0,0.0,0.0,0.0,0.0,0.0,0.0,0.0,0.0,0.0,0.0,0.0,0.0,0.0,0.0,0.0,0.0,0.0,0.0,0.0,0.0,1.8034,0.0,1.6182,1.5687,1.5706,1.5523,0.0,0.0,0.0,0.0,0.0,0.0,0.0,0.0,0.0,0.0,0.0,0.0,0.0,0.0,0.0,0.0,0.0,0.0,0.0,0.0,0.0,0.0,0.0,0.0,0.0,0.0,0.0,0.0,0.0,0.0,0.0,0.0,0.0,0.0,0.0,0.0,0.0,0.0,0.0,0.0,0.0,0.0,0.0,0.0,0.0,0.0,0.0,0.0,0.0,0.0,0.0,0.0,0.0,0.0,0.0,0.0,0.0,0.0,0.0,0.0,0.0,0.0,0.0,0.0,0.0,0.0,0.0,0.0,0.0,0.0,0.0,0.0,0.0,0.0,0.0,0.0,0.0,0.0,0.0,0.0,0.0,0.0,0.0,0.0,0.0,0.0,0.0,0.0,0.0,0.0,0.0,0.0,0.0,0.0,0.0,0.0,0.0,0.0,0.0,0.0,0.0,0.0,0.0,0.0,0.0,0.0,0.0,0.0,1.8719,1.7127,1.5503,1.4717,1.4701,1.4802,1.4841,0.0,0.0,0.0,0.0,0.0,0.0,0.0,0.0,0.0,0.0,0.0,0.0,0.0,0.0,0.0,0.0,0.0,0.0,0.0,0.0,0.0,0.0,0.0,0.0,0.0,0.0,0.0,0.0,0.0,0.0,0.0,0.0,0.0,0.0,0.0,0.0,0.0,0.0,0.0,0.0,0.0,0.0,0.0,0.0,0.0,0.0,0.0,0.0,0.0,0.0,0.0,0.0,0.0,0.0,0.0,0.0,0.0,0.0,0.0,0.0,0.0,0.0,0.0,0.0,0.0,0.0,0.0,0.0,0.0,0.0,0.0,0.0,0.0,0.0,0.0,0.0,0.0,0.0,0.0,0.0,0.0,0.0,0.0,0.0,0.0,0.0,0.0,0.0,0.0,0.0,0.0,0.0,0.0,0.0,0.0,0.0,0.0,0.0,0.0,0.0,0.0,0.0,0.0,0.0,0.0,0.0,0.0,0.0,0.0,1.6023,1.4934,1.4411,1.4428,1.4526,1.4654,0.0,0.0,0.0,0.0,0.0,0.0,0.0,0.0,0.0,0.0,0.0,0.0,0.0,0.0,0.0,0.0,0.0,0.0,0.0,0.0,0.0,0.0,0.0,0.0,0.0,0.0,0.0,0.0,0.0,0.0,0.0,0.0,0.0,0.0,0.0,0.0,0.0,0.0,0.0,0.0,0.0,0.0,0.0,0.0,0.0,0.0,0.0,0.0,0.0,0.0,0.0,0.0,0.0,0.0,0.0,0.0,0.0,0.0,0.0,0.0,0.0,0.0,0.0,0.0,0.0,0.0,0.0,0.0,0.0,0.0,0.0,0.0,0.0,0.0,0.0,0.0,0.0,0.0,0.0,0.0,0.0,0.0,0.0,0.0,0.0,0.0,0.0,0.0,0.0,0.0,0.0,0.0,0.0,0.0,0.0,0.0,0.0,0.0,0.0,0.0,0.0,0.0,0.0,0.0,0.0,0.0,0.0,0.0,0.0,1.5303,1.4544,1.4167,1.4201,1.4325,1.4476,1.4614,0.0,0.0,0.0,0.0,0.0,0.0,0.0,0.0,0.0,0.0,0.0,0.0,0.0,0.0,0.0,0.0,0.0,0.0,0.0,0.0,0.0,0.0,0.0,0.0,0.0,0.0,0.0,0.0,0.0,0.0,0.0,0.0,0.0,0.0,0.0,0.0,0.0,0.0,0.0,0.0,0.0,0.0,0.0,0.0,0.0,0.0,0.0,0.0,0.0,0.0,0.0,0.0,0.0,0.0,0.0,0.0,0.0,0.0,0.0,0.0,0.0,0.0,0.0,0.0,0.0,0.0,0.0,0.0,0.0,0.0,0.0,0.0,0.0,0.0,0.0,0.0,0.0,0.0,0.0,0.0,0.0,0.0,0.0,0.0,0.0,0.0,0.0,0.0,0.0,0.0,0.0,0.0,0.0,0.0,0.0,0.0,0.0,0.0,0.0,0.0,0.0,0.0,0.0,0.0,0.0,0.0,0.0,0.0,1.4826,1.4186,1.3891,1.3995,1.4101,1.4275,0.0,0.0,0.0,0.0,0.0,0.0,0.0,0.0,0.0,0.0,0.0,0.0,0.0,0.0,0.0,0.0,0.0,0.0,0.0,0.0,0.0,0.0,0.0,0.0,0.0,0.0,0.0,0.0,0.0,0.0,0.0,0.0,0.0,0.0,0.0,0.0,0.0,0.0,0.0,0.0,0.0,0.0,0.0,0.0,0.0,0.0,0.0,0.0,0.0,0.0,0.0,0.0,0.0,0.0,0.0,0.0,0.0,0.0,0.0,0.0,0.0,0.0,0.0,0.0,0.0,0.0,0.0,0.0,0.0,0.0,0.0,0.0,0.0,0.0,0.0,0.0,0.0,0.0,0.0,0.0,0.0,0.0,0.0,0.0,0.0,0.0,0.0,0.0,0.0,0.0,0.0,0.0,0.0,0.0,0.0,0.0,0.0,0.0,0.0,0.0,0.0,0.0,0.0,0.0,0.0,0.0,0.0,0.0,0.0,1.3785,1.3447,1.3428,1.368,1.3845,1.4042,0.0,0.0,0.0,0.0,0.0,0.0,0.0,0.0,0.0,0.0,0.0,0.0,0.0,0.0,0.0,0.0,0.0,0.0,0.0,0.0,0.0,0.0,0.0,0.0,0.0,0.0,0.0,0.0,0.0,0.0,0.0,0.0,0.0,0.0,0.0,0.0,0.0,0.0,0.0,0.0,0.0,0.0,0.0,0.0,0.0,0.0,0.0,0.0,0.0,0.0,0.0,0.0,0.0,0.0,0.0,0.0,0.0,0.0,0.0,0.0,0.0,0.0,0.0,0.0,0.0,0.0,0.0,0.0,0.0,0.0,0.0,0.0,0.0,0.0,0.0,0.0,0.0,0.0,0.0,0.0,0.0,0.0,0.0,0.0,0.0,0.0,0.0,0.0,0.0,0.0,0.0,0.0,0.0,0.0,0.0,0.0,0.0,0.0,0.0,0.0,0.0,0.0,0.0,0.0,0.0,0.0,0.0,0.0,1.5365,1.3191,1.2942,1.2979,1.3244,1.3555,1.387,0.0,0.0,0.0,0.0,0.0,0.0,0.0,0.0,0.0,0.0,0.0,0.0,0.0,0.0,0.0,0.0,0.0,0.0,0.0,0.0,0.0,0.0,0.0,0.0,0.0,0.0,0.0,0.0,0.0,0.0,0.0,0.0,0.0,0.0,0.0,0.0,0.0,0.0,0.0,0.0,0.0,0.0,0.0,0.0,0.0,0.0,0.0,0.0,0.0,0.0,0.0,0.0,0.0,0.0,0.0,0.0,0.0,0.0,0.0,0.0,0.0,0.0,0.0,0.0,0.0,0.0,0.0,0.0,0.0,0.0,0.0,0.0,0.0,0.0,0.0,0.0,0.0,0.0,0.0,0.0,0.0,0.0,0.0,0.0,0.0,0.0,0.0,0.0,0.0,0.0,0.0,0.0,0.0,0.0,0.0,0.0,0.0,0.0,0.0,0.0,0.0,0.0,0.0,0.0,0.0,0.0,0.0,0.0,1.5458,1.292,1.2607,1.2565,1.2757,1.3278,1.3724,0.0,0.0,0.0,0.0,0.0,0.0,0.0,0.0,0.0,0.0,0.0,0.0,0.0,0.0,0.0,0.0,0.0,0.0,0.0,0.0,0.0,0.0,0.0,0.0,0.0,0.0,0.0,0.0,0.0,0.0,0.0,0.0,0.0,0.0,0.0,0.0,0.0,0.0,0.0,0.0,0.0,0.0,0.0,0.0,0.0,0.0,0.0,0.0,0.0,0.0,0.0,0.0,0.0,0.0,0.0,0.0,0.0,0.0,0.0,0.0,0.0,0.0,0.0,0.0,0.0,0.0,0.0,0.0,0.0,0.0,0.0,0.0,0.0,0.0,0.0,0.0,0.0,0.0,0.0,0.0,0.0,0.0,0.0,0.0,0.0,0.0,0.0,0.0,0.0,0.0,0.0,0.0,0.0,0.0,0.0,0.0,0.0,0.0,0.0,0.0,0.0,0.0,0.0,0.0,0.0,0.0,0.0,0.0,1.4652,1.2642,1.2431,1.2439,1.2558,1.3019,1.3489,0.0,0.0,0.0,0.0,0.0,0.0,0.0,0.0,0.0,0.0,0.0,0.0,0.0,0.0,0.0,0.0,0.0,0.0,0.0,0.0,0.0,0.0,0.0,0.0,0.0,0.0,0.0,0.0,0.0,0.0,0.0,0.0,0.0,0.0,0.0,0.0,0.0,0.0,0.0,0.0,0.0,0.0,0.0,0.0,0.0,0.0,0.0,0.0,1.9788,0.0,0.0,0.0,0.0,0.0,0.0,0.0,0.0,0.0,0.0,0.0,0.0,0.0,0.0,0.0,0.0,0.0,0.0,0.0,0.0,0.0,0.0,0.0,0.0,0.0,0.0,0.0,0.0,0.0,0.0,0.0,0.0,0.0,0.0,0.0,0.0,0.0,0.0,0.0,0.0,0.0,0.0,0.0,0.0,0.0,0.0,0.0,0.0,0.0,0.0,0.0,0.0,0.0,0.0,0.0,0.0,0.0,0.0,0.0,1.4039,1.2423,1.2195,1.219,1.2363,1.2783,1.3278,0.0,0.0,0.0,0.0,0.0,0.0,0.0,0.0,0.0,0.0,0.0,0.0,0.0,0.0,0.0,0.0,0.0,0.0,0.0,0.0,0.0,0.0,0.0,0.0,0.0,0.0,0.0,0.0,0.0,0.0,0.0,0.0,0.0,0.0,0.0,0.0,0.0,0.0,0.0,0.0,0.0,0.0,0.0,0.0,0.0,0.0,0.0,0.0,0.0,0.0,0.0,0.0,0.0,0.0,0.0,0.0,0.0,0.0,0.0,0.0,0.0,0.0,0.0,0.0,0.0,0.0,0.0,0.0,0.0,0.0,0.0,0.0,0.0,0.0,0.0,0.0,0.0,0.0,0.0,0.0,0.0,0.0,0.0,0.0,0.0,0.0,0.0,0.0,0.0,0.0,0.0,0.0,0.0,0.0,0.0,0.0,0.0,0.0,0.0,0.0,0.0,0.0,0.0,0.0,0.0,0.0,0.0,1.4651,1.3531,1.2252,1.1988,1.1988,1.2205,1.2572,1.3039,1.3626,0.0,0.0,0.0,0.0,0.0,0.0,0.0,0.0,0.0,0.0,0.0,0.0,0.0,0.0,0.0,0.0,0.0,0.0,0.0,0.0,0.0,0.0,0.0,0.0,0.0,0.0,0.0,0.0,0.0,0.0,0.0,0.0,0.0,0.0,0.0,0.0,0.0,0.0,1.6109,1.6004,0.0,0.0,0.0,0.0,0.0,0.0,0.0,0.0,1.9955,0.0,0.0,0.0,0.0,0.0,0.0,0.0,0.0,0.0,0.0,0.0,0.0,0.0,0.0,0.0,0.0,0.0,0.0,0.0,0.0,0.0,0.0,0.0,0.0,0.0,0.0,0.0,0.0,0.0,0.0,0.0,0.0,0.0,0.0,0.0,0.0,0.0,0.0,0.0,0.0,0.0,0.0,0.0,0.0,0.0,0.0,0.0,0.0,0.0,0.0,0.0,0.0,0.0,0.0,0.0,0.0,1.5352,1.4212,1.3157,1.2148,1.1991,1.1997,1.2195,1.2491,1.2858,1.336,0.0,0.0,0.0,0.0,0.0,0.0,0.0,0.0,0.0,0.0,0.0,0.0,0.0,0.0,0.0,0.0,0.0,0.0,0.0,0.0,0.0,0.0,0.0,0.0,0.0,0.0,0.0,0.0,0.0,0.0,0.0,0.0,0.0,0.0,0.0,0.0,0.0,0.0,0.0,1.6934,1.6809,0.0,0.0,0.0,0.0,0.0,0.0,0.0,0.0,2.0212,0.0,0.0,0.0,0.0,0.0,0.0,0.0,0.0,0.0,0.0,0.0,0.0,0.0,0.0,0.0,0.0,0.0,0.0,0.0,0.0,0.0,0.0,0.0,0.0,0.0,0.0,0.0,0.0,0.0,0.0,0.0,0.0,0.0,0.0,0.0,0.0,0.0,0.0,0.0,0.0,0.0,0.0,0.0,0.0,0.0,0.0,0.0,0.0,0.0,0.0,0.0,0.0,0.0,0.0,0.0,1.515,1.4279,1.3242,1.2015,1.1848,1.1891,1.2091,1.2392,1.2946,0.0,0.0,0.0,0.0,0.0,0.0,0.0,0.0,0.0,0.0,0.0,0.0,0.0,0.0,0.0,0.0,0.0,0.0,0.0,0.0,0.0,0.0,0.0,0.0,0.0,0.0,0.0,0.0,0.0,0.0,0.0,0.0,0.0,0.0,0.0,0.0,0.0,0.0,0.0,0.0,1.7093,1.6593,1.6675,0.0,0.0,0.0,0.0,0.0,0.0,2.0017,2.0313,0.0,0.0,0.0,0.0,0.0,0.0,0.0,0.0,0.0,0.0,0.0,0.0,0.0,0.0,0.0,0.0,0.0,0.0,0.0,0.0,0.0,0.0,0.0,0.0,0.0,0.0,0.0,0.0,0.0,0.0,0.0,0.0,0.0,0.0,0.0,0.0,0.0,0.0,0.0,0.0,0.0,0.0,0.0,0.0,0.0,0.0,0.0,0.0,0.0,0.0,0.0,0.0,0.0,0.0,0.0,1.4907,1.428,1.3245,1.185,1.1725,1.1805,1.1991,1.2312,1.3032,0.0,0.0,0.0,0.0,0.0,0.0,0.0,0.0,0.0,0.0,0.0,0.0,0.0,0.0,0.0,0.0,0.0,0.0,0.0,0.0,0.0,0.0,0.0,0.0,0.0,0.0,0.0,0.0,0.0,0.0,0.0,0.0,0.0,0.0,0.0,0.0,0.0,0.0,0.0,0.0,0.0,1.6645,1.6999,1.7382,0.0,0.0,0.0,0.0,2.0167,2.0301,0.0,0.0,0.0,0.0,0.0,0.0,0.0,0.0,0.0,0.0,0.0,0.0,0.0,0.0,0.0,0.0,0.0,0.0,0.0,0.0,0.0,0.0,0.0,0.0,0.0,0.0,0.0,0.0,0.0,0.0,0.0,0.0,0.0,0.0,0.0,0.0,0.0,0.0,0.0,0.0,0.0,0.0,0.0,0.0,0.0,0.0,0.0,0.0,0.0,0.0,0.0,0.0,0.0,0.0,0.0,0.0,1.4658,1.3651,1.2667,1.177,1.1718,1.179,1.1991,1.2266,1.3002,0.0,0.0,0.0,0.0,0.0,0.0,0.0,0.0,0.0,0.0,0.0,0.0,0.0,0.0,0.0,0.0,0.0,0.0,0.0,0.0,0.0,0.0,0.0,0.0,0.0,0.0,0.0,0.0,0.0,0.0,0.0,0.0,0.0,0.0,0.0,0.0,0.0,0.0,0.0,0.0,0.0,1.7727,1.6429,1.7524,1.805,0.0,0.0,2.0055,1.9441,1.9977,0.0,0.0,0.0,0.0,0.0,0.0,0.0,0.0,0.0,0.0,0.0,0.0,0.0,0.0,0.0,0.0,0.0,0.0,0.0,0.0,0.0,0.0,0.0,0.0,0.0,0.0,0.0,0.0,0.0,0.0,0.0,0.0,0.0,0.0,0.0,0.0,0.0,0.0,0.0,0.0,0.0,0.0,0.0,0.0,0.0,0.0,0.0,0.0,0.0,0.0,0.0,0.0,0.0,0.0,0.0,1.6096,1.4912,1.3898,1.2912,1.1956,1.1663,1.1586,1.1703,1.2102,1.3039,0.0,0.0,0.0,0.0,0.0,0.0,0.0,0.0,0.0,0.0,0.0,0.0,0.0,0.0,0.0,0.0,0.0,0.0,0.0,0.0,0.0,0.0,0.0,0.0,0.0,0.0,0.0,0.0,0.0,0.0,0.0,0.0,0.0,0.0,0.0,0.0,0.0,0.0,0.0,0.0,0.0,0.0,1.7551,1.8091,0.0,0.0,0.0,2.0173,1.9908,0.0,0.0,0.0,0.0,0.0,0.0,0.0,0.0,0.0,0.0,0.0,0.0,0.0,0.0,0.0,0.0,0.0,0.0,0.0,0.0,0.0,0.0,0.0,0.0,0.0,0.0,0.0,0.0,0.0,0.0,0.0,0.0,0.0,0.0,0.0,0.0,0.0,0.0,0.0,0.0,0.0,0.0,0.0,0.0,0.0,0.0,0.0,0.0,0.0,0.0,0.0,0.0,0.0,0.0,0.0,0.0,0.0,1.5071,1.4083,1.3089,1.2077,1.1551,1.1362,1.146,1.1876,0.0,0.0,0.0,0.0,0.0,0.0,0.0,0.0,0.0,0.0,0.0,0.0,0.0,0.0,0.0,0.0,0.0,0.0,0.0,0.0,0.0,0.0,0.0,0.0,0.0,0.0,0.0,1.8261,0.0,0.0,0.0,0.0,0.0,0.0,0.0,0.0,0.0,0.0,0.0,0.0,0.0,0.0,1.8989,1.8777,1.8746,1.8749,0.0,0.0,2.0217,2.0351,2.0426,2.0469,0.0,0.0,0.0,0.0,0.0,0.0,0.0,0.0,0.0,0.0,0.0,0.0,0.0,0.0,0.0,0.0,0.0,0.0,0.0,0.0,0.0,0.0,0.0,0.0,0.0,0.0,0.0,0.0,0.0,0.0,0.0,0.0,0.0,0.0,0.0,0.0,0.0,0.0,0.0,0.0,0.0,0.0,0.0,0.0,0.0,0.0,0.0,0.0,0.0,0.0,0.0,0.0,0.0,0.0,1.6826,1.4943,1.3874,1.2882,1.195,1.1384,1.1178,1.1316,1.1652,1.2656,0.0,0.0,0.0,0.0,0.0,0.0,0.0,0.0,0.0,0.0,0.0,0.0,0.0,0.0,0.0,0.0,0.0,0.0,0.0,0.0,0.0,0.0,0.0,0.0,0.0,0.0,0.0,0.0,0.0,0.0,0.0,0.0,0.0,0.0,0.0,0.0,0.0,0.0,0.0,0.0,0.0,2.0346,1.9541,1.9444,1.9229,0.0,1.9362,2.0071,2.0261,2.036,2.0426,2.0484,0.0,0.0,0.0,0.0,0.0,0.0,0.0,0.0,0.0,0.0,0.0,0.0,0.0,0.0,0.0,0.0,0.0,0.0,0.0,0.0,0.0,0.0,0.0,0.0,0.0,0.0,0.0,0.0,0.0,0.0,0.0,0.0,0.0,0.0,0.0,0.0,0.0,0.0,0.0,0.0,0.0,0.0,0.0,0.0,0.0,0.0,0.0,0.0,0.0,0.0,0.0,0.0,0.0,1.6784,1.5109,1.4027,1.3025,1.2115,1.1547,1.1184,1.092,1.1293,1.2266,0.0,0.0,0.0,0.0,0.0,0.0,0.0,0.0,0.0,0.0,0.0,0.0,0.0,0.0,0.0,0.0,0.0,0.0,0.0,0.0,0.0,0.0,0.0,0.0,0.0,0.0,0.0,0.0,1.851,1.8469,1.8639,0.0,0.0,0.0,0.0,0.0,0.0,0.0,0.0,0.0,0.0,2.0941,2.0105,1.9943,0.0,0.0,1.9541,1.9964,2.0142,2.0294,2.0421,2.0488,2.0957,0.0,0.0,0.0,0.0,0.0,0.0,0.0,0.0,0.0,0.0,0.0,0.0,0.0,0.0,0.0,0.0,0.0,0.0,0.0,0.0,0.0,0.0,0.0,0.0,0.0,0.0,0.0,0.0,0.0,0.0,0.0,0.0,0.0,0.0,0.0,0.0,0.0,0.0,0.0,0.0,0.0,0.0,0.0,0.0,0.0,0.0,0.0,0.0,0.0,0.0,0.0,0.0,1.7027,1.5487,1.4202,1.3093,1.2179,1.1585,1.1044,1.0623,1.0897,1.1842,0.0,0.0,0.0,0.0,0.0,0.0,0.0,0.0,0.0,0.0,0.0,0.0,0.0,0.0,0.0,0.0,0.0,0.0,0.0,0.0,0.0,0.0,0.0,0.0,0.0,0.0,0.0,0.0,1.8408,1.8555,1.9019,0.0,0.0,0.0,0.0,0.0,0.0,0.0,0.0,0.0,0.0,2.1492,2.093,2.0642,2.039,2.0169,2.0335,2.0573,2.0813,2.1024,2.1177,2.124,0.0,0.0,0.0,0.0,0.0,0.0,0.0,0.0,0.0,0.0,0.0,0.0,0.0,0.0,0.0,0.0,0.0,0.0,0.0,0.0,0.0,0.0,0.0,0.0,0.0,0.0,0.0,1.7408,0.0,0.0,1.7595,0.0,0.0,0.0,0.0,0.0,0.0,0.0,0.0,0.0,0.0,0.0,0.0,0.0,0.0,0.0,0.0,0.0,0.0,0.0,0.0,0.0,0.0,1.7624,1.6189,1.4351,1.3004,1.2108,1.1406,1.082,1.0339,1.0498,1.1337,1.2869,0.0,0.0,0.0,0.0,0.0,0.0,0.0,0.0,0.0,0.0,0.0,0.0,0.0,0.0,0.0,0.0,0.0,0.0,0.0,0.0,0.0,0.0,0.0,0.0,0.0,0.0,1.8461,1.8403,1.8825,0.0,0.0,0.0,0.0,0.0,0.0,0.0,0.0,0.0,2.3765,2.288,2.2171,2.2038,2.1491,2.1179,2.1461,2.1813,2.2152,2.2454,2.2681,2.2876,0.0,0.0,0.0,0.0,0.0,0.0,0.0,0.0,0.0,0.0,0.0,0.0,0.0,0.0,0.0,0.0,0.0,0.0,0.0,0.0,0.0,0.0,0.0,0.0,0.0,0.0,0.0,1.7199,1.7142,0.0,0.0,0.0,0.0,0.0,0.0,0.0,0.0,0.0,0.0,0.0,1.6591,1.6607,0.0,0.0,0.0,0.0,0.0,0.0,0.0,0.0,0.0,0.0,0.0,0.0,1.7437,1.5866,1.4465,1.3282,1.2378,1.1784,1.1194,1.0647,1.0444,1.1147,1.2829,0.0,0.0,0.0,0.0,0.0,0.0,0.0,0.0,0.0,0.0,0.0,0.0,0.0,0.0,0.0,0.0,0.0,0.0,0.0,0.0,0.0,0.0,0.0,0.0,0.0,1.858,0.0,0.0,0.0,0.0,0.0,0.0,0.0,0.0,0.0,0.0,0.0,2.3616,2.352,2.2994,2.2408,2.1854,2.172,2.1672,0.0,0.0,0.0,0.0,0.0,0.0,0.0,0.0,0.0,0.0,0.0,0.0,0.0,0.0,2.5573,2.557,2.557,2.5601,2.5609,0.0,0.0,0.0,0.0,0.0,0.0,0.0,0.0,0.0,0.0,0.0,0.0,0.0,0.0,1.7562,1.7497,1.7508,0.0,0.0,0.0,0.0,0.0,0.0,0.0,0.0,1.7306,1.7167,1.7099,1.7111,1.7176,1.7305,1.7631,1.7948,0.0,0.0,0.0,0.0,0.0,0.0,0.0,0.0,1.7637,1.6056,1.4816,1.3572,1.2279,1.1868,1.1269,1.0512,1.0726,1.1428,1.2692,1.4385,1.5536,0.0,0.0,0.0,0.0,0.0,0.0,0.0,0.0,0.0,0.0,0.0,0.0,0.0,0.0,0.0,0.0,0.0,0.0,0.0,0.0,0.0,0.0,0.0,1.8667,0.0,0.0,0.0,0.0,0.0,0.0,0.0,0.0,0.0,2.4407,2.4023,2.3574,2.3206,2.2867,2.247,2.1996,0.0,0.0,0.0,0.0,0.0,0.0,0.0,2.3561,2.367,2.4241,2.4788,2.5116,2.5643,2.611,2.6396,0.0,0.0,2.5652,2.5607,2.5611,2.5597,2.5599,2.5604,2.5642,2.5631,2.5603,0.0,0.0,0.0,0.0,1.8975,0.0,0.0,0.0,1.8602,1.8482,0.0,1.8436,0.0,0.0,0.0,0.0,1.8972,1.894,0.0,0.0,1.8315,1.8238,1.8192,1.8238,1.8237,1.8261,1.8786,1.9346,1.9892,1.9783,0.0,0.0,0.0,0.0,0.0,0.0,1.8197,1.6725,1.5432,1.3827,1.1898,1.1686,1.106,1.0018,1.1268,1.2108,1.2448,1.4014,1.515,1.5681,1.6188,0.0,0.0,0.0,0.0,0.0,0.0,0.0,0.0,0.0,0.0,0.0,0.0,0.0,0.0,0.0,0.0,0.0,0.0,0.0,0.0,1.867,0.0,0.0,0.0,0.0,0.0,0.0,0.0,0.0,0.0,2.3826,2.4002,2.3656,2.3253,2.2943,0.0,0.0,0.0,0.0,2.3017,2.3397,2.3808,2.421,2.4607,2.4877,2.5064,2.5139,0.0,0.0,2.6599,2.6801,2.707,2.782,2.7252,2.6493,2.5754,2.5624,2.5585,2.5584,2.5581,2.5597,2.5595,2.5566,2.5552,1.7619,0.0,0.0,0.0,0.0,1.864,1.8452,1.8376,1.8331,1.8269,1.8191,1.8191,0.0,0.0,0.0,0.0,0.0,0.0,1.8423,1.8285,1.8144,1.8098,1.8144,1.8192,1.833,1.857,1.8808,1.9077,1.9305,1.9754,2.0065,2.0299,0.0,0.0,0.0,0.0,1.8039,1.6978,1.5506,1.4297,1.3449,1.2222,1.1236,1.0508,1.1331,1.2126,1.2877,1.396,1.4845,1.5477,1.5924,0.0,0.0,0.0,0.0,0.0,0.0,0.0,0.0,0.0,0.0,0.0,0.0,0.0,0.0,0.0,0.0,0.0,0.0,0.0,1.8574,1.8639,1.9186,0.0,0.0,0.0,0.0,0.0,0.0,0.0,0.0,0.0,2.2979,2.3014,2.2943,0.0,0.0,2.2338,2.2366,2.2605,2.2935,2.3248,2.3638,0.0,2.4353,2.4629,2.4858,2.4965,2.5649,2.6276,2.6533,2.7069,2.7508,2.7711,2.7497,2.7103,2.6337,2.5777,2.5484,2.5464,2.5454,2.5457,2.5447,2.5401,2.5387,1.7327,1.8011,1.8461,1.8785,1.8947,1.8733,1.8649,1.8664,1.8679,1.8725,1.8706,1.8773,1.8791,1.8809,1.891,0.0,0.0,0.0,1.8923,1.8827,1.8743,1.8725,1.8776,1.8875,1.9071,1.9311,1.9437,1.9514,1.9624,2.0067,2.0321,2.0477,0.0,2.0844,2.0311,1.9211,1.8122,1.703,1.5681,1.4575,1.3758,1.236,1.1454,1.1127,1.175,1.2406,1.3081,1.3943,1.4641,1.5239,1.5624,1.608,0.0,0.0,0.0,0.0,0.0,0.0,0.0,0.0,0.0,0.0,0.0,1.97,1.9992,0.0,0.0,0.0,1.9276,1.9007,1.906,1.9292,0.0,0.0,0.0,0.0,0.0,0.0,0.0,2.3021,2.2754,2.2485,2.2203,2.2258,2.232,2.2315,2.2519,2.2562,2.2316,0.0,2.3102,2.3102,2.3374,2.3723,2.4042,2.4353,2.4729,2.5253,2.5857,2.6627,2.7259,2.7752,2.8122,2.8368,2.8174,2.7703,2.6898,2.6156,2.5553,2.5365,2.5335,2.5309,2.5283,2.5245,2.5215,1.6424,1.6701,1.795,1.8581,1.8817,1.9006,1.9207,1.9332,1.9391,1.9508,1.9574,1.969,1.9726,1.9639,1.9732,0.0,2.001,2.001,1.9954,1.9927,1.9927,1.9927,1.9927,2.005,2.0228,2.0389,2.0478,2.0547,2.0596,2.0534,2.0469,2.0369,2.0577,2.0429,2.003,1.9325,1.8314,1.7052,1.5992,1.4734,1.321,1.2203,1.1698,1.1771,1.2347,1.2831,1.3174,1.3875,1.4511,1.4968,1.5299,1.574,1.6246,0.0,0.0,0.0,0.0,0.0,0.0,0.0,0.0,0.0,0.0,0.0,0.0,0.0,0.0,0.0,2.0174,0.0,1.9684,2.0279,0.0,0.0,0.0,2.2605,2.2721,2.2616,2.2485,2.2341,0.0,0.0,2.165,2.1575,2.1653,2.2003,2.2722,2.2983,2.2524,2.3119,2.3436,2.3068,2.3151,2.341,2.3753,2.4188,2.478,2.5716,2.6125,2.6885,2.8165,2.8623,2.8952,2.9502,2.9036,2.819,2.7398,2.651,2.5811,2.5206,2.5149,2.513,2.5077,2.5065,2.503,1.6247,1.6525,1.7203,1.7593,1.7854,1.8238,1.8511,1.8822,1.8974,1.9101,1.9213,1.9236,1.9273,1.9332,1.9273,1.9626,2.0302,2.0188,2.0439,2.0897,2.0833,2.0833,2.0966,2.0966,2.1084,2.1278,2.1379,2.1379,2.1287,2.0828,2.0482,2.0288,1.9768,1.9515,1.9551,1.8983,1.826,1.7384,1.6467,1.5082,1.3283,1.2567,1.2247,1.2298,1.2469,1.2929,1.3683,1.3946,1.4324,1.4887,1.5179,1.5595,1.6108,1.6528,0.0,0.0,0.0,0.0,0.0,0.0,0.0,0.0,0.0,2.1204,2.1305,0.0,2.0682,0.0,1.9951,1.9745,2.0168,2.0377,0.0,0.0,2.1915,2.2158,2.2198,2.2113,2.1982,2.1731,2.1446,2.1359,2.1725,2.1587,2.1793,2.2492,2.2818,2.3164,2.3622,2.3553,2.3499,2.3557,2.331,2.3223,2.3634,2.4488,2.5226,2.5651,2.6784,2.7848,2.8222,2.8802,2.9269,2.9342,2.8725,2.7942,2.7121,2.6338,2.5533,2.481,2.4731,2.4804,2.4808,2.476,2.4716,1.5731,1.5935,1.64,1.68,1.7225,1.7978,1.8559,1.8948,1.9023,1.9276,1.9666,1.9612,1.9638,1.9717,1.9587,1.9921,2.0575,2.0494,2.0724,2.1208,2.107,2.1044,2.1058,2.1017,2.1058,2.1155,2.1181,2.1167,2.1126,2.0775,2.0546,2.0411,1.9645,1.9251,1.9262,1.8602,1.7948,1.7365,1.6421,1.5324,1.3998,1.3421,1.32,1.3289,1.306,1.3258,1.3914,1.3967,1.4259,1.4794,1.5027,1.5565,1.6422,1.6901,1.7513,0.0,0.0,0.0,0.0,0.0,0.0,0.0,0.0,0.0,0.0,0.0,2.0997,2.0543,2.0384,2.0437,2.071,2.0787,2.0994,2.1524,2.1661,2.1705,2.1705,2.1554,2.1354,2.1134,2.1082,2.1177,2.1459,2.1641,2.209,2.2983,2.3243,2.3453,2.3869,2.4044,2.4225,2.4108,2.3722,2.3428,2.3647,2.4262,2.4962,2.5522,2.6357,2.71,2.7508,2.7936,2.8251,2.8174,2.7822,2.7247,2.645,2.5968,2.5356,2.4652,2.4426,2.4495,2.4561,2.4545,2.4512,1.5382,1.5605,1.6018,1.6476,1.6991,1.8191,1.8926,1.9261,1.9176,1.9572,2.023,2.013,2.013,2.0259,2.0071,2.0356,2.0926,2.0926,2.114,2.1439,2.1312,2.1198,2.1126,2.0911,2.084,2.0796,2.0755,2.0712,2.0712,2.0642,2.0542,2.0514,1.9712,1.9239,1.9015,1.8221,1.7596,1.7115,1.6176,1.5467,1.5029,1.4475,1.4272,1.4379,1.3954,1.3869,1.4193,1.4259,1.449,1.4938,1.5162,1.5841,1.6955,1.7504,1.8283,0.0,1.995,0.0,0.0,0.0,0.0,0.0,0.0,0.0,0.0,2.2099,2.1245,2.0603,2.0967,2.1199,2.1119,2.1167,2.1214,2.1261,2.1293,2.1261,2.1183,2.0974,2.0777,2.0689,2.0925,2.1161,2.1377,2.1843,2.2546,2.3341,2.3764,2.3893,2.3918,2.4595,2.4995,2.465,2.4224,2.385,2.3871,2.4013,2.449,2.5236,2.5645,2.585,2.6643,2.6812,2.6812,2.6812,2.672,2.6351,2.5631,2.5429,2.5096,2.4432,2.4266,2.4266,2.4355,2.4391,2.4355,1.6546,1.685,1.7202,1.7588,1.805,1.8771,1.8915,1.8608,1.8793,1.9091,1.9423,1.9378,1.9467,1.9557,1.957,2.0311,2.1588,2.1588,2.2286,2.3449,2.3202,2.3003,2.2784,2.2366,2.2048,2.1874,2.171,2.1462,2.126,2.0735,2.0411,2.0167,1.944,1.9012,1.8805,0.0,0.0,0.0,1.6077,1.5643,1.553,1.5041,1.479,1.4854,1.489,0.0,1.5306,1.5546,1.5937,1.6366,1.6627,0.0,0.0,0.0,0.0,0.0,0.0,0.0,0.0,0.0,0.0,0.0,2.2184,2.2095,2.2476,2.1888,2.1311,2.0878,2.0878,2.0827,2.0628,2.0646,2.0662,2.0679,2.0679,2.0646,2.0579,2.0494,2.0543,2.0957,2.0959,2.1311,2.2254,2.2561,2.2892,2.3618,2.402,2.434,2.4623,2.4834,2.5045,2.5128,2.4584,2.4165,2.4306,2.4531,2.4657,2.5129,2.5721,2.6093,2.6261,2.6417,2.6515,2.6499,2.6082,2.5625,2.5423,2.4926,2.4448,2.4265,2.419,2.4209,2.4229,2.4247,2.4228,1.6855,1.7096,1.7399,1.7698,0.0,1.8523,1.8713,1.8614,1.8895,1.9063,1.9193,1.9859,2.0267,2.0475,2.069,2.1488,2.2556,2.2619,2.305,2.3798,2.3592,2.3332,2.2963,2.2681,2.2377,2.2259,2.184,2.1559,2.1432,2.0824,2.0483,2.0325,1.963,1.9261,1.9141,1.8131,1.7251,1.6633,1.6288,1.6107,1.6082,1.5567,1.5318,1.5385,1.5261,0.0,0.0,0.0,0.0,0.0,0.0,0.0,0.0,1.8668,0.0,1.9906,2.0652,2.1172,2.1344,2.1781,2.2039,2.1965,2.1598,2.1446,2.1681,2.1306,2.0926,2.0646,2.0561,2.0509,2.0308,2.0357,2.0392,2.0392,2.0357,2.0273,2.027,2.0406,2.0634,2.0962,2.1416,2.2029,2.2645,2.2993,2.332,2.3736,2.4036,2.4369,2.4784,2.5115,2.5386,2.5528,2.4983,2.4495,2.4406,2.4254,2.4203,2.4338,2.4675,2.4932,2.5012,2.5096,2.5178,2.5223,2.4974,2.4776,2.4777,2.4447,2.419,2.419,2.419,2.4209,2.4209,2.4209,2.419,1.6825,1.7007,1.7252,1.7433,1.7569,1.8114,1.8505,1.8791,1.9162,0.0,0.0,2.0572,2.1245,2.1549,2.199,2.263,2.3324,2.3324,2.3431,2.3699,2.3553,2.3272,2.288,2.2679,2.2518,2.2328,2.1836,2.1563,2.1537,2.1043,2.0706,2.0589,2.0038,1.968,1.9374,1.8291,1.7358,1.6666,1.6529,1.6534,1.6509,1.607,1.5885,1.5913,1.5669,1.5608,1.5825,1.6128,1.6413,1.6814,1.7185,1.7801,1.8698,1.9174,1.9787,2.0599,2.1007,2.1214,2.1291,2.1462,2.1493,2.1323,2.0942,2.0745,2.091,2.0681,2.0444,2.0235,2.02,2.0166,2.0045,2.0115,2.02,2.02,2.008,2.003,2.0076,2.0373,2.0655,2.1031,2.1839,2.2649,2.2873,2.3266,2.3638,2.3782,2.3967,2.4287,2.4815,2.5406,2.5818,2.588,2.5299,2.4769,2.4489,2.3799,2.3395,2.3499,2.3549,2.354,2.3624,2.371,2.3816,2.4083,2.4034,2.415,2.4208,2.4208,2.419,2.419,2.419,2.419,2.4208,2.417,2.419,1.6716,1.694,1.7126,1.7339,1.7475,1.8014,1.8455,1.8701,1.9524,2.0058,2.0362,2.079,2.12,2.1491,2.1733,2.2249,2.3037,2.3037,2.3424,2.3997,2.3922,2.369,2.3476,2.3,2.2667,2.2433,2.2022,2.1767,2.1674,2.161,2.1275,2.0737,2.0476,1.9805,1.8834,1.8647,1.8124,1.7119,1.6685,1.6534,1.6522,1.6403,1.6396,1.6409,1.6545,1.6728,1.6798,1.7317,1.773,1.8015,1.8375,1.8795,1.9266,1.9381,1.9692,2.008,2.0258,2.0398,2.0449,2.0599,2.0648,2.0563,2.041,2.0441,2.0561,2.0342,2.0115,1.9919,1.9869,1.9848,1.9797,1.9797,1.9812,1.9797,1.9747,1.9747,1.9762,1.9882,2.0355,2.136,2.1719,2.2293,2.3131,2.346,2.355,2.3623,2.3803,2.4256,2.487,2.5701,2.6208,2.6253,2.5484,2.4863,2.4579,2.3692,2.3049,2.296,2.3126,2.3199,2.3253,2.3468,2.3667,2.3795,2.3976,2.4094,2.417,2.419,2.417,2.417,2.417,2.4151,2.4112,2.4112,2.4113,1.6403,1.663,1.6988,1.73,1.7502,1.8201,1.8723,1.9096,1.9446,1.9627,1.9666,2.0393,2.1054,2.1485,2.1944,2.2569,2.3198,2.3492,2.3846,2.415,2.4458,2.431,2.3761,2.3641,2.3301,2.2795,2.2311,2.2103,2.2021,2.1744,2.1411,2.1104,2.061,1.9986,1.9348,1.8865,1.8338,1.786,1.7289,1.6835,1.6534,1.6534,1.6534,1.6522,1.6705,1.6833,1.696,1.7391,1.776,1.7948,1.8344,1.8669,1.8898,1.9161,1.9362,1.9508,1.9696,1.9823,1.9844,1.9929,1.9965,2.003,1.9904,1.9869,2.0065,1.9975,1.9869,1.9762,1.9726,1.9726,1.9726,1.9705,1.9705,1.9705,1.9705,1.9705,1.9735,2.0049,2.0498,2.1081,2.1485,2.1919,2.2488,2.2877,2.3101,2.3128,2.3421,2.377,2.4004,2.4509,2.5143,2.5698,2.4896,2.4228,2.4185,2.3399,2.2781,2.279,2.2825,2.2919,2.302,2.323,2.3463,2.3664,2.3834,2.3937,2.4016,2.4036,2.4016,2.3996,2.3996,2.3976,2.3937,2.3937,2.3996,1.5939,1.6019,1.6546,1.7042,1.7479,1.8128,1.8708,1.9173,1.9226,1.9159,1.9156,2.0195,2.093,2.1391,2.2091,2.2714,2.3267,2.3716,2.3979,2.4205,2.4722,2.4556,2.4054,2.4092,2.3866,2.3318,2.2882,2.2633,2.2471,2.2143,2.1806,2.1418,2.0631,2.0091,1.9725,1.8934,1.8418,1.8193,1.7738,1.7206,1.666,1.6541,1.6534,1.6522,1.662,1.6761,1.6833,1.7141,1.7391,1.7598,1.7908,1.8201,1.8358,1.8616,1.8822,1.8912,1.9087,1.9236,1.9258,1.9258,1.9332,1.9508,1.9398,1.9413,1.9581,1.9654,1.9726,1.969,1.9726,1.9726,1.9705,1.9705,1.9705,1.9705,1.9705,1.9705,1.975,2.0168,2.0557,2.0707,2.1171,2.15,2.1754,2.2143,2.2428,2.2565,2.2897,2.304,2.3011,2.3248,2.3869,2.4362,2.4059,2.3583,2.3574,2.3038,2.262,2.2605,2.2605,2.2668,2.2816,2.302,2.3241,2.3481,2.3682,2.3771,2.3834,2.3855,2.3816,2.3774,2.3774,2.3735,2.3732,2.3707,2.3771,1.5257,1.5104,1.5502,1.6211,1.7217,1.7582,1.8027,1.8469,1.9005,1.9265,1.9465,2.0413,2.0962,2.1192,2.1702,2.2249,2.2743,2.2931,2.3414,2.3981,2.4054,2.4108,2.4124,2.4071,2.3981,2.3884,2.3798,2.3481,2.3091,2.3156,2.2629,2.1487,2.0674,1.9887,1.9112,1.903,1.8585,1.7601,1.7784,1.7605,1.7124,1.671,1.6534,1.6522,1.6633,1.6718,1.6718,1.6918,1.7073,1.7227,1.7393,1.7585,1.7828,1.7908,1.8042,1.8268,1.8321,1.8386,1.8539,1.8577,1.8707,1.8936,1.9049,1.9176,1.9339,1.9413,1.9508,1.9617,1.9705,1.9705,1.9705,1.969,1.9705,1.9705,1.9705,1.9705,1.9705,1.975,2.0019,2.0662,2.0782,2.1036,2.153,2.1769,2.1839,2.1888,2.2147,2.2415,2.2514,2.2545,2.2687,2.3106,2.317,2.3334,2.327,2.2796,2.2417,2.2366,2.2377,2.2487,2.2649,2.2842,2.3095,2.3271,2.3499,2.3598,2.3602,2.361,2.3606,2.3562,2.3562,2.3602,2.3531,2.3435,2.3463,1.4676,1.4699,1.5263,1.6252,1.7352,1.7544,1.7831,1.8364,1.8555,1.8829,1.9248,1.9947,2.055,2.1151,2.1487,2.1934,2.2497,2.2854,2.3325,2.3845,2.4243,2.4288,2.4014,2.4058,2.3915,2.3494,2.3482,2.3442,2.3334,2.3176,2.257,2.1616,2.078,1.9987,1.9317,1.8778,1.8272,1.7768,1.7634,1.7486,1.7361,1.6815,1.6497,1.6461,1.6522,1.6577,1.6577,1.6748,1.6846,1.6918,1.7073,1.7199,1.7323,1.7488,1.7598,1.7733,1.776,1.7814,1.7922,1.7988,1.8108,1.8358,1.8539,1.8731,1.8974,1.913,1.9228,1.9325,1.9508,1.9632,1.9632,1.9669,1.9705,1.9705,1.9705,1.969,1.9705,1.9705,1.9824,2.0094,2.0468,2.0812,2.1111,2.147,2.1524,2.1332,2.1387,2.1519,2.1428,2.148,2.1698,2.1982,2.2275,2.2543,2.2676,2.2547,2.2344,2.231,2.231,2.2394,2.2504,2.2676,2.2893,2.3045,2.3223,2.3342,2.3301,2.3301,2.3283,2.3236,2.3188,2.3182,2.3151,2.3102,2.3133,1.4402,1.4438,1.5043,1.5998,1.7009,1.7086,1.7454,1.797,1.8159,1.8572,1.8958,1.9555,2.0293,2.0979,2.1105,2.1533,2.2129,2.2603,2.3086,2.3661,2.4149,2.4174,2.3932,2.3827,2.356,2.3133,2.3098,2.3156,2.3164,2.2807,2.2297,2.1654,2.0864,2.018,1.9517,1.862,1.8029,1.7632,1.7291,1.7151,1.711,1.6793,1.6524,1.6502,1.6424,1.6392,1.6392,1.6504,1.6547,1.6547,1.6845,1.702,1.7119,1.7394,1.7613,1.7699,1.7742,1.7784,1.7827,1.7807,1.788,1.8085,1.8192,1.8305,1.8553,1.8721,1.8812,1.8889,1.9116,1.9302,1.945,1.9508,1.9545,1.953,1.9566,1.9581,1.9581,1.9722,1.9952,1.9967,2.0647,2.0887,2.0827,2.1081,2.1195,2.0633,2.0593,2.0618,2.0412,2.0628,2.099,2.1324,2.1678,2.1991,2.2209,2.2299,2.2282,2.2327,2.231,2.2338,2.2394,2.2552,2.2659,2.2842,2.2977,2.3028,2.3028,2.2977,2.2995,2.2876,2.2825,2.2842,2.285,2.2816,2.2816,1.428,1.4203,1.4545,1.5047,1.556,1.6198,1.6683,1.7139,1.7937,1.8506,1.8964,1.9593,2.0178,2.0631,2.0636,2.105,2.1688,2.1908,2.2593,2.3492,2.3423,2.3582,2.3863,2.335,2.301,2.2889,2.2867,2.29,2.2775,2.2304,2.1909,2.1614,2.1016,2.0256,1.9375,1.8795,1.8082,1.7241,1.6946,1.6694,1.6504,1.6613,1.6719,1.6702,1.6304,1.6174,1.6249,1.6212,1.6268,1.6225,1.6749,1.7111,1.7375,1.779,1.8156,1.838,1.8439,1.8485,1.8533,1.8208,1.8109,1.8272,1.8125,1.8016,1.811,1.8214,1.8307,1.827,1.8534,1.874,1.9118,1.9246,1.9226,1.9211,1.9294,1.9346,1.9383,2.0019,2.0406,2.0593,2.1138,2.1386,2.0848,2.0737,2.0647,2.0205,1.9942,2.0086,2.036,2.0534,2.0905,2.1263,2.1622,2.1903,2.214,2.2254,2.2299,2.2327,2.231,2.2293,2.2377,2.2443,2.2542,2.2623,2.2712,2.2764,2.2721,2.2694,2.2712,2.2685,2.2632,2.2605,2.2605,2.2569,2.2569,1.4243,1.4321,1.4482,1.4824,1.5249,1.5492,1.5906,1.6484,1.7049,1.7781,1.8585,1.9231,1.9863,2.0391,2.0549,2.0913,2.1476,2.1742,2.2307,2.2916,2.2852,2.2777,2.2852,2.2553,2.2338,2.2262,2.2241,2.2083,2.1857,2.1776,2.1467,2.1009,2.0688,2.0094,1.9315,1.8798,1.8127,1.7433,1.7236,1.7018,1.677,1.6658,1.6558,1.6565,1.6666,1.674,1.6787,1.6787,1.674,1.6787,1.6991,1.7171,1.7361,1.777,1.8084,1.8179,1.8286,1.8333,1.8367,1.8329,1.8305,1.8436,1.8149,1.802,1.8051,1.7921,1.7909,1.8178,1.8328,1.8575,1.9085,1.9359,1.9462,1.9502,1.9541,1.9633,1.9832,2.0138,2.0465,2.1001,2.1687,2.2051,2.1898,2.1909,2.1695,2.1126,2.1015,2.1031,2.1182,2.1427,2.1604,2.1655,2.1924,2.211,2.1974,2.2197,2.2327,2.2327,2.231,2.231,2.2366,2.2377,2.246,2.2487,2.2542,2.2569,2.2552,2.2497,2.2515,2.2487,2.2449,2.246,2.2405,2.2422,2.2422,1.4159,1.4321,1.4321,1.4496,1.4755,1.4831,1.5159,1.5665,1.6147,1.6968,1.7942,1.8656,1.9381,2.0039,2.042,2.0692,2.1104,2.1395,2.1807,2.2252,2.2101,2.2025,2.2101,2.1807,2.1655,2.1502,2.1512,2.1404,2.1288,2.1385,2.1229,2.0834,2.0524,2.0144,1.9514,1.8924,1.8337,1.7823,1.757,1.7336,1.7032,1.6845,1.6675,1.6607,1.6913,1.7008,1.6796,1.6761,1.6811,1.6822,1.695,1.7225,1.763,1.8054,1.8363,1.8474,1.8585,1.8682,1.8694,1.87,1.8694,1.8716,1.8415,1.8247,1.8252,1.8057,1.807,1.8275,1.8424,1.8661,1.9192,1.9537,1.9683,1.9614,1.9642,1.978,2.0028,2.0309,2.0876,2.1666,2.2304,2.2566,2.2503,2.2542,2.2267,2.1784,2.1695,2.1719,2.1822,2.201,2.2192,2.2106,2.2175,2.228,2.2214,2.227,2.2293,2.2288,2.2299,2.2327,2.2327,2.2338,2.2349,2.2377,2.2377,2.2377,2.2377,2.2338,2.231,2.2327,2.2355,2.2366,2.2338,2.231,2.2338,1.4095,1.4088,1.4088,1.4166,1.4257,1.4321,1.4566,1.4901,1.5484,1.6221,1.7123,1.7934,1.8922,1.9762,2.0127,2.0391,2.0692,2.0886,2.1128,2.1589,2.1359,2.1359,2.1502,2.1128,2.0974,2.0974,2.0906,2.0974,2.1145,2.1125,2.1115,2.1064,2.0702,2.0322,2.0163,1.931,1.8636,1.8076,1.7777,1.7407,1.7093,1.7234,1.7114,1.6867,1.7051,1.6853,1.6236,1.6198,1.6232,1.6254,1.664,1.7322,1.8082,1.8578,1.902,1.9181,1.9451,1.9606,1.9685,1.9371,1.9168,1.9141,1.8874,1.8601,1.8541,1.8544,1.8518,1.8528,1.8626,1.8939,1.9477,1.9673,1.9647,1.9453,1.9588,1.9707,2.0051,2.0687,2.1561,2.2376,2.2818,2.282,2.2523,2.2547,2.2438,2.2128,2.1934,2.2004,2.2114,2.2273,2.2371,2.253,2.2619,2.2647,2.2507,2.2358,2.2316,2.2276,2.2299,2.2327,2.2327,2.2338,2.2338,2.2338,2.2338,2.2338,2.2338,2.231,2.231,2.2327,2.2327,2.2299,2.2327,2.2327,2.2327,1.4269,1.4095,1.4088,1.4088,1.4088,1.4166,1.4328,1.4573,1.5075,1.5824,1.664,1.7538,1.8451,1.9356,1.9734,2.0117,2.0615,2.0528,2.0731,2.1205,2.1051,2.0984,2.1051,2.0809,2.0664,2.0722,2.0731,2.0731,2.0809,2.0809,2.0809,2.0769,2.0671,2.0358,1.9987,1.9429,1.8948,1.8447,1.8027,1.7664,1.7282,1.7362,1.7209,1.7009,1.7,1.6819,1.6425,1.6419,1.6426,1.6438,1.6599,1.7026,1.771,1.8224,1.8667,1.8946,1.9198,1.9448,1.9592,1.957,1.9484,1.951,1.9157,1.894,1.8803,1.8573,1.8561,1.8778,1.8915,1.913,1.9623,1.9762,1.9744,1.9826,1.9887,2.0013,2.0311,2.113,2.1871,2.2285,2.2618,2.2788,2.2893,2.2979,2.3033,2.2939,2.2921,2.2921,2.2978,2.3054,2.3127,2.3095,2.3099,2.3088,2.2989,2.2834,2.263,2.2491,2.2408,2.2271,2.2254,2.2299,2.2299,2.2327,2.2327,2.2327,2.2327,2.2327,2.2327,2.2282,2.2282,2.2282,2.2299,2.2299,2.2282,1.4355,1.4095,1.4088,1.4088,1.4088,1.4088,1.4166,1.4321,1.4657,1.5325,1.6064,1.6796,1.7619,1.8523,1.8922,1.9469,1.9951,2.0029,2.0264,2.0654,2.0819,2.0819,2.0741,2.0644,2.0576,2.0576,2.0576,2.0576,2.0576,2.0576,2.0576,2.0566,2.0576,2.0439,2.0107,1.958,1.9131,1.8838,1.8301,1.7881,1.7666,1.7617,1.7468,1.7234,1.7155,1.6938,1.6656,1.6587,1.6519,1.6368,1.6343,1.6627,1.7134,1.7567,1.8007,1.8398,1.8721,1.9028,1.9303,1.9396,1.9552,1.9581,1.9395,1.9271,1.9208,1.8945,1.902,1.9246,1.9321,1.9459,1.9723,1.9798,1.9839,1.9956,2.0002,2.0197,2.0588,2.1227,2.1718,2.1983,2.231,2.2663,2.2979,2.326,2.3436,2.3551,2.3595,2.3595,2.3595,2.3651,2.3591,2.3493,2.342,2.3425,2.3494,2.3296,2.3014,2.278,2.2578,2.2329,2.2163,2.2209,2.2254,2.2299,2.2327,2.2327,2.2327,2.2327,2.2327,2.2282,2.2254,2.2209,2.2209,2.2254,2.2254,1.4475,1.4122,1.4088,1.4088,1.4088,1.4088,1.4088,1.4173,1.4321,1.481,1.5394,1.5974,1.6527,1.7326,1.7917,1.839,1.8833,1.9283,1.9636,1.9942,2.0255,2.0411,2.0566,2.0566,2.0566,2.0576,2.0576,2.0576,2.0576,2.0576,2.0576,2.0576,2.0566,2.0566,2.0371,1.9727,1.9326,1.9131,1.8467,1.8066,1.7978,1.7978,1.7822,1.7497,1.7468,1.7207,1.689,1.6703,1.6473,1.6066,1.6191,1.6413,1.6587,1.6828,1.7322,1.7822,1.8127,1.8494,1.8881,1.9093,1.9291,1.954,1.9567,1.9656,1.9698,1.9635,1.961,1.971,1.9798,1.9836,1.9836,1.9899,1.9977,1.9978,2.0042,2.0194,2.0534,2.0957,2.1313,2.165,2.2077,2.254,2.2889,2.3172,2.3392,2.3508,2.3595,2.3595,2.3595,2.3696,2.3839,2.3766,2.3651,2.3794,2.3847,2.3565,2.3301,2.327,2.2948,2.2529,2.2191,2.2178,2.2197,2.2254,2.2254,2.2254,2.2282,2.2254,2.2225,2.2152,2.2123,2.2106,2.2077,2.2077,2.2123,1.4777,1.4389,1.4175,1.4088,1.4088,1.4088,1.4088,1.4088,1.4321,1.4566,1.4977,1.5387,1.5869,1.6324,1.6846,1.7407,1.7954,1.831,1.8736,1.9152,1.9311,1.9784,2.0333,2.0566,2.0566,2.0566,2.0566,2.0576,2.0576,2.0576,2.0576,2.0576,2.0576,2.0576,2.0469,2.001,1.959,1.9268,1.8769,1.8291,1.8037,1.8008,1.7969,1.7881,1.7822,1.7627,1.7227,1.6904,1.666,1.6569,1.6695,1.6648,1.6595,1.6829,1.7022,1.7277,1.7412,1.7776,1.8333,1.8655,1.8934,1.9408,1.9512,1.9656,1.9798,1.9798,1.9798,1.9874,2.0137,2.0263,1.9987,2.0175,2.0278,1.9938,2.0029,2.0233,2.0448,2.0723,2.1055,2.1568,2.203,2.254,2.2949,2.326,2.3451,2.3566,2.3595,2.3595,2.3595,2.3653,2.3754,2.3839,2.3827,2.4061,2.4104,2.3787,2.3654,2.3681,2.3353,2.2816,2.2471,2.2189,2.2187,2.2168,2.2106,2.2106,2.2123,2.2123,2.2065,2.1961,2.1932,2.1857,2.1857,2.1857,2.1886,1.4892,1.4496,1.4208,1.4088,1.4088,1.4088,1.4088,1.4082,1.4243,1.4307,1.4552,1.4817,1.522,1.553,1.5854,1.6429,1.7082,1.7342,1.7764,1.8256,1.8505,1.9152,1.9863,2.0264,2.0489,2.0489,2.0566,2.0566,2.0576,2.0576,2.0576,2.0576,2.0576,2.0576,2.0615,2.0137,1.9707,1.9287,1.8867,1.8428,1.8047,1.8008,1.8008,1.8008,1.8008,1.7861,1.7627,1.7402,1.7129,1.6826,1.6772,1.6789,1.6737,1.6648,1.6783,1.6911,1.6857,1.7134,1.7611,1.8007,1.8398,1.8934,1.9198,1.9408,1.9656,1.9708,1.9733,2.02,2.0555,2.063,2.0577,2.0639,2.0376,1.9924,1.9965,2.008,2.0246,2.0472,2.0871,2.1361,2.1888,2.2449,2.2934,2.3216,2.3436,2.3566,2.3595,2.3595,2.3595,2.361,2.361,2.3739,2.3839,2.3991,2.4127,2.3906,2.3732,2.3842,2.3222,2.277,2.2408,2.2048,2.1936,2.1903,2.1899,2.1899,2.1915,2.1873,2.1784,2.1724,2.1648,2.157,2.1493,2.154,2.157,1.4905,1.4543,1.4222,1.4088,1.4088,1.4088,1.4088,1.4088,1.4088,1.4153,1.4216,1.4398,1.465,1.4901,1.5032,1.5448,1.6312,1.646,1.678,1.7188,1.7683,1.8327,1.9063,1.9863,2.0108,2.0186,2.0411,2.0489,2.0489,2.0489,2.0566,2.0566,2.0566,2.0576,2.0518,2.0195,1.9756,1.9307,1.8965,1.8506,1.8115,1.8008,1.8008,1.8008,1.8008,1.7998,1.7959,1.79,1.7637,1.6904,1.6875,1.6948,1.704,1.6654,1.6567,1.6738,1.6619,1.6582,1.6973,1.7367,1.7744,1.8398,1.8679,1.9047,1.9519,1.975,1.9989,2.0648,2.0803,2.1091,2.1179,2.0978,2.0492,2.0001,1.9862,1.9914,2.0016,2.0283,2.0623,2.118,2.1698,2.2263,2.2768,2.3127,2.3392,2.3566,2.3595,2.3595,2.3595,2.3595,2.361,2.3638,2.3739,2.3855,2.3967,2.3991,2.3917,2.381,2.2925,2.2337,2.2001,2.1713,2.1598,2.154,2.1554,2.1584,2.1648,2.1603,2.1481,2.1356,2.1246,2.1119,2.1007,2.1103,2.1166,1.5116,1.4823,1.4302,1.4088,1.4088,1.4088,1.4088,1.4088,1.4088,1.4082,1.4075,1.4159,1.4321,1.4566,1.4455,1.4713,1.5325,1.5492,1.565,1.6139,1.6698,1.7107,1.7844,1.8816,1.9548,1.9715,1.9951,2.002,2.0098,2.0255,2.0333,2.0333,2.0489,2.0576,2.0537,2.0391,2.0029,1.9414,1.916,1.8701,1.8125,1.8008,1.8008,1.8008,1.8008,1.8008,1.8008,1.8008,1.792,1.7783,1.7676,1.751,1.7341,1.7174,1.7076,1.6864,1.6557,1.6575,1.6984,1.712,1.7267,1.7999,1.8386,1.8779,1.9685,1.9939,2.036,2.102,2.1569,2.1744,2.1531,2.1016,2.0555,2.0166,1.9952,2.0029,2.0271,2.0372,2.066,2.1264,2.1807,2.2417,2.2949,2.3275,2.3436,2.3551,2.3595,2.3595,2.3595,2.3595,2.3595,2.3595,2.3653,2.3739,2.3736,2.3746,2.3603,2.334,2.2498,2.1873,2.1548,2.1214,2.1037,2.1087,2.1214,2.1261,2.1277,2.1151,2.0974,2.0893,2.0794,2.0712,2.0663,2.0695,2.0761,1.4979,1.471,1.4269,1.4088,1.4088,1.4088,1.4088,1.4088,1.4088,1.4088,1.4088,1.4088,1.4159,1.4243,1.4139,1.4398,1.4741,1.4915,1.4992,1.5318,1.5726,1.6139,1.646,1.744,1.8256,1.9063,1.946,1.9618,1.9706,1.9784,2.0029,2.0098,2.0333,2.0489,2.0508,2.0371,1.9902,1.9365,1.9062,1.8652,1.8115,1.8008,1.8008,1.8008,1.8008,1.8008,1.8008,1.8008,1.8008,1.8008,1.8008,1.793,1.7676,1.749,1.7321,1.715,1.6756,1.6705,1.6961,1.709,1.7311,1.7959,1.8247,1.8908,1.9618,2.0097,2.0588,2.1256,2.1795,2.2101,2.1882,2.138,2.0882,2.0496,2.0155,2.0156,2.0372,2.0459,2.0709,2.1313,2.1793,2.2356,2.2814,2.326,2.348,2.3551,2.3595,2.3595,2.3595,2.3595,2.3595,2.3595,2.3595,2.3623,2.3606,2.3453,2.3107,2.2681,2.1998,2.1462,2.1118,2.0762,2.0426,2.063,2.0828,2.0795,2.0811,2.0646,2.0545,2.0478,2.0376,2.0308,2.0273,2.0357,2.0392,1.479,1.4496,1.4208,1.4088,1.4088,1.4088,1.4088,1.4088,1.4088,1.4088,1.4088,1.4088,1.4082,1.4082,1.4082,1.4243,1.4321,1.4489,1.4657,1.4741,1.4901,1.5318,1.5643,1.6221,1.696,1.8175,1.8656,1.8895,1.9063,1.9301,1.9469,1.9784,2.0029,2.0264,2.0324,2.0061,1.9587,1.9234,1.8835,1.8426,1.8096,1.8008,1.8008,1.8008,1.8008,1.8008,1.8008,1.8008,1.8008,1.8008,1.8008,1.8008,1.792,1.7715,1.748,1.7451,1.707,1.6983,1.7093,1.7149,1.7389,1.7966,1.828,1.8808,1.9511,2.0088,2.0748,2.1402,2.1967,2.2272,2.2297,2.1907,2.1491,2.1082,2.0576,2.0412,2.0589,2.0751,2.1019,2.1361,2.1888,2.2417,2.2814,2.3216,2.3377,2.3551,2.3551,2.3595,2.3595,2.3595,2.3595,2.3595,2.3595,2.3595,2.3593,2.3458,2.3083,2.2329,2.1584,2.1113,2.0715,2.0364,2.01,2.0273,2.041,2.041,2.041,2.0308,2.0204,2.0065,2.003,2.003,2.001,2.0025,2.0045,1.479,1.4489,1.4208,1.4088,1.4088,1.4088,1.4088,1.4088,1.4088,1.4088,1.4088,1.4088,1.4088,1.4088,1.4088,1.4082,1.4166,1.425,1.425,1.425,1.4489,1.4734,1.4985,1.5401,1.5884,1.6386,1.7115,1.7683,1.8014,1.8345,1.8665,1.9073,1.9478,1.9784,1.9837,1.9611,1.9239,1.8985,1.8624,1.818,1.8037,1.8008,1.8008,1.8008,1.8008,1.8008,1.8008,1.8008,1.8008,1.8008,1.8008,1.8008,1.7988,1.791,1.7871,1.7773,1.75,1.7331,1.7421,1.7209,1.7282,1.7523,1.7905,1.8456,1.9219,1.9968,2.0737,2.1521,2.2226,2.2633,2.2347,2.2184,2.2021,2.1725,2.1324,2.116,2.1517,2.1524,2.1423,2.165,2.2077,2.2509,2.2904,2.326,2.3436,2.3551,2.3595,2.3595,2.3595,2.3595,2.3595,2.3595,2.3595,2.3595,2.358,2.3445,2.3131,2.2229,2.1479,2.088,2.043,1.9995,1.9833,2.0045,2.0115,2.0115,2.008,1.9995,1.996,1.9889,1.9818,1.9782,1.9833,1.9884,1.9833,1.4563,1.4289,1.4142,1.4088,1.4088,1.4088,1.4088,1.4088,1.4088,1.4088,1.4088,1.4088,1.4088,1.4088,1.4088,1.4088,1.4088,1.4088,1.4088,1.4173,1.425,1.4321,1.4566,1.4817,1.4985,1.5311,1.5801,1.646,1.6952,1.7277,1.7764,1.8264,1.8665,1.8975,1.9155,1.884,1.8667,1.8533,1.8195,1.7896,1.7881,1.794,1.8008,1.8008,1.8008,1.8008,1.8008,1.8008,1.8008,1.8008,1.8008,1.8008,1.8008,1.8008,1.8008,1.7969,1.7803,1.7762,1.7752,1.7603,1.7684,1.7841,1.807,1.8495,1.9115,1.9854,2.0757,2.1682,2.2211,2.2688,2.2714,2.2498,2.2299,2.2127,2.1655,2.1537,2.1754,2.1713,2.1787,2.1916,2.231,2.2723,2.3083,2.3348,2.3494,2.3566,2.3595,2.3595,2.3595,2.3595,2.3595,2.3595,2.3595,2.3595,2.355,2.34,2.3041,2.2113,2.1425,2.0827,2.0228,1.9824,1.9705,1.9777,1.9812,1.9848,1.9848,1.9833,1.9762,1.9726,1.9726,1.969,1.9726,1.9726,1.9726,1.4355,1.4088,1.4088,1.4088,1.4088,1.4088,1.4088,1.4088,1.4088,1.4088,1.4088,1.4088,1.4088,1.4088,1.4088,1.4088,1.4088,1.4088,1.4088,1.4088,1.4088,1.4166,1.4321,1.4314,1.4489,1.4657,1.4734,1.5151,1.5982,1.6378,1.6788,1.7277,1.7683,1.8006,1.8356,1.7938,1.792,1.7862,1.7614,1.7401,1.7569,1.7716,1.7803,1.7803,1.7794,1.7794,1.7794,1.7862,1.794,1.794,1.794,1.8008,1.8008,1.8008,1.8008,1.8008,1.8008,1.8008,1.7988,1.7969,1.7939,1.8121,1.8365,1.8654,1.9044,1.9771,2.0719,2.1851,2.2371,2.2653,2.2892,2.2749,2.2594,2.2553,2.2061,2.1613,2.189,2.2001,2.209,2.2297,2.2569,2.2844,2.3216,2.3436,2.3566,2.3566,2.3595,2.3595,2.3595,2.3595,2.3595,2.3595,2.3595,2.3595,2.3505,2.3325,2.2802,2.1964,2.1425,2.0932,2.0266,1.9683,1.9632,1.9596,1.9508,1.9545,1.9581,1.9581,1.9545,1.9508,1.9581,1.9581,1.9545,1.9596,1.9669,1.4355,1.4088,1.4088,1.4088,1.4088,1.4088,1.4088,1.4088,1.4088,1.4088,1.4088,1.4088,1.4088,1.4088,1.4088,1.4088,1.4088,1.4088,1.4088,1.4088,1.4088,1.4088,1.4166,1.4166,1.4166,1.423,1.423,1.4587,1.513,1.5448,1.5891,1.6468,1.6788,1.709,1.7371,1.7012,1.7003,1.7287,1.7009,1.689,1.7235,1.7304,1.7235,1.7166,1.7166,1.7304,1.7373,1.751,1.7716,1.7716,1.794,1.8008,1.8008,1.8008,1.8008,1.8008,1.8008,1.8008,1.8008,1.8008,1.8008,1.8076,1.8212,1.8405,1.8931,1.9781,2.0816,2.1815,2.2347,2.2726,2.3017,2.3002,2.3085,2.3035,2.2725,2.2496,2.2564,2.2079,2.2144,2.2362,2.2544,2.2902,2.3216,2.3436,2.3595,2.3595,2.3595,2.3595,2.3595,2.3595,2.3595,2.3595,2.3595,2.3595,2.358,2.3385,2.2685,2.1889,2.1446,2.0959,2.0147,1.9523,1.9435,1.9362,1.9288,1.9124,1.9087,1.9124,1.9213,1.9288,1.9288,1.9325,1.9325,1.945,1.9523,1.411,1.4088,1.4088,1.4088,1.4088,1.4088,1.4088,1.4088,1.4088,1.4088,1.4088,1.4088,1.4088,1.4088,1.4088,1.4088,1.4088,1.4088,1.4088,1.4088,1.4088,1.4088,1.4088,1.4088,1.4088,1.4028,1.3928,1.3897,1.4358,1.4643,1.5144,1.5545,1.5786,1.5934,1.6244,1.6006,1.6127,1.6408,1.6563,1.6709,1.6917,1.6908,1.6742,1.6603,1.6603,1.6733,1.6881,1.7097,1.7304,1.7442,1.7598,1.7735,1.7794,1.7862,1.7862,1.8008,1.8008,1.8008,1.8008,1.8008,1.8008,1.8008,1.8144,1.8405,1.8921,1.9781,2.0816,2.1827,2.2285,2.2665,2.3017,2.3065,2.3138,2.3106,2.3038,2.2923,2.2756,2.2325,2.2129,2.2311,2.2503,2.2669,2.2888,2.3024,2.3201,2.3436,2.348,2.3523,2.3566,2.3595,2.3595,2.3595,2.3595,2.3595,2.3595,2.349,2.2733,2.2032,2.1634,2.0976,1.9885,1.9339,1.9278,1.9031,1.8822,1.8707,1.8592,1.8707,1.886,1.895,1.8988,1.8988,1.8974,1.9176,1.9302,1.3822,1.3997,1.4082,1.4088,1.4088,1.4088,1.4088,1.4088,1.4088,1.4088,1.4088,1.4088,1.4088,1.4088,1.4088,1.4088,1.4088,1.4088,1.4088,1.4088,1.4088,1.4088,1.4055,1.4041,1.3955,1.3975,1.3661,1.3554,1.3675,1.394,1.4282,1.4682,1.4664,1.4844,1.4946,1.501,1.5213,1.5657,1.6059,1.6219,1.6298,1.6123,1.5895,1.5816,1.5816,1.5956,1.6184,1.6473,1.6682,1.6968,1.7185,1.7392,1.7579,1.7716,1.7852,1.794,1.8008,1.8008,1.8008,1.8008,1.8008,1.8008,1.8202,1.8596,1.9309,1.9966,2.0752,2.1901,2.2347,2.2726,2.2957,2.3125,2.3138,2.3085,2.2989,2.2898,2.2863,2.2507,2.2126,2.2042,2.2117,2.2096,2.2283,2.2477,2.2754,2.3172,2.3363,2.3451,2.3494,2.3508,2.3551,2.3551,2.3551,2.3551,2.3566,2.3329,2.2646,2.212,2.1739,2.109,2.0074,1.9425,1.9159,1.8888,1.8456,1.8201,1.8042,1.8319,1.8514,1.8397,1.8344,1.8514,1.8592,1.8836,1.9026,1.373,1.3737,1.3997,1.4088,1.4088,1.4088,1.4088,1.4088,1.4088,1.4088,1.4088,1.4088,1.4088,1.4088,1.4088,1.4088,1.4088,1.4088,1.4088,1.4088,1.4088,1.4088,1.4021,1.3874,1.3701,1.3661,1.3394,1.3247,1.3227,1.3213,1.3419,1.3571,1.376,1.3843,1.4009,1.4165,1.4551,1.5017,1.5443,1.5426,1.5213,1.4974,1.4681,1.4482,1.4617,1.4824,1.5046,1.5551,1.6044,1.6333,1.6621,1.7047,1.7314,1.7442,1.7579,1.7862,1.794,1.794,1.8008,1.8008,1.8008,1.8144,1.8472,1.8998,1.9704,2.0549,2.1336,2.2049,2.2543,2.2848,2.3017,2.3125,2.3125,2.3088,2.3009,2.3035,2.3013,2.2889,2.2465,2.197,2.1789,2.1785,2.1662,2.187,2.231,2.2709,2.3083,2.3172,2.3319,2.3348,2.3465,2.3508,2.3551,2.3508,2.3494,2.3169,2.2743,2.2248,2.1784,2.1153,2.0372,1.9809,1.8974,1.8549,1.8167,1.78,1.7529,1.7679,1.7787,1.7707,1.7707,1.7948,1.8161,1.8358,1.863,1.3234,1.3398,1.3737,1.3913,1.4088,1.4088,1.4088,1.4088,1.4088,1.4088,1.4088,1.4088,1.4088,1.4088,1.4088,1.4088,1.4088,1.4088,1.4088,1.4088,1.4088,1.4088,1.3981,1.3828,1.3647,1.3527,1.3193,1.2919,1.2913,1.2806,1.2672,1.2795,1.3142,1.3182,1.3369,1.3579,1.4086,1.4511,1.48,1.48,1.4552,1.4361,1.4129,1.3775,1.3775,1.4129,1.441,1.4697,1.5125,1.5559,1.5921,1.6342,1.6899,1.7028,1.7373,1.7716,1.7794,1.7862,1.8008,1.8008,1.8076,1.8414,1.8798,1.9375,2.0096,2.0869,2.1588,2.2161,2.2653,2.2969,2.3078,2.3125,2.3138,2.3138,2.3148,2.3141,2.3107,2.3013,2.2794,2.2278,2.1799,2.1471,2.1361,2.1246,2.1746,2.2249,2.2572,2.2904,2.2994,2.3083,2.3157,2.3246,2.3231,2.329,2.3275,2.3113,2.2893,2.2367,2.1771,2.1121,2.039,1.9331,1.8615,1.8225,1.7784,1.7356,1.7115,1.7073,1.7157,1.7227,1.7352,1.7516,1.772,1.7962,1.8187,1.2454,1.2796,1.3222,1.3652,1.3997,1.4088,1.4088,1.4088,1.4088,1.4088,1.4088,1.4088,1.4088,1.4088,1.4088,1.4088,1.4088,1.4088,1.4088,1.4088,1.4088,1.4088,1.3988,1.3808,1.3581,1.342,1.3053,1.2822,1.2605,1.2398,1.2378,1.2492,1.2685,1.2719,1.2859,1.3107,1.3652,1.4023,1.4168,1.408,1.3835,1.3732,1.3477,1.3185,1.3185,1.3411,1.3695,1.3905,1.4266,1.4768,1.5204,1.563,1.6123,1.6612,1.6959,1.7373,1.7716,1.7784,1.793,1.8076,1.8212,1.8539,1.9065,1.9715,2.0484,2.1123,2.1839,2.242,2.2787,2.3017,2.3078,2.3125,2.3125,2.3138,2.3138,2.311,2.3119,2.3035,2.2827,2.2521,2.2078,2.1671,2.1432,2.1302,2.1399,2.1774,2.1935,2.231,2.2586,2.2678,2.2768,2.2844,2.2875,2.2934,2.2994,2.2741,2.2503,2.2144,2.1587,2.1084,2.0297,1.9235,1.8491,1.8252,1.779,1.705,1.6791,1.6778,1.6863,1.6947,1.706,1.7157,1.731,1.7557,1.776,1.1569,1.21,1.2528,1.3137,1.3652,1.4004,1.4088,1.4088,1.4088,1.4088,1.4088,1.4088,1.4088,1.4088,1.4088,1.4088,1.4088,1.4088,1.4088,1.4088,1.4088,1.4088,1.3981,1.3794,1.352,1.3206,1.2899,1.2694,1.2358,1.2331,1.2311,1.2305,1.2425,1.2432,1.2405,1.2686,1.3046,1.32,1.3346,1.32,1.3053,1.29,1.2746,1.2592,1.2673,1.2893,1.3112,1.3266,1.3622,1.4057,1.4418,1.4991,1.5692,1.6184,1.6751,1.7392,1.7588,1.7794,1.8008,1.8212,1.8405,1.8741,1.9264,1.9922,2.0764,2.1451,2.2013,2.2482,2.2848,2.303,2.3078,2.3125,2.3138,2.3125,2.3125,2.3125,2.3062,2.3097,2.2879,2.2723,2.2463,2.209,2.1746,2.144,2.1353,2.1376,2.1407,2.165,2.1983,2.2109,2.2156,2.2296,2.2374,2.2434,2.2449,2.231,2.2095,2.1785,2.1349,2.0792,2.018,1.9212,1.8636,1.8367,1.7613,1.6764,1.662,1.6534,1.665,1.6735,1.6748,1.6833,1.6989,1.7157,1.7365,1.0631,1.1149,1.1757,1.2357,1.2875,1.3561,1.3913,1.4082,1.4088,1.4088,1.4088,1.4088,1.4088,1.4088,1.4088,1.4088,1.4088,1.4088,1.4088,1.4088,1.4088,1.4088,1.3995,1.3781,1.3487,1.32,1.2899,1.2599,1.2318,1.2305,1.2305,1.2305,1.2305,1.2378,1.2452,1.2673,1.282,1.2973,1.2973,1.29,1.2746,1.2599,1.2519,1.2298,1.2372,1.2526,1.2673,1.2826,1.3046,1.3484,1.3775,1.4346,1.5125,1.5692,1.6333,1.7107,1.7442,1.7735,1.794,1.8212,1.8472,1.8875,1.9407,1.9987,2.07,2.14,2.1963,2.2408,2.2787,2.2969,2.3078,2.3078,2.3078,2.3138,2.3125,2.3125,2.31,2.3113,2.2987,2.2883,2.2648,2.2159,2.1744,2.1411,2.1275,2.1042,2.1009,2.101,2.1299,2.1396,2.1431,2.165,2.1746,2.1841,2.1888,2.1746,2.165,2.1431,2.0987,2.0417,1.9721,1.9158,1.861,1.8206,1.7365,1.6522,1.6534,1.6534,1.6534,1.6534,1.6577,1.6633,1.6791,1.6876,1.696,0.9772,1.0289,1.0809,1.1499,1.2277,1.3222,1.3737,1.4082,1.4088,1.4088,1.4088,1.4088,1.4088,1.4088,1.4088,1.4088,1.4088,1.4088,1.4088,1.4088,1.4088,1.4088,1.3995,1.3781,1.3494,1.3193,1.2893,1.2599,1.2318,1.2305,1.2305,1.2305,1.2305,1.2378,1.2452,1.2526,1.2519,1.2673,1.2673,1.2599,1.2526,1.2452,1.2445,1.2305,1.2305,1.2378,1.2445,1.2526,1.268,1.2973,1.3339,1.3768,1.4553,1.5275,1.5991,1.683,1.752,1.7735,1.8008,1.8212,1.8405,1.8607,1.933,1.9922,2.0431,2.1071,2.1639,2.2149,2.2531,2.2787,2.2969,2.303,2.3078,2.3078,2.3125,2.3125,2.3125,2.3125,2.3113,2.2975,2.2815,2.2334,2.1845,2.1423,2.1158,2.0858,2.0643,2.0603,2.061,2.0759,2.0858,2.1068,2.1166,2.1202,2.1251,2.1166,2.1118,2.1082,2.0611,2.0041,1.9817,1.9266,1.87,1.8113,1.7413,1.6873,1.6609,1.6534,1.6504,1.6491,1.6534,1.6577,1.662,1.6663,1.6705,0.8978,0.951,0.9772,1.0549,1.1757,1.2875,1.3659,1.4088,1.4088,1.4088,1.4088,1.4088,1.4088,1.4088,1.4088,1.4088,1.4088,1.4088,1.4088,1.4088,1.4088,1.4075,1.3955,1.3754,1.344,1.316,1.2886,1.2674,1.2338,1.2305,1.2305,1.2305,1.2305,1.2305,1.2305,1.2378,1.2372,1.2378,1.2452,1.2378,1.2378,1.2305,1.2305,1.2305,1.2305,1.2305,1.2378,1.2378,1.2452,1.268,1.2973,1.355,1.4274,1.507,1.5921,1.676,1.7598,1.7803,1.794,1.8134,1.8212,1.8405,1.8854,1.9441,2.0031,2.0613,2.1187,2.1702,2.2149,2.2531,2.2775,2.2896,2.2957,2.3017,2.3065,2.3125,2.3125,2.3125,2.3125,2.3027,2.304,2.2702,2.2276,2.18,2.0951,2.0682,2.0376,2.0013,2.0067,2.0321,2.0409,2.056,2.061,2.061,2.061,2.0673,2.0673,2.0673,2.0254,1.9798,1.9573,1.9346,1.8679,1.8078,1.7626,1.7237,1.6892,1.6623,1.6485,1.6485,1.6529,1.6448,1.6491,1.6522,1.6522,0.7993,0.8265,0.9161,0.9946,1.0895,1.2448,1.3483,1.4088,1.4088,1.4088,1.4088,1.4088,1.4088,1.4088,1.4088,1.4088,1.4075,1.4088,1.4088,1.4062,1.3988,1.3915,1.3794,1.3532,1.3313,1.3013,1.2752,1.2647,1.2365,1.2305,1.2305,1.2305,1.2305,1.2305,1.2305,1.2305,1.2305,1.2305,1.2305,1.2305,1.2305,1.2305,1.2305,1.2305,1.2305,1.2305,1.2305,1.2305,1.2378,1.2452,1.2826,1.3331,1.3912,1.4697,1.5542,1.676,1.7245,1.752,1.7716,1.7852,1.793,1.8076,1.8462,1.8911,1.9441,2.0031,2.0677,2.1187,2.1765,2.2149,2.2592,2.2787,2.2909,2.3017,2.3065,2.3125,2.3125,2.3125,2.3065,2.3078,2.303,2.2834,2.2437,2.1531,2.0753,2.0484,2.0104,1.9666,1.9565,1.9811,1.9965,2.0105,2.022,2.0207,2.0271,2.0321,2.0321,2.0245,1.9851,1.9661,1.9598,1.9309,1.8618,1.8022,1.7588,1.7281,1.7102,1.6834,1.6453,1.6515,1.6532,1.6423,1.6349,1.6306,1.625,0.7569,0.774,0.8519,0.9598,1.0809,1.2186,1.3228,1.3913,1.4082,1.4088,1.4088,1.4088,1.4088,1.4088,1.4082,1.4021,1.3901,1.3791,1.3662,1.3517,1.3602,1.3375,1.3251,1.3187,1.2916,1.2729,1.2612,1.2452,1.2331,1.2305,1.2305,1.2305,1.2305,1.2305,1.2305,1.2305,1.2305,1.2305,1.2305,1.2305,1.2305,1.2305,1.2305,1.2305,1.2305,1.2305,1.2305,1.2305,1.2305,1.2305,1.2673,1.3046,1.3768,1.4633,1.5338,1.6403,1.6751,1.7097,1.7304,1.7579,1.7725,1.7862,1.8066,1.8395,1.8921,1.9441,2.0096,2.0741,2.125,2.1827,2.2285,2.2739,2.2909,2.3078,2.3065,2.3125,2.3125,2.3125,2.3078,2.3017,2.2909,2.2739,2.2187,2.1219,2.0547,2.0225,1.9725,1.9179,1.9081,1.9344,1.9488,1.9656,1.9759,1.9862,1.9926,1.9926,1.9875,1.985,1.9684,1.9506,1.9558,1.9307,1.8697,1.8044,1.7431,1.7284,1.7105,1.6681,1.6417,1.6457,1.6293,1.5969,1.5869,1.5901,1.5856,0.7325,0.7536,0.8039,0.9414,1.1241,1.2015,1.279,1.3561,1.3828,1.4004,1.4088,1.4088,1.4088,1.4075,1.4021,1.3874,1.3569,1.3408,1.3108,1.2823,1.2686,1.2555,1.2495,1.2447,1.2421,1.2342,1.2348,1.2291,1.2325,1.2305,1.2305,1.2305,1.2305,1.2305,1.2305,1.2305,1.2305,1.2305,1.2305,1.2305,1.2305,1.2305,1.2305,1.2305,1.2305,1.2305,1.2305,1.2305,1.2305,1.2378,1.2526,1.29,1.3702,1.4497,1.5204,1.5692,1.6035,1.6464,1.6821,1.7107,1.7451,1.7657,1.7862,1.8134,1.8519,1.8988,1.9639,2.0366,2.0944,2.1651,2.2173,2.2616,2.286,2.3017,2.3065,2.3078,2.3017,2.2957,2.2836,2.2714,2.2531,2.2334,2.1896,2.095,1.9948,1.9715,1.9111,1.8406,1.8441,1.8643,1.8963,1.9081,1.9303,1.9408,1.946,1.946,1.946,1.9384,1.9294,1.9242,1.9178,1.9004,1.8794,1.8015,1.7255,1.7266,1.7074,1.6539,1.6162,1.6233,1.5975,1.544,1.5277,1.5322,1.5322,0.6379,0.6837,0.7945,0.9327,1.0717,1.1327,1.2009,1.2705,1.2966,1.3392,1.3997,1.4082,1.4075,1.3951,1.3771,1.353,1.3254,1.2804,1.2548,1.2203,1.1927,1.1636,1.1648,1.1676,1.1777,1.1921,1.2029,1.2083,1.2157,1.2231,1.2305,1.2305,1.2305,1.2305,1.2305,1.2305,1.2305,1.2305,1.2305,1.2305,1.2305,1.2305,1.2305,1.2305,1.2305,1.2305,1.2305,1.2305,1.2305,1.2305,1.2526,1.29,1.3492,1.3985,1.4402,1.4824,1.518,1.5613,1.6114,1.6612,1.7038,1.7451,1.7657,1.7852,1.8192,1.8664,1.9187,1.9911,2.0635,2.1336,2.2049,2.2432,2.2812,2.2969,2.3065,2.3017,2.2909,2.2726,2.2531,2.2347,2.2161,2.1744,2.1304,2.0542,1.9584,1.8681,1.7783,1.7267,1.7368,1.7567,1.817,1.8441,1.8839,1.8946,1.8987,1.8987,1.8922,1.8881,1.8804,1.8762,1.8774,1.8395,1.7955,1.7584,1.7073,1.6958,1.6658,1.6135,1.5893,1.5882,1.5421,1.4786,1.4558,1.4501,1.4558,0.5755,0.6148,0.7388,0.8564,0.9597,1.0183,1.0995,1.1781,1.1963,1.2571,1.3452,1.3594,1.3678,1.358,1.3378,1.3017,1.2648,1.2213,1.1636,1.1265,1.0958,1.0684,1.0693,1.0818,1.1041,1.1204,1.1564,1.1781,1.1935,1.2083,1.2157,1.2157,1.2231,1.2231,1.2305,1.2305,1.2305,1.2305,1.2305,1.2305,1.2305,1.2305,1.2305,1.2305,1.2305,1.2305,1.2305,1.2305,1.2305,1.2378,1.2532,1.268,1.3046,1.3404,1.3688,1.3977,1.433,1.4768,1.5338,1.5974,1.6473,1.6959,1.752,1.7657,1.792,1.8317,1.8854,1.9573,2.0237,2.1008,2.1726,2.2235,2.2555,2.2787,2.2714,2.2604,2.2469,2.2273,2.2013,2.1702,2.1451,2.1123,2.0534,1.9587,1.8714,1.818,1.7185,1.6623,1.6648,1.6694,1.7245,1.7689,1.8073,1.829,1.8278,1.8375,1.8441,1.8387,1.8236,1.8116,1.7961,1.7554,1.7149,1.6897,1.667,1.6488,1.6122,1.557,1.5329,1.5192,1.4677,1.4057,1.3905,1.3763,1.3763,0.5076,0.5528,0.6473,0.7439,0.8279,0.8928,0.9755,1.0616,1.0874,1.1472,1.2105,1.2416,1.2702,1.3016,1.277,1.227,1.1786,1.1289,1.0642,1.0013,0.9601,0.9545,0.9611,0.9781,1.0078,1.053,1.1043,1.1186,1.1409,1.1558,1.1781,1.1929,1.2003,1.215,1.215,1.215,1.2157,1.2157,1.2231,1.2231,1.2305,1.2305,1.2305,1.2305,1.2305,1.2305,1.2305,1.2305,1.2305,1.2378,1.2452,1.2526,1.2673,1.2893,1.3119,1.3404,1.3768,1.4201,1.4705,1.5346,1.5974,1.6533,1.7107,1.752,1.7716,1.8114,1.8654,1.9177,1.9901,2.0624,2.1336,2.1851,2.2223,2.2384,2.2261,2.2125,2.1916,2.1643,2.1267,2.0962,2.0643,2.0322,1.9574,1.8657,1.8038,1.7532,1.6989,1.6557,1.6181,1.6239,1.6513,1.6842,1.7179,1.7335,1.7556,1.7667,1.7776,1.7623,1.7457,1.729,1.7059,1.6602,1.6407,1.6493,1.6266,1.5775,1.5436,1.5035,1.4795,1.4464,1.3924,1.3344,1.3238,1.3142,1.3104,0.3992,0.4864,0.5723,0.6523,0.7353,0.7879,0.847,0.8973,0.9252,0.9577,1.0147,1.0392,1.1142,1.322,1.2012,1.1307,1.0867,1.0253,0.9474,0.8794,0.8556,0.8484,0.8556,0.8856,0.9311,0.9841,1.0363,1.0663,1.0663,1.0881,1.1111,1.126,1.126,1.1409,1.1558,1.1632,1.1706,1.1855,1.2003,1.2077,1.2231,1.2305,1.2305,1.2305,1.2305,1.2305,1.2305,1.2305,1.2305,1.2305,1.2298,1.2372,1.2445,1.2519,1.2673,1.2973,1.3339,1.3775,1.4346,1.4919,1.5551,1.6263,1.6899,1.7382,1.7647,1.8056,1.8462,1.8875,1.9528,2.0237,2.088,2.1325,2.1639,2.1608,2.1498,2.1276,2.0991,2.0613,2.0231,1.9975,1.9717,1.9297,1.8743,1.7947,1.7277,1.6789,1.6218,1.578,1.5768,1.5778,1.5894,1.6114,1.6389,1.6627,1.692,1.6899,1.6955,1.6797,1.674,1.6684,1.6385,1.5687,1.5538,1.5773,1.5242,1.4646,1.4379,1.4205,1.3891,1.3541,1.3096,1.2686,1.2578,1.252,1.252]}]]